[[{"header":{"parameterUnit":"m.s-1","parameterCategory":1,"la1":30.6,"la2":28.766,"lo1":-90.7593,"lo2":-88.6598,"dy":0.0162,"dx":0.0183,"nx":116,"ny":114,"refTime":"2023-07-25T12:00:00:Z","depth":0,"parameterNumber":2,"parameterNumberName":"U-component_of_WINDS"},"data":[0.0,0.0,0.0,0.0,0.0,0.0,0.0,0.0,0.0,0.0,0.0,0.0,0.0,0.0,0.0,0.0,0.0,0.0,0.0,0.0,0.0,0.0,0.0,0.0,0.0,0.0,0.0,0.0,0.0,0.0,0.0,0.0,0.0,0.0,0.0,0.0,0.0,0.0,0.0,0.0,0.0,0.0,0.0,0.0,0.0,0.0,0.0,0.0,0.0,0.0,0.0,0.0,0.0,0.0,0.0,0.0,0.0,0.0,0.0,0.0,0.0,0.0,0.0,0.0,0.0,0.0,0.0,0.0,0.0,0.0,0.0,0.0,0.0,0.0,0.0,0.0,0.0,0.0,0.0,0.0,0.0,0.0,0.0,0.0,0.0,0.0,0.0,0.0,0.0,0.0,0.0,0.0,0.0,0.0,0.0,0.0,0.0,0.0,0.0,0.0,0.0,0.0,0.0,0.0,0.0,0.0,0.0,0.0,0.0,0.0,0.0,0.0,0.0,0.0,0.0,0.0,0.0,0.0,0.0,0.0,0.0,0.0,0.0,0.0,0.0,0.0,0.0,0.0,0.0,0.0,0.0,0.0,0.0,0.0,0.0,0.0,0.0,0.0,0.0,0.0,0.0,0.0,0.0,0.0,0.0,0.0,0.0,0.0,0.0,0.0,0.0,0.0,0.0,0.0,0.0,0.0,0.0,0.0,0.0,0.0,0.0,0.0,0.0,0.0,0.0,0.0,0.0,0.0,0.0,0.0,0.0,0.0,0.0,0.0,0.0,0.0,0.0,0.0,0.0,0.0,0.0,0.0,0.0,0.0,0.0,0.0,0.0,0.0,0.0,0.0,0.0,0.0,0.0,0.0,0.0,0.0,0.0,0.0,0.0,0.0,0.0,0.0,0.0,0.0,0.0,0.0,0.0,0.0,0.0,0.0,0.0,0.0,0.0,0.0,0.0,0.0,0.0,0.0,0.0,0.0,0.0,0.0,0.0,0.0,0.0,0.0,0.0,0.0,0.0,0.0,0.0,0.0,0.0,0.0,0.0,0.0,0.0,0.0,0.0,0.0,0.0,0.0,0.0,0.0,0.0,0.0,0.0,0.0,0.0,0.0,0.0,0.0,0.0,0.0,0.0,0.0,0.0,0.0,0.0,0.0,0.0,0.0,0.0,0.0,0.0,0.0,0.0,0.0,0.0,0.0,0.0,0.0,0.0,0.0,0.0,0.0,0.0,0.0,0.0,0.0,0.0,0.0,0.0,0.0,0.0,0.0,0.0,0.0,0.0,0.0,0.0,0.0,0.0,0.0,0.0,0.0,0.0,0.0,0.0,0.0,0.0,0.0,0.0,0.0,0.0,0.0,0.0,0.0,0.0,0.0,0.0,0.0,0.0,0.0,0.0,0.0,0.0,0.0,0.0,0.0,0.0,0.0,0.0,0.0,0.0,0.0,0.0,0.0,0.0,0.0,0.0,0.0,0.0,0.0,0.0,0.0,0.0,0.0,0.0,0.0,0.0,0.0,0.0,0.0,0.0,0.0,0.0,0.0,0.0,0.0,0.0,0.0,0.0,0.0,0.0,0.0,0.0,0.0,0.0,0.0,0.0,0.0,0.0,0.0,0.0,0.0,0.0,0.0,0.0,0.0,0.0,0.0,0.0,0.0,0.0,0.0,0.0,0.0,0.0,0.0,0.0,0.0,0.0,0.0,0.0,0.0,0.0,0.0,0.0,0.0,0.0,0.0,0.0,0.0,0.0,0.0,0.0,0.0,0.0,0.0,0.0,0.0,0.0,0.0,0.0,0.0,0.0,0.0,0.0,0.0,0.0,0.0,0.0,0.0,0.0,0.0,0.0,0.0,0.0,0.0,0.0,0.0,0.0,0.0,0.0,0.0,0.0,0.0,0.0,0.0,0.0,0.0,0.0,0.0,0.0,0.0,0.0,0.0,0.0,0.0,0.0,0.0,0.0,0.0,0.0,0.0,0.0,0.0,0.0,0.0,0.0,0.0,0.0,0.0,0.0,0.0,0.0,0.0,0.0,0.0,0.0,0.0,0.0,0.0,0.0,0.0,0.0,0.0,0.0,0.0,0.0,0.0,0.0,0.0,0.0,0.0,0.0,0.0,0.0,0.0,0.0,0.0,0.0,0.0,0.0,0.0,0.0,0.0,0.0,0.0,0.0,0.0,0.0,0.0,0.0,0.0,0.0,0.0,0.0,0.0,0.0,0.0,0.0,0.0,0.0,0.0,0.0,0.0,0.0,0.0,0.0,0.0,0.0,0.0,0.0,0.0,0.0,0.0,0.0,0.0,0.0,0.0,0.0,0.0,0.0,0.0,0.0,0.0,0.0,0.0,0.0,0.0,0.0,0.0,0.0,0.0,0.0,0.0,0.0,0.0,0.0,0.0,0.0,0.0,0.0,0.0,0.0,0.0,0.0,0.0,0.0,0.0,0.0,0.0,0.0,0.0,0.0,0.0,0.0,0.0,0.0,0.0,0.0,0.0,0.0,0.0,0.0,0.0,0.0,0.0,0.0,0.0,0.0,0.0,0.0,0.0,0.0,0.0,0.0,0.0,0.0,0.0,0.0,0.0,0.0,0.0,0.0,0.0,0.0,0.0,0.0,0.0,0.0,0.0,0.0,0.0,0.0,0.0,0.0,0.0,0.0,0.0,0.0,0.0,0.0,0.0,0.0,0.0,0.0,0.0,0.0,0.0,0.0,0.0,0.0,0.0,0.0,0.0,0.0,0.0,0.0,0.0,0.0,0.0,0.0,0.0,0.0,0.0,0.0,0.0,0.0,0.0,0.0,0.0,0.0,0.0,0.0,0.0,0.0,0.0,0.0,0.0,0.0,0.0,0.0,0.0,0.0,0.0,0.0,0.0,0.0,0.0,0.0,0.0,0.0,0.0,0.0,0.0,0.0,0.0,0.0,0.0,0.0,0.0,0.0,0.0,0.0,0.0,0.0,0.0,0.0,0.0,0.0,0.0,0.0,0.0,0.0,0.0,0.0,0.0,0.0,0.0,0.0,0.0,0.0,0.0,0.0,0.0,0.0,0.0,0.0,0.0,0.0,0.0,0.0,0.0,0.0,0.0,0.0,0.0,0.0,0.0,0.0,0.0,0.0,0.0,0.0,0.0,0.0,0.0,0.0,0.0,0.0,0.0,0.0,0.0,0.0,0.0,0.0,0.0,0.0,0.0,0.0,0.0,0.0,0.0,0.0,0.0,0.0,0.0,0.0,0.0,0.0,0.0,0.0,0.0,0.0,0.0,0.0,0.0,0.0,0.0,0.0,0.0,0.0,0.0,0.0,0.0,0.0,0.0,0.0,0.0,0.0,0.0,0.0,0.0,0.0,0.0,0.0,0.0,0.0,0.0,0.0,0.0,0.0,0.0,0.0,0.0,0.0,0.0,0.0,0.0,0.0,0.0,0.0,0.0,0.0,0.0,0.0,0.0,0.0,0.0,0.0,0.0,0.0,0.0,0.0,0.0,0.0,0.0,0.0,0.0,0.0,0.0,0.0,0.0,0.0,0.0,0.0,0.0,0.0,0.0,0.0,0.0,0.0,0.0,0.0,0.0,0.0,0.0,0.0,0.0,0.0,0.0,0.0,0.0,0.0,0.0,0.0,0.0,0.0,0.0,0.0,0.0,0.0,0.0,0.0,0.0,0.0,0.0,0.0,0.0,0.0,0.0,0.0,0.0,0.0,0.0,0.0,0.0,0.0,0.0,0.0,0.0,0.0,0.0,0.0,0.0,0.0,0.0,0.0,0.0,0.0,0.0,0.0,0.0,0.0,0.0,0.0,0.0,0.0,0.0,0.0,0.0,0.0,0.0,0.0,0.0,0.0,0.0,0.0,0.0,0.0,0.0,0.0,0.0,0.0,0.0,0.0,0.0,0.0,0.0,0.0,0.0,0.0,0.0,0.0,0.0,0.0,0.0,0.0,0.0,0.0,0.0,0.0,0.0,0.0,0.0,0.0,0.0,0.0,0.0,0.0,0.0,0.0,0.0,0.0,0.0,0.0,0.0,0.0,0.0,0.0,0.0,0.0,0.0,0.0,0.0,0.0,0.0,0.0,0.0,0.0,0.0,0.0,0.0,0.0,0.0,0.0,0.0,0.0,0.0,0.0,0.0,0.0,0.0,0.0,0.0,0.0,0.0,0.0,0.0,0.0,0.0,0.0,0.0,0.0,0.0,0.0,0.0,0.0,0.0,0.0,0.0,0.0,0.0,0.0,0.0,0.0,0.0,0.0,0.0,0.0,0.0,0.0,0.0,0.0,0.0,0.0,0.0,0.0,0.0,0.0,0.0,0.0,0.0,0.0,0.0,0.0,0.0,0.0,0.0,0.0,0.0,0.0,0.0,0.0,0.0,0.0,0.0,0.0,0.0,0.0,0.0,0.0,0.0,0.0,0.0,0.0,0.0,0.0,0.0,0.0,0.0,0.0,0.0,0.0,0.0,0.0,0.0,0.0,0.0,0.0,0.0,0.0,0.0,0.0,0.0,0.0,0.0,0.0,0.0,0.0,0.0,0.0,0.0,0.0,0.0,0.0,0.0,0.0,0.0,0.0,0.0,0.0,0.0,0.0,0.0,0.0,0.0,0.0,0.0,0.0,0.0,0.0,0.0,0.0,0.0,0.0,0.0,0.0,0.0,0.0,0.0,0.0,0.0,0.0,0.0,0.0,0.0,0.0,0.0,0.0,0.0,0.0,0.0,0.0,0.0,0.0,0.0,0.0,0.0,0.0,0.0,0.0,0.0,0.0,0.0,0.0,0.0,0.0,0.0,0.0,0.0,0.0,0.0,0.0,0.0,0.0,0.0,0.0,0.0,0.0,0.0,0.0,0.0,0.0,0.0,0.0,0.0,0.0,0.0,0.0,0.0,0.0,0.0,0.0,0.0,0.0,0.0,0.0,0.0,0.0,0.0,0.0,0.0,0.0,0.0,0.0,0.0,0.0,0.0,0.0,0.0,0.0,0.0,0.0,0.0,0.0,0.0,0.0,0.0,0.0,0.0,0.0,0.0,0.0,0.0,0.0,0.0,0.0,0.0,0.0,0.0,0.0,0.0,0.0,0.0,0.0,0.0,0.0,0.0,0.0,0.0,0.0,0.0,0.0,0.0,0.0,0.0,0.0,0.0,0.0,0.0,0.0,0.0,0.0,0.0,0.0,0.0,0.0,0.0,0.0,0.0,0.0,0.0,0.0,0.0,0.0,0.0,0.0,0.0,0.0,0.0,0.0,0.0,0.0,0.0,0.0,0.0,0.0,0.0,0.0,0.0,0.0,0.0,0.0,0.0,0.0,0.0,0.0,0.0,0.0,0.0,0.0,0.0,0.0,0.0,0.0,0.0,0.0,0.0,0.0,0.0,0.0,0.0,0.0,0.0,0.0,0.0,0.0,0.0,0.0,0.0,0.0,0.0,0.0,0.0,0.0,0.0,0.0,0.0,0.0,0.0,0.0,0.0,0.0,0.0,0.0,0.0,0.0,0.0,0.0,0.0,0.0,0.0,0.0,0.0,0.0,0.0,0.0,0.0,0.0,0.0,0.0,0.0,0.0,0.0,0.0,0.0,0.0,0.0,0.0,0.0,0.0,0.0,0.0,0.0,0.0,0.0,0.0,0.0,0.0,0.0,0.0,0.0,0.0,0.0,0.0,0.0,0.0,0.0,0.0,0.0,0.0,0.0,0.0,0.0,0.0,0.0,0.0,0.0,0.0,0.0,0.0,0.0,0.0,0.0,0.0,0.0,0.0,0.0,0.0,0.0,0.0,0.0,0.0,0.0,0.0,0.0,0.0,0.0,0.0,0.0,0.0,0.0,0.0,0.0,0.0,0.0,0.0,0.0,0.0,0.0,0.0,0.0,0.0,0.0,0.0,0.0,0.0,0.0,0.0,0.0,0.0,0.0,0.0,0.0,0.0,0.0,0.0,0.0,0.0,0.0,0.0,0.0,0.0,0.0,0.0,0.0,0.0,0.0,0.0,0.0,0.0,0.0,0.0,0.0,0.0,0.0,0.0,0.0,0.0,0.0,0.0,0.0,0.0,0.0,0.0,0.0,0.0,0.0,0.0,0.0,0.0,0.0,0.0,0.0,0.0,0.0,-2.982,0.0,0.0,0.0,0.0,0.0,0.0,0.0,0.0,0.0,0.0,0.0,0.0,0.0,0.0,0.0,0.0,0.0,0.0,0.0,0.0,0.0,0.0,0.0,0.0,0.0,0.0,0.0,0.0,0.0,0.0,0.0,0.0,0.0,0.0,0.0,0.0,0.0,0.0,0.0,-2.6327,-2.6898,-2.7411,-2.7456,-2.7698,-2.8064,0.0,0.0,0.0,0.0,0.0,0.0,0.0,0.0,0.0,0.0,0.0,0.0,0.0,0.0,0.0,0.0,0.0,0.0,0.0,0.0,0.0,0.0,0.0,0.0,0.0,0.0,0.0,0.0,0.0,0.0,0.0,0.0,0.0,0.0,0.0,0.0,0.0,0.0,0.0,0.0,0.0,0.0,0.0,0.0,0.0,0.0,0.0,0.0,0.0,0.0,0.0,0.0,0.0,0.0,0.0,0.0,0.0,0.0,0.0,0.0,0.0,0.0,0.0,0.0,0.0,0.0,0.0,0.0,0.0,0.0,0.0,-2.982,0.0,0.0,0.0,0.0,0.0,0.0,0.0,0.0,0.0,0.0,0.0,0.0,0.0,0.0,0.0,0.0,0.0,0.0,0.0,0.0,0.0,0.0,0.0,0.0,-2.5425,-2.5272,-2.523,-2.5146,0.0,0.0,0.0,0.0,0.0,0.0,0.0,-2.5751,-2.6181,-2.6383,-2.7047,-2.785,-2.8722,-2.8937,-2.9041,-2.9025,-2.9102,0.0,0.0,0.0,0.0,0.0,0.0,0.0,0.0,0.0,0.0,0.0,0.0,0.0,0.0,0.0,0.0,0.0,0.0,0.0,0.0,0.0,0.0,0.0,0.0,0.0,0.0,0.0,0.0,0.0,0.0,0.0,0.0,0.0,0.0,0.0,0.0,0.0,0.0,0.0,0.0,0.0,0.0,0.0,0.0,0.0,0.0,0.0,0.0,0.0,0.0,0.0,0.0,0.0,0.0,0.0,0.0,0.0,0.0,0.0,0.0,0.0,0.0,0.0,-3.0593,-3.0817,-3.1101,-3.0993,-3.1082,-3.1262,-3.0565,-3.0066,-2.9758,-2.9529,0.0,0.0,0.0,0.0,0.0,0.0,0.0,0.0,0.0,0.0,0.0,0.0,0.0,0.0,0.0,0.0,0.0,0.0,0.0,0.0,0.0,-2.5467,-2.5494,-2.5467,-2.53,-2.5202,-2.5174,0.0,0.0,0.0,0.0,0.0,-2.5778,-2.6375,-2.6851,-2.715,-2.8058,-2.8872,-2.9633,-2.965,-2.9909,-3.0332,-3.006,-2.9995,-3.005,0.0,0.0,0.0,0.0,0.0,0.0,0.0,0.0,0.0,0.0,0.0,0.0,0.0,0.0,0.0,0.0,0.0,0.0,0.0,0.0,0.0,0.0,0.0,0.0,0.0,0.0,0.0,0.0,0.0,0.0,0.0,0.0,0.0,0.0,0.0,0.0,0.0,0.0,0.0,0.0,0.0,-3.1126,-3.1254,0.0,0.0,0.0,0.0,0.0,0.0,0.0,0.0,0.0,0.0,0.0,0.0,0.0,-3.0598,-3.0507,-3.0507,-3.0477,-3.0357,-3.064,-3.088,-3.1097,-3.145,-3.1804,-3.2139,-3.2029,0.0,-3.0447,-3.0129,0.0,0.0,0.0,0.0,0.0,0.0,0.0,0.0,0.0,0.0,0.0,0.0,0.0,0.0,0.0,0.0,0.0,0.0,0.0,0.0,0.0,-2.5688,-2.5688,-2.5605,-2.5453,-2.5328,-2.5202,-2.5061,0.0,0.0,0.0,-2.6063,-2.6402,-2.7013,-2.7643,-2.8312,-2.8915,-2.9428,-2.9808,-2.9929,-3.0174,-3.0598,-3.0536,-3.0431,-3.0371,-3.028,0.0,0.0,0.0,0.0,0.0,0.0,0.0,0.0,0.0,0.0,0.0,0.0,0.0,0.0,0.0,0.0,0.0,0.0,0.0,0.0,0.0,0.0,0.0,0.0,0.0,0.0,0.0,0.0,0.0,0.0,0.0,0.0,0.0,0.0,0.0,0.0,0.0,0.0,0.0,-3.1128,-3.1596,-3.1768,-3.1495,-3.1117,0.0,0.0,0.0,0.0,0.0,0.0,0.0,0.0,0.0,-3.0843,-3.1451,-3.1671,-3.15,-3.15,-3.1406,-3.1217,-3.1343,-3.1568,-3.1884,-3.2062,-3.2338,-3.2689,-3.2689,-3.2336,-3.1735,-3.1234,-3.0743,-3.0322,0.0,0.0,0.0,0.0,-2.9383,-2.9417,0.0,0.0,0.0,0.0,0.0,0.0,0.0,0.0,0.0,0.0,0.0,0.0,-2.5757,-2.5839,-2.5866,-2.5757,-2.5647,-2.5481,-2.5342,-2.5282,0.0,0.0,-2.6244,-2.6612,-2.7087,-2.7779,-2.85,-2.9194,-2.9446,-2.9682,-2.9884,-3.0066,-3.0371,-3.0777,-3.0925,-3.0881,-3.0732,-3.0568,-3.0312,-3.0007,0.0,0.0,0.0,0.0,0.0,0.0,0.0,0.0,0.0,0.0,0.0,0.0,0.0,0.0,0.0,0.0,0.0,0.0,0.0,0.0,0.0,0.0,0.0,0.0,0.0,0.0,0.0,0.0,0.0,0.0,0.0,0.0,0.0,0.0,0.0,0.0,0.0,-3.1452,-3.1697,-3.1912,-3.1567,-3.1146,0.0,0.0,0.0,0.0,0.0,0.0,-3.0429,-3.1028,-3.1458,-3.1613,-3.2156,-3.2384,-3.2209,-3.2145,-3.2001,-3.1786,-3.2033,-3.2336,-3.2647,-3.2944,-3.3239,-3.3522,-3.3427,-3.3289,-3.3082,-3.2201,-3.1594,-3.121,-3.0888,-3.061,-3.0405,-3.0405,-3.0405,-3.0405,0.0,0.0,0.0,0.0,0.0,0.0,0.0,0.0,0.0,0.0,0.0,-2.5757,-2.5866,-2.5893,-2.5893,-2.5893,-2.5757,-2.5674,-2.5674,-2.5906,-2.6063,-2.6091,-2.7185,-2.78,-2.7827,-2.882,-2.9355,-2.9383,-2.954,-2.9772,-3.008,-3.0249,-3.0657,-3.1278,-3.1408,-3.1336,-3.1087,-3.1043,-3.0866,-3.0568,-3.0538,0.0,0.0,0.0,0.0,0.0,0.0,0.0,0.0,0.0,0.0,0.0,0.0,0.0,0.0,0.0,0.0,0.0,0.0,0.0,0.0,0.0,0.0,0.0,0.0,0.0,0.0,0.0,0.0,0.0,0.0,0.0,0.0,0.0,0.0,0.0,0.0,0.0,0.0,-3.1756,-3.1249,0.0,0.0,0.0,0.0,-3.1028,-3.1714,-3.2155,-3.2187,-3.2312,-3.2437,-3.2437,-3.2405,-3.2356,-3.2209,-3.2019,-3.1744,-3.1457,-3.2444,-3.2946,-3.3009,-3.4181,-3.4808,-3.4964,-3.4604,-3.442,-3.4278,-3.2796,-3.1842,-3.1377,-3.1029,-3.0685,-3.0405,-3.0405,-3.0405,-3.0405,0.0,0.0,0.0,0.0,0.0,0.0,0.0,0.0,-2.5425,-2.5494,-2.5688,-2.5839,-2.5893,-2.5893,-2.5893,-2.5893,-2.5784,-2.5855,-2.6259,-2.6169,-2.6505,-2.7421,-2.7742,-2.8153,-2.866,-2.9146,-2.9446,-2.954,-2.9651,-3.0237,-3.1193,-3.1254,-3.1884,-3.3035,-3.3079,-3.3182,-3.318,-3.1898,-3.1427,-3.1438,-3.0848,-3.0632,0.0,0.0,0.0,0.0,0.0,0.0,0.0,0.0,0.0,0.0,0.0,0.0,0.0,0.0,0.0,0.0,0.0,0.0,0.0,0.0,0.0,0.0,0.0,0.0,0.0,0.0,0.0,0.0,0.0,0.0,0.0,0.0,0.0,0.0,0.0,0.0,0.0,-3.2374,-3.2378,0.0,-3.2388,-3.2145,-3.1942,-3.1818,-3.1937,-3.2047,-3.2047,-3.2354,-3.272,-3.3134,-3.3397,-3.3669,-3.3867,-3.3817,-3.3639,-3.3401,-3.3771,-3.4016,-3.4177,-3.4608,-3.4929,-3.5101,-3.4964,-3.4902,-3.4846,-3.4156,-3.3389,-3.2617,-3.2347,-3.2103,-3.1871,-3.1871,-3.1801,-3.1695,0.0,0.0,0.0,0.0,0.0,0.0,0.0,0.0,-2.5494,-2.5494,-2.5716,-2.5893,-2.5893,-2.5893,-2.5893,-2.5893,-2.5993,-2.6232,-2.6637,-2.6782,-2.7301,-2.8238,-2.8367,-2.8671,-2.9257,-2.9383,-2.9652,-3.0006,-3.0148,-3.0883,-3.2141,-3.2311,-3.299,-3.4073,-3.4178,-3.4384,-3.4543,-3.3215,-3.2658,-3.2616,-3.1944,-3.1729,-3.177,0.0,0.0,0.0,0.0,0.0,0.0,0.0,0.0,0.0,0.0,0.0,0.0,0.0,0.0,0.0,0.0,0.0,0.0,0.0,0.0,0.0,0.0,0.0,0.0,0.0,0.0,0.0,0.0,0.0,0.0,0.0,0.0,0.0,0.0,0.0,-3.2263,-3.2946,-3.3047,-3.3083,-3.3176,-3.2974,-3.2706,-3.2464,-3.2649,-3.2738,-3.267,-3.3113,-3.3529,-3.3937,-3.4178,-3.4437,-3.4705,-3.4705,-3.4592,-3.4403,-3.4609,-3.4744,-3.482,-3.5027,-3.52,-3.5301,-3.5169,-3.5123,-3.5185,-3.4901,-3.4454,-3.388,-3.3406,-3.3004,-3.2704,-3.2704,-3.2561,-3.2381,0.0,0.0,0.0,0.0,0.0,0.0,0.0,-2.5285,-2.5494,-2.5494,-2.5716,-2.5893,-2.5893,-2.5893,-2.5893,-2.5921,-2.6469,-2.6835,-2.6863,-2.7839,-2.8405,-2.8432,-2.9049,-2.9477,-2.9602,-2.9631,-3.002,-3.0818,-3.1037,-3.1731,-3.2861,-3.3331,-3.3819,-3.4313,-3.4637,-3.4856,-3.4971,-3.4971,-3.4637,-3.409,-3.3879,-3.3423,-3.2861,0.0,0.0,0.0,0.0,0.0,0.0,0.0,0.0,0.0,0.0,0.0,0.0,0.0,0.0,0.0,0.0,0.0,0.0,0.0,0.0,0.0,0.0,0.0,0.0,0.0,0.0,0.0,0.0,0.0,0.0,0.0,0.0,0.0,-3.242,-3.2513,-3.275,-3.3437,-3.3125,-3.2949,-3.3092,-3.3317,-3.332,-3.2997,-3.393,-3.4411,-3.4231,-3.4571,-3.478,-3.4807,-3.4606,-3.452,-3.4561,-3.4561,-3.4499,-3.4298,-3.4911,-3.5067,-3.4897,-3.5506,-3.5778,-3.5737,-3.5326,-3.5301,-3.5455,-3.5038,-3.4999,-3.5152,-3.4067,-3.3297,-3.2795,-3.2795,-3.2651,-3.2449,0.0,0.0,0.0,0.0,0.0,0.0,0.0,-2.5146,-2.5272,-2.5272,-2.5481,-2.5647,-2.5729,-2.5757,-2.5966,-2.6526,-2.6708,-2.72,-2.8113,-2.8314,-2.8614,-2.9104,-2.938,-2.954,-2.9602,-3.0052,-3.0506,-3.1008,-3.1737,-3.2813,-3.4188,-3.4607,-3.5354,-3.6375,-3.6465,-3.6599,-3.6778,-3.6778,-3.6615,-3.6192,-3.4591,-3.3999,-3.3955,0.0,0.0,0.0,0.0,0.0,0.0,0.0,0.0,0.0,0.0,0.0,0.0,0.0,0.0,0.0,0.0,0.0,0.0,0.0,0.0,0.0,0.0,0.0,0.0,0.0,0.0,0.0,0.0,0.0,0.0,0.0,0.0,-3.2803,-3.2227,-3.2499,-3.3068,-3.3904,-3.4174,-3.4614,-3.5383,-3.5058,-3.4837,-3.4896,-3.4798,-3.4641,-3.4418,-3.4382,-3.4571,-3.4997,-3.4817,-3.5162,-3.6021,-3.6021,-3.6212,-3.6592,-3.6755,-3.6795,-3.6754,-3.6916,-3.6997,-3.6984,-3.6905,-3.7002,-3.7154,-3.6563,-3.6306,-3.6186,-3.5171,-3.464,-3.4523,-3.4523,-3.4279,-3.3922,0.0,0.0,0.0,0.0,0.0,0.0,0.0,-2.5216,-2.5355,-2.5397,-2.555,-2.5702,-2.5784,-2.5784,-2.6077,-2.6877,-2.7159,-2.7767,-2.8843,-2.8961,-2.9133,-2.9463,-2.954,-2.9729,-2.9982,-3.0315,-3.0944,-3.1858,-3.2572,-3.3679,-3.5146,-3.5599,-3.6306,-3.7194,-3.73,-3.7405,-3.751,-3.751,-3.7375,-3.7086,-3.569,-3.514,-3.5037,-3.433,-3.3991,-3.3928,-3.3928,-3.3735,-3.3499,-3.345,0.0,0.0,0.0,0.0,0.0,0.0,0.0,0.0,0.0,0.0,0.0,0.0,0.0,0.0,0.0,0.0,0.0,0.0,0.0,0.0,0.0,0.0,0.0,0.0,-3.3038,-3.3366,-3.3104,-3.3254,-3.3734,-3.4695,-3.503,-3.5516,-3.6418,-3.5945,-3.554,-3.5449,-3.5176,-3.4979,-3.4788,-3.5153,-3.5591,-3.6013,-3.6074,-3.6457,-3.7152,-3.7027,-3.7175,-3.7485,-3.7485,-3.7485,-3.7485,-3.7485,-3.7485,-3.7485,-3.7485,-3.7697,-3.8006,-3.7593,-3.7495,0.0,0.0,0.0,0.0,0.0,-3.4831,-3.4695,0.0,0.0,0.0,0.0,0.0,0.0,0.0,-2.5369,-2.5508,-2.5661,-2.5784,-2.5866,-2.5893,-2.5977,-2.6355,-2.7172,-2.7797,-2.8495,-2.9299,-2.9677,-2.9822,-2.9727,-2.9696,-2.9992,-3.058,-3.065,-3.1419,-3.2978,-3.3463,-3.4392,-3.5784,-3.632,-3.6785,-3.7254,-3.7435,-3.751,-3.751,-3.751,-3.7405,-3.7194,-3.6877,-3.6445,-3.5973,-3.5619,-3.5359,-3.518,-3.518,-3.4795,-3.4275,-3.4177,0.0,0.0,0.0,0.0,0.0,0.0,0.0,0.0,0.0,0.0,0.0,0.0,0.0,0.0,0.0,0.0,0.0,0.0,0.0,0.0,0.0,0.0,0.0,0.0,-3.3255,-3.3635,-3.4397,-3.432,-3.458,-3.5545,-3.5687,-3.5936,-3.6572,-3.6295,-3.5904,-3.5442,-3.5572,-3.5623,-3.5523,0.0,0.0,0.0,0.0,-3.7935,-3.8003,-3.7721,-3.7634,-3.7689,-3.7689,-3.7689,-3.7689,-3.7689,-3.7689,-3.7689,-3.7689,-3.7944,-3.8352,-3.8283,-3.8464,-3.8625,-3.6549,-3.554,-3.5197,-3.5072,-3.5135,-3.5258,0.0,0.0,0.0,0.0,0.0,0.0,0.0,-2.523,-2.5328,-2.5508,-2.5661,-2.5784,-2.5893,-2.6481,-2.7214,-2.8082,-2.8757,-2.9462,-3.029,-3.0419,-3.0447,-3.0417,-3.0417,-3.0643,-3.1134,-3.1607,-3.2382,-3.339,-3.438,-3.531,-3.6101,-3.6647,-3.709,-3.7435,-3.748,-3.751,-3.751,-3.751,-3.748,-3.7405,-3.709,-3.6647,-3.6116,-3.5683,-3.5359,-3.518,-3.5001,-3.4993,-3.4988,-3.4988,-3.4783,-3.4501,-3.4501,-3.427,0.0,0.0,0.0,0.0,0.0,0.0,0.0,0.0,0.0,0.0,0.0,0.0,0.0,0.0,0.0,0.0,0.0,0.0,0.0,-3.367,-3.3768,-3.394,-3.4441,-3.4724,-3.5172,-3.5841,-3.6056,-3.6323,-3.6779,-3.6763,-3.6882,-3.7327,-3.7233,-3.7285,-3.7607,-3.7855,-3.7993,-3.8021,-3.7923,-3.814,-3.862,-3.8376,-3.8491,-3.8952,0.0,0.0,-3.8952,-3.8952,-3.8952,-3.8952,-3.8952,-3.9155,-3.9346,-3.8839,-3.8516,-3.8283,-3.8005,-3.7838,-3.7741,-3.7578,-3.7645,-3.778,0.0,0.0,0.0,0.0,0.0,0.0,0.0,-2.5453,-2.5536,-2.5785,-2.5975,-2.6123,-2.6204,-2.7019,-2.7858,-2.8691,-2.9868,-3.0675,-3.1043,-3.1102,-3.1073,-3.0896,-3.0896,-3.1336,-3.224,-3.2484,-3.3191,-3.435,-3.507,-3.5752,-3.6352,-3.6816,-3.7181,-3.751,-3.751,-3.751,-3.751,-3.751,-3.751,-3.748,-3.7121,-3.6739,-3.632,-3.5893,-3.5507,-3.518,-3.518,-3.5148,-3.5082,-3.518,-3.5016,-3.4817,-3.4817,-3.4616,-3.4414,0.0,0.0,0.0,0.0,0.0,0.0,0.0,0.0,0.0,0.0,0.0,0.0,0.0,0.0,-3.3205,0.0,0.0,-3.372,-3.415,-3.421,-3.4394,-3.4875,-3.5111,-3.5451,-3.5989,-3.6321,-3.6767,-3.7458,-3.7457,-3.7607,-3.8151,-3.8018,-3.802,-3.8325,-3.8686,-3.8908,-3.8992,-3.8988,-3.9078,-3.9424,-3.9033,-3.9007,-3.9305,-3.9305,-3.9305,-3.9305,-3.9305,-3.9305,-3.9305,-3.9452,-3.9628,-3.9865,-3.9837,-3.9731,-3.9634,-3.9858,-3.9353,-3.8504,-3.838,-3.8504,-3.8683,0.0,0.0,0.0,0.0,0.0,0.0,0.0,-2.5729,-2.5839,-2.6056,-2.6392,-2.6616,-2.6642,-2.7659,-2.8707,-2.9629,-3.0994,-3.1781,-3.168,-3.1779,-3.1722,-3.145,-3.1436,-3.2064,-3.3378,-3.3301,-3.3941,-3.5397,-3.5688,-3.6116,-3.6585,-3.6908,-3.7211,-3.751,-3.751,-3.751,-3.751,-3.751,-3.751,-3.748,-3.7165,-3.6831,-3.646,-3.6132,-3.5653,-3.5148,-3.5326,-3.5148,-3.4868,-3.5082,-3.4949,-3.4698,-3.4698,-3.4563,-3.4414,-3.4414,-3.4414,0.0,0.0,0.0,0.0,0.0,0.0,0.0,0.0,0.0,-3.3389,-3.3515,-3.3494,-3.362,-3.4005,-3.408,-3.4201,-3.4548,-3.4606,-3.4826,-3.5379,-3.5611,-3.5836,-3.6186,-3.6622,-3.7228,-3.8096,-3.8076,-3.8221,-3.8616,-3.8533,-3.8588,-3.8922,-3.9382,-3.976,-3.9929,-3.9934,-3.9922,-3.9922,-3.9571,-3.9394,-3.9394,-3.9438,-3.9438,-3.9438,-3.9438,-3.9482,-3.9513,-3.976,-4.0023,-4.0257,-4.083,-4.1128,-4.1212,-4.1493,-4.0614,-3.9197,-3.9088,-3.9198,-3.9391,0.0,0.0,0.0,0.0,0.0,0.0,0.0,0.0,-2.5921,-2.6084,-2.6592,-2.6997,-2.7188,-2.8655,-3.0211,-3.1716,-3.2139,-3.2315,-3.2299,-3.2299,-3.2299,-3.2272,-3.2287,-3.2831,-3.4044,-3.4074,-3.4729,-3.6101,-3.632,-3.6585,-3.6938,-3.7089,-3.73,-3.751,-3.751,-3.751,-3.751,-3.751,-3.751,-3.748,-3.727,-3.6907,-3.646,-3.6132,-3.5557,-3.4935,-3.4968,-3.485,-3.4731,-3.4868,-3.4817,-3.4698,-3.4698,-3.4563,-3.4414,-3.4414,0.0,-3.4448,-3.4631,-3.475,0.0,-3.4448,-3.4346,-3.4244,0.0,0.0,-3.3726,-3.4242,-3.4198,-3.4214,-3.4646,-3.472,-3.4764,-3.4988,-3.5045,-3.5172,-3.5614,-3.6266,-3.677,-3.6797,-3.7243,-3.7682,-3.8145,-3.8338,-3.8685,-3.9256,-3.9298,-3.9619,-4.042,-4.0375,-4.0287,-4.0331,-3.9922,-3.9744,-3.9744,-3.97,-3.9656,-3.9656,-3.9834,-3.9908,-3.9908,-3.9908,-4.0025,-4.0215,-4.0473,-4.0688,-4.0916,-4.1255,-4.1577,-4.1908,-4.2129,-4.2097,-4.1787,-4.1293,-4.1098,-4.1098,0.0,0.0,0.0,0.0,0.0,0.0,0.0,0.0,0.0,-2.6312,-2.6919,-2.7423,-2.7575,-2.9199,-3.0755,-3.1962,-3.2535,-3.2812,-3.2812,-3.2877,-3.2877,-3.2812,-3.2812,-3.3236,-3.4131,-3.4448,-3.5084,-3.6013,-3.6598,-3.6998,-3.7119,-3.73,-3.7435,-3.751,-3.751,-3.751,-3.751,-3.751,-3.751,-3.748,-3.7195,-3.6862,-3.646,-3.599,-3.5444,-3.4902,-3.4902,-3.4735,0.0,-3.4716,-3.465,-3.4515,-3.4515,-3.4481,-3.4414,-3.4414,-3.4414,0.0,-3.475,0.0,0.0,0.0,-3.4616,-3.4583,-3.4603,-3.4355,-3.4314,-3.4937,-3.4809,-3.4659,-3.5083,-3.5027,-3.5079,0.0,-3.5463,-3.5518,-3.5683,-3.6307,-3.6865,-3.7219,-3.7755,-3.8196,-3.8443,-3.8556,-3.8889,-3.9522,-3.9564,-3.979,-4.0257,-4.0227,-4.0255,-4.0399,-4.0067,-4.0023,-4.0284,-4.014,-4.014,-4.0284,-4.0357,-4.0386,-4.0386,-4.0545,-4.0788,-4.1128,-4.1226,-4.1479,-4.1798,-4.2034,-4.2389,-4.2765,-4.2981,-4.3061,-4.2941,-4.2184,-4.1854,-4.1729,0.0,0.0,0.0,0.0,0.0,0.0,0.0,0.0,0.0,0.0,-2.7178,-2.7786,-2.8282,-2.9635,-3.092,-3.2002,-3.2568,-3.2945,-3.3134,-3.3256,-3.3256,-3.315,-3.315,-3.348,-3.4129,-3.4532,-3.5164,-3.6041,-3.666,-3.7065,-3.73,-3.7435,-3.751,-3.751,-3.751,-3.751,-3.751,-3.751,-3.751,-3.748,-3.7181,-3.6862,-3.6476,-3.5926,-3.5412,-3.4968,-3.4935,-3.4668,-3.4414,-3.4631,-3.4563,-3.4414,-3.4414,-3.4414,-3.4414,-3.4414,-3.4448,-3.4549,-3.4769,0.0,0.0,-3.5041,-3.5033,-3.5005,-3.5299,-3.5089,-3.5023,-3.5611,-3.5382,-3.5187,-3.5604,-3.5519,-3.5459,-3.5642,-3.571,-3.5778,-3.5927,-3.6483,-3.708,-3.7662,-3.8301,-3.8711,-3.8828,-3.8872,-3.912,-3.9672,-3.97,-3.9818,-4.0097,-4.0053,-4.014,-4.0471,-4.0394,-4.055,-4.0926,-4.084,-4.0869,-4.1155,-4.1029,-4.0986,-4.1071,-4.1339,-4.1673,-4.2061,-4.2102,-4.2348,-4.2659,-4.2875,-4.3195,-4.3576,-4.3747,-4.3786,-4.3708,-4.3061,-4.2659,-4.236,0.0,0.0,0.0,0.0,0.0,0.0,0.0,0.0,0.0,0.0,0.0,0.0,0.0,-3.0012,-3.0765,-3.2165,-3.2307,-3.2608,-3.3261,-3.3309,-3.3309,-3.3309,-3.3309,-3.3609,-3.4273,-3.4304,-3.4987,-3.6393,-3.6424,-3.6801,-3.748,-3.751,-3.751,-3.751,-3.751,-3.751,-3.751,-3.751,-3.751,-3.748,-3.727,-3.6983,-3.6631,-3.5943,-3.5477,-3.518,-3.4968,-3.4668,-3.4414,-3.4631,-3.4563,-3.4414,-3.4414,-3.4414,0.0,-3.4414,-3.4549,-3.4698,0.0,0.0,-3.5016,-3.5463,-3.5575,-3.5633,-3.5899,-3.5827,-3.5795,-3.6249,-3.6065,-3.5892,-3.6306,-3.6218,-3.6005,-3.575,-3.571,-3.5913,-3.6497,-3.7065,-3.7689,-3.8315,-3.8925,-3.9278,0.0,-3.9278,-3.938,-3.97,-3.97,-3.992,-4.0356,-4.014,-4.0213,-4.0659,-4.1046,-4.1339,-4.1588,-4.1835,-4.2051,-4.2238,-4.1864,-4.1771,-4.199,-4.243,-4.2754,-4.2981,-4.317,-4.3369,-4.3551,-4.3551,-4.384,-4.4281,-4.4281,-4.4281,-4.4281,-4.4243,-4.3801,-4.325,0.0,0.0,0.0,0.0,0.0,0.0,0.0,0.0,0.0,0.0,0.0,0.0,0.0,0.0,0.0,0.0,-3.2023,-3.2592,-3.3261,-3.3309,-3.3309,-3.3309,-3.3309,-3.3403,-3.3625,-3.4067,-3.4525,-3.5015,-3.5935,-3.6519,-3.6785,-3.7259,-3.751,-3.751,-3.751,-3.751,-3.751,-3.751,-3.751,-3.748,-3.7284,-3.7013,-3.6646,-3.6085,-3.5621,-3.5148,0.0,-3.4515,-3.438,-3.4312,-3.4346,-3.4414,-3.4414,-3.4414,-3.4414,-3.4414,-3.4448,-3.4515,0.0,0.0,-3.5409,-3.5546,-3.5822,-3.6177,-3.6591,-3.639,-3.6264,-3.6711,-3.6465,-3.6196,-3.6204,-3.5978,-3.5804,-3.571,-3.571,-3.5927,-3.6524,-3.7134,-3.7702,-3.8355,-3.8939,0.0,0.0,0.0,0.0,-3.97,-3.97,-3.9906,-4.0286,-4.0864,-4.1335,-4.1753,-4.2466,-4.3012,-4.3401,-4.3458,-4.3644,-4.3887,-4.3439,-4.3183,-4.3061,-4.3235,-4.3433,-4.366,-4.3738,-4.3895,-4.4073,-4.4073,-4.4243,-4.4496,-4.4496,-4.4496,-4.4496,-4.4496,-4.4358,-4.4112,0.0,0.0,0.0,0.0,0.0,0.0,0.0,0.0,0.0,0.0,0.0,0.0,0.0,0.0,0.0,0.0,0.0,-3.2187,-3.2882,-3.3166,-3.3309,-3.3309,-3.3309,-3.3309,-3.3309,-3.3719,-3.4051,-3.4288,-3.5221,-3.5932,-3.6408,-3.6896,-3.7243,-3.751,-3.751,-3.751,-3.751,-3.751,-3.751,-3.748,-3.7359,-3.715,-3.6831,-3.6352,-3.5846,0.0,-3.465,-3.4346,-3.4264,-3.4128,-3.423,-3.4414,-3.4414,-3.4414,-3.4414,-3.4414,-3.4414,-3.4414,-3.4563,-3.5049,-3.556,-3.5723,-3.6135,-3.6642,-3.7032,-3.6859,-3.6668,-3.6844,-3.6589,-3.6246,-3.6126,-3.5898,-3.571,-3.571,-3.571,-3.5995,-3.6822,-3.7241,-3.7783,-3.864,-3.9061,-3.9349,0.0,0.0,0.0,-3.9818,-4.0187,-4.059,-4.0983,-4.1965,-4.2696,-4.3126,-4.3906,-4.45,-4.4916,-4.4815,-4.4798,-4.4902,-4.4441,-4.4213,-4.4213,-4.3946,-4.3996,-4.4205,-4.4205,-4.4281,-4.4396,-4.4396,-4.4473,-4.461,-4.461,-4.461,-4.461,-4.461,-4.461,-4.4572,0.0,0.0,0.0,0.0,0.0,0.0,0.0,0.0,0.0,0.0,0.0,0.0,0.0,0.0,0.0,0.0,0.0,0.0,-3.2244,-3.2914,-3.3309,-3.3309,-3.3309,-3.3309,-3.3309,-3.3309,-3.3609,-3.4241,-3.4273,-3.4984,-3.6282,-3.6329,-3.6738,-3.7399,-3.7431,-3.7447,-3.7462,-3.7494,-3.751,-3.751,-3.751,-3.7375,-3.7164,-3.6693,-3.6148,-3.5591,-3.4735,-3.4312,-3.4128,-3.4094,0.0,0.0,0.0,-3.4414,-3.4414,-3.4414,-3.4414,-3.4428,-3.4443,-3.4922,-3.5526,-3.5935,-3.6525,-3.7046,-3.7252,-3.7148,-3.6915,-3.6707,-3.6365,-3.6086,0.0,0.0,-3.571,-3.571,-3.571,-3.6144,-3.7323,-3.7485,-3.7975,0.0,0.0,0.0,0.0,0.0,0.0,-4.0168,0.0,-4.195,-4.2367,-4.3487,-4.4336,-4.4805,-4.5383,-4.5867,-4.6096,-4.5852,-4.5611,-4.5376,-4.495,-4.494,-4.5299,-4.4656,-4.4465,-4.461,-4.461,-4.461,-4.461,-4.461,-4.461,-4.461,-4.461,-4.461,-4.461,-4.461,-4.461,-4.461,0.0,0.0,0.0,0.0,0.0,0.0,0.0,0.0,0.0,0.0,0.0,0.0,0.0,0.0,0.0,0.0,0.0,0.0,-3.2244,-3.2914,-3.3309,-3.3309,-3.3309,-3.3309,-3.3309,-3.3309,-3.3388,-3.3546,-3.4051,-3.4478,-3.4857,-3.5394,-3.5758,-3.5947,-3.6469,-3.669,-3.6738,-3.7259,-3.751,-3.751,-3.751,-3.7375,-3.7164,-3.6785,-3.6242,-3.5623,-3.5001,-3.4568,0.0,0.0,0.0,0.0,0.0,-3.4414,-3.4414,-3.4414,-3.4414,-3.4516,-3.4994,-3.5505,-3.6,-3.6576,-3.7,-3.7181,-3.7106,-3.6929,-3.6668,-3.6325,-3.6166,-3.6032,0.0,0.0,0.0,-3.571,-3.571,0.0,-3.7323,-3.7485,0.0,-3.9417,0.0,-3.976,-4.0112,-4.0488,0.0,0.0,-4.2367,-4.2723,-4.3314,-4.4835,-4.5853,-4.6179,-4.6978,-4.741,-4.7495,-4.741,-4.7189,-4.6787,-4.6686,-4.6238,-4.551,-4.5341,-4.501,-4.461,-4.461,-4.461,-4.461,-4.461,-4.461,-4.461,-4.461,-4.461,-4.461,-4.461,-4.461,-4.461,0.0,0.0,0.0,0.0,0.0,0.0,0.0,0.0,0.0,0.0,0.0,0.0,0.0,0.0,0.0,0.0,0.0,0.0,0.0,-3.2455,-3.2977,-3.3293,-3.3309,-3.3309,-3.3309,-3.3309,-3.3309,-3.3309,-3.3672,-3.4004,-3.4304,-3.4715,-3.5078,-3.541,-3.5789,-3.5963,-3.6011,-3.6722,-3.7022,0.0,0.0,-3.7121,-3.7268,-3.6595,-3.6168,-3.5847,-3.5249,0.0,0.0,0.0,0.0,-3.4414,-3.4414,-3.4414,-3.4414,-3.4414,0.0,-3.4525,-3.5094,-3.561,-3.6136,-3.6599,-3.7002,-3.7226,-3.6915,-3.6707,-3.6484,-3.6166,-3.5992,0.0,0.0,0.0,0.0,0.0,0.0,0.0,-3.6985,-3.7436,-3.8094,0.0,-3.9871,0.0,-4.0759,-4.1282,-4.2085,0.0,-4.359,-4.4108,-4.4962,-4.641,-4.7277,-4.7403,-4.7893,-4.8091,-4.8007,-4.8007,-4.7893,-4.7721,-4.743,-4.6864,-4.6018,-4.5726,-4.5218,-4.461,0.0,-4.461,-4.461,-4.461,-4.461,-4.461,-4.461,-4.461,-4.461,-4.461,-4.461,-4.461,0.0,0.0,0.0,0.0,0.0,0.0,0.0,0.0,0.0,0.0,0.0,0.0,0.0,0.0,0.0,0.0,0.0,0.0,0.0,0.0,-3.2534,-3.3135,-3.3245,-3.3309,-3.3309,-3.3309,-3.3309,-3.3309,-3.3309,-3.3593,-3.4162,-3.4162,-3.451,-3.5126,-3.5205,-3.5236,-3.53,-3.5995,-3.6266,-3.6266,-3.6266,-3.6658,-3.7103,0.0,-3.5874,0.0,0.0,0.0,0.0,0.0,-3.3951,-3.4346,-3.4346,-3.4346,-3.4346,-3.4346,-3.4346,-3.4472,-3.5035,-3.554,-3.6006,-3.64,-3.6868,-3.7123,-3.6707,-3.6484,-3.6286,-3.6072,0.0,-3.571,-3.571,0.0,-3.571,-3.571,0.0,-3.5927,-3.6524,-3.7343,-3.8211,-3.91,-4.0138,-4.0986,-4.1507,-4.2073,-4.2939,-4.4158,-4.4821,-4.5657,-4.6739,-4.7768,-4.8328,-4.8328,-4.8328,-4.826,-4.8091,-4.8091,-4.8175,-4.8328,-4.7747,-4.718,-4.6573,-4.5988,-4.5295,-4.461,-4.461,-4.461,-4.461,-4.461,-4.461,-4.461,-4.461,-4.461,-4.461,-4.461,-4.461,-4.461,0.0,0.0,0.0,0.0,0.0,0.0,0.0,0.0,0.0,0.0,-2.9029,0.0,0.0,0.0,0.0,0.0,0.0,0.0,0.0,0.0,0.0,-3.2465,-3.2993,-3.3309,-3.3309,-3.3309,-3.3309,-3.3309,-3.3309,-3.3356,-3.3467,-3.3467,-3.3546,-3.3688,-3.4241,-3.4478,-3.4525,-3.5268,-3.5568,-3.5568,-3.5568,-3.5647,-3.5714,-3.5243,0.0,0.0,0.0,0.0,0.0,0.0,-3.3917,-3.4,-3.4,-3.4,-3.4,-3.4,-3.4,-3.4229,-3.5289,-3.553,-3.5716,-3.6658,-3.6844,-3.6707,-3.6286,-3.6166,0.0,0.0,0.0,-3.571,-3.571,-3.571,0.0,-3.571,0.0,0.0,0.0,0.0,-3.8324,0.0,0.0,0.0,0.0,0.0,0.0,0.0,0.0,-4.6412,-4.718,-4.8044,-4.8537,-4.8537,-4.8537,-4.8537,-4.8495,-4.8495,-4.8495,-4.8537,-4.8414,-4.7748,-4.6603,-4.648,-4.5757,-4.461,-4.461,0.0,-4.461,-4.461,-4.461,-4.461,-4.461,-4.461,-4.461,-4.461,-4.461,-4.461,0.0,0.0,0.0,0.0,0.0,0.0,0.0,0.0,0.0,0.0,-2.8967,-2.9013,0.0,0.0,0.0,0.0,0.0,0.0,0.0,0.0,0.0,0.0,0.0,0.0,0.0,-3.3093,0.0,0.0,0.0,0.0,0.0,0.0,0.0,0.0,0.0,-3.3783,-3.383,-3.4525,-3.4826,-3.4826,-3.4826,-3.5047,0.0,0.0,0.0,0.0,0.0,0.0,0.0,0.0,-3.3437,-3.3486,-3.3813,-3.3896,-3.3896,-3.3896,-3.3896,-3.4062,-3.4854,-3.5228,-3.5563,-3.6228,-3.6549,-3.6603,-3.6206,0.0,0.0,0.0,0.0,-3.571,-3.571,0.0,0.0,0.0,0.0,0.0,0.0,0.0,0.0,0.0,0.0,0.0,0.0,0.0,0.0,0.0,0.0,-4.6889,-4.7916,-4.8352,-4.862,-4.862,-4.862,-4.862,-4.862,-4.862,-4.862,-4.862,-4.8266,-4.7573,-4.6588,-4.6234,-4.5526,-4.461,-4.461,-4.461,-4.461,-4.461,-4.461,-4.461,-4.461,-4.461,-4.461,-4.461,-4.461,-4.461,0.0,0.0,0.0,0.0,0.0,0.0,0.0,-2.8573,-2.8668,-2.8826,-2.885,-2.8936,-2.9021,-2.8936,0.0,0.0,0.0,0.0,0.0,0.0,0.0,0.0,0.0,0.0,0.0,0.0,0.0,0.0,0.0,0.0,0.0,0.0,0.0,0.0,0.0,0.0,0.0,-3.3862,-3.4083,0.0,0.0,0.0,0.0,0.0,0.0,0.0,0.0,0.0,0.0,0.0,-3.2841,-3.3023,-3.3486,-3.3675,-3.3709,-3.3744,-3.3744,-3.3802,-3.4285,-3.4834,-3.5344,-3.5635,-3.6145,-3.647,-3.6112,-3.6032,0.0,0.0,-3.571,-3.571,-3.571,0.0,0.0,0.0,0.0,0.0,0.0,0.0,0.0,0.0,0.0,0.0,0.0,0.0,0.0,0.0,0.0,0.0,-4.8558,-4.862,-4.862,-4.862,-4.862,-4.862,-4.862,-4.862,-4.862,-4.8604,-4.7927,-4.725,-4.6573,-4.5895,-4.5218,-4.461,-4.461,-4.461,-4.461,-4.461,-4.461,-4.461,-4.461,-4.461,-4.461,-4.461,-4.461,-4.461,0.0,0.0,0.0,0.0,0.0,0.0,0.0,-2.8517,-2.8597,-2.8621,-2.8732,-2.8818,-2.8818,-2.8818,0.0,0.0,0.0,0.0,0.0,0.0,0.0,0.0,0.0,0.0,0.0,0.0,0.0,0.0,0.0,0.0,0.0,0.0,0.0,0.0,0.0,0.0,0.0,0.0,0.0,0.0,0.0,0.0,0.0,0.0,0.0,0.0,0.0,0.0,0.0,0.0,0.0,-3.2739,-3.281,-3.2952,-3.3108,-3.3312,0.0,0.0,-3.4034,-3.4542,-3.4956,-3.5339,-3.5818,-3.6072,-3.5804,0.0,0.0,-3.5723,-3.571,-3.571,-3.571,-3.571,-3.571,0.0,0.0,0.0,0.0,0.0,0.0,0.0,0.0,0.0,0.0,0.0,0.0,0.0,0.0,0.0,-4.8573,-4.862,-4.862,-4.862,-4.862,-4.862,-4.862,-4.862,-4.862,-4.8604,-4.7927,-4.725,-4.6573,-4.5895,-4.5218,-4.461,-4.461,-4.461,0.0,-4.461,-4.461,-4.461,-4.461,-4.461,-4.461,-4.461,-4.461,-4.461,0.0,0.0,0.0,0.0,0.0,0.0,0.0,-2.8444,-2.8517,-2.8589,-2.866,-2.8708,-2.8794,-2.8747,-2.8684,0.0,0.0,0.0,0.0,0.0,0.0,0.0,0.0,0.0,0.0,0.0,0.0,0.0,0.0,0.0,0.0,0.0,0.0,0.0,0.0,0.0,0.0,0.0,0.0,0.0,0.0,0.0,0.0,0.0,0.0,0.0,0.0,0.0,0.0,0.0,0.0,0.0,-3.2558,-3.2668,0.0,0.0,-3.2881,-3.2901,-3.3223,-3.3715,-3.4228,-3.4609,-3.5112,-3.5594,-3.5682,0.0,0.0,-3.571,-3.571,-3.571,-3.571,-3.571,-3.571,-3.571,0.0,0.0,0.0,0.0,0.0,0.0,0.0,0.0,0.0,0.0,0.0,0.0,0.0,0.0,-4.7942,-4.8389,-4.862,-4.862,-4.862,-4.862,-4.862,-4.8204,-4.8004,-4.8004,-4.6911,-4.6249,-4.5972,-4.528,-4.4872,-4.461,-4.461,-4.461,0.0,-4.461,-4.461,-4.461,-4.461,-4.461,-4.461,-4.461,-4.461,-4.461,0.0,0.0,0.0,0.0,0.0,0.0,-2.8376,-2.8468,-2.8468,-2.8541,-2.8541,-2.8589,-2.8676,-2.8589,-2.8541,-2.8541,0.0,0.0,0.0,0.0,0.0,0.0,0.0,0.0,0.0,0.0,0.0,-3.0394,0.0,0.0,0.0,0.0,0.0,0.0,0.0,0.0,0.0,0.0,0.0,0.0,0.0,0.0,0.0,0.0,0.0,0.0,0.0,0.0,0.0,0.0,0.0,0.0,0.0,0.0,0.0,0.0,-3.2668,-3.2632,-3.2668,-3.3123,-3.367,-3.4101,-3.464,-3.5201,0.0,0.0,-3.571,-3.571,-3.571,-3.571,-3.571,-3.571,-3.571,-3.571,0.0,-3.6232,0.0,0.0,0.0,0.0,0.0,0.0,0.0,0.0,0.0,0.0,0.0,0.0,-4.7234,-4.7758,-4.8112,-4.8312,-4.8312,-4.8219,-4.8019,-4.7542,-4.7296,-4.7296,-4.6142,-4.5588,-4.5572,-4.4918,-4.461,-4.461,-4.461,-4.461,0.0,-4.461,-4.461,-4.461,-4.461,-4.461,-4.461,-4.461,-4.461,-4.461,0.0,0.0,0.0,0.0,0.0,0.0,0.0,-2.8597,-2.8549,-2.842,-2.8411,-2.8411,-2.8396,-2.8411,-2.8411,-2.8411,0.0,0.0,0.0,0.0,0.0,0.0,0.0,0.0,0.0,0.0,-2.8735,-2.9416,-2.9546,-2.9962,0.0,0.0,0.0,0.0,0.0,0.0,0.0,0.0,0.0,0.0,0.0,0.0,0.0,0.0,0.0,0.0,0.0,0.0,0.0,0.0,0.0,0.0,0.0,0.0,0.0,0.0,-3.2561,-3.2453,-3.2668,-3.3001,-3.3457,-3.4049,-3.451,-3.4951,0.0,0.0,-3.571,-3.571,-3.571,-3.571,-3.571,-3.571,-3.571,-3.571,-3.5938,0.0,0.0,0.0,0.0,0.0,0.0,0.0,0.0,0.0,0.0,0.0,0.0,0.0,-4.6573,-4.6619,-4.6927,-4.7588,-4.7619,-4.7296,-4.6619,-4.6603,-4.6603,-4.6603,-4.5911,-4.5588,-4.5572,-4.4918,-4.461,-4.461,-4.461,-4.461,0.0,-4.461,-4.461,-4.461,-4.461,-4.461,-4.461,-4.461,-4.461,-4.461,0.0,0.0,0.0,0.0,0.0,0.0,0.0,-2.8334,-2.8573,-2.8541,-2.8468,-2.8411,-2.8411,-2.8411,-2.8411,-2.8411,0.0,0.0,0.0,0.0,0.0,0.0,0.0,0.0,0.0,0.0,-2.8046,-2.8178,-2.8293,-2.8524,-2.8847,-2.8962,-2.911,0.0,0.0,0.0,0.0,0.0,0.0,0.0,0.0,0.0,0.0,0.0,0.0,0.0,0.0,0.0,0.0,0.0,0.0,0.0,0.0,0.0,0.0,-3.235,-3.23,0.0,-3.2336,-3.245,-3.2699,-3.3312,-3.3821,-3.4341,-3.4938,-3.5385,-3.571,-3.571,-3.571,-3.571,-3.571,-3.571,-3.5764,-3.5938,-3.6298,0.0,0.0,0.0,0.0,0.0,0.0,0.0,0.0,0.0,0.0,0.0,0.0,0.0,-4.5865,-4.5911,-4.6219,-4.6896,-4.6911,-4.6803,-4.6603,-4.6142,-4.5911,-4.5895,-4.5218,-4.4933,-4.4895,-4.4718,-4.461,-4.461,-4.461,-4.461,-4.461,-4.461,-4.461,-4.461,-4.461,-4.461,-4.461,-4.461,-4.461,-4.461,0.0,0.0,0.0,0.0,0.0,0.0,0.0,-2.8046,-2.835,-2.8566,-2.8468,-2.8411,-2.8411,-2.8411,-2.8411,-2.8411,0.0,0.0,0.0,0.0,0.0,0.0,0.0,0.0,0.0,-2.7484,-2.7382,-2.7255,-2.7331,-2.7484,-2.7685,-2.784,-2.8039,-2.8323,-2.8713,0.0,0.0,0.0,0.0,0.0,0.0,0.0,-3.1581,0.0,0.0,0.0,0.0,0.0,0.0,0.0,0.0,0.0,0.0,0.0,0.0,0.0,-3.2218,-3.2218,0.0,-3.2218,-3.2354,-3.2952,-3.3498,0.0,0.0,-3.5249,-3.571,-3.571,-3.5764,-3.5858,-3.5858,-3.5924,-3.6018,-3.6206,-3.6615,0.0,0.0,0.0,0.0,0.0,0.0,0.0,0.0,0.0,0.0,0.0,0.0,0.0,-4.5187,-4.5203,-4.5403,-4.5818,-4.608,-4.6095,-4.5834,-4.5418,-4.5203,-4.5241,-4.4825,-4.461,-4.461,-4.461,-4.461,-4.461,-4.461,-4.461,0.0,-4.461,-4.461,-4.461,-4.461,-4.461,-4.461,-4.461,-4.461,-4.461,0.0,0.0,0.0,0.0,0.0,0.0,0.0,0.0,0.0,0.0,-2.8462,-2.8396,-2.8411,-2.8411,-2.8411,0.0,0.0,0.0,0.0,0.0,0.0,0.0,0.0,0.0,-2.7401,-2.706,-2.6811,-2.6669,-2.6642,-2.6814,-2.7115,-2.7258,-2.7463,-2.7715,-2.774,-2.7831,-2.8,-2.8779,-2.9851,-3.1013,-3.0937,-3.1095,0.0,0.0,0.0,0.0,0.0,0.0,0.0,0.0,0.0,0.0,0.0,0.0,0.0,0.0,0.0,0.0,0.0,-3.2218,0.0,0.0,0.0,0.0,0.0,-3.5181,0.0,-3.571,-3.5898,-3.6086,-3.6126,-3.6286,-3.6445,-3.647,-3.6968,0.0,0.0,0.0,0.0,0.0,0.0,0.0,0.0,0.0,0.0,0.0,0.0,0.0,-4.461,-4.461,-4.461,-4.461,-4.5187,-4.5218,-4.4625,-4.461,-4.461,-4.461,-4.461,-4.461,-4.461,-4.461,-4.461,0.0,-4.461,-4.461,-4.461,-4.461,-4.461,-4.461,-4.461,-4.461,-4.461,-4.461,-4.461,-4.461,0.0,0.0,0.0,0.0,0.0,0.0,0.0,0.0,0.0,0.0,0.0,-2.8517,-2.8396,-2.8411,0.0,0.0,0.0,0.0,0.0,0.0,0.0,0.0,0.0,0.0,-2.7401,-2.6971,-2.6642,-2.6404,-2.6285,-2.6272,-2.6353,-2.6604,-2.6814,-2.6971,-2.7218,-2.7412,-2.7573,-2.8017,-2.8678,-2.9476,-2.9807,-3.0148,0.0,0.0,0.0,0.0,-2.894,-2.8748,0.0,0.0,0.0,0.0,0.0,0.0,0.0,0.0,-3.2218,-3.2218,-3.2218,0.0,-3.2246,-3.2395,-3.287,-3.343,0.0,-3.4572,-3.5127,-3.5615,0.0,0.0,-3.6286,-3.6496,-3.6797,-3.724,0.0,0.0,0.0,0.0,0.0,0.0,0.0,0.0,0.0,0.0,0.0,0.0,0.0,-4.461,-4.461,-4.461,-4.461,-4.461,-4.4764,-4.4779,-4.461,-4.461,-4.461,-4.461,-4.461,-4.461,-4.461,-4.461,-4.461,-4.461,-4.461,-4.461,-4.461,-4.461,-4.461,-4.461,-4.461,-4.461,-4.461,-4.461,-4.461,-4.461,0.0,0.0,0.0,0.0,0.0,0.0,0.0,0.0,0.0,0.0,0.0,0.0,0.0,0.0,0.0,0.0,0.0,0.0,0.0,0.0,0.0,0.0,0.0,-2.7806,-2.7401,-2.6814,-2.6377,-2.6123,-2.5825,-2.5784,-2.5921,-2.6069,-2.6231,-2.6445,-2.6683,-2.6841,-2.6896,-2.7099,-2.7713,-2.8582,-2.8742,0.0,0.0,0.0,0.0,0.0,-2.8748,-2.8554,0.0,-2.8373,-2.9221,-3.0254,0.0,0.0,0.0,0.0,-3.2073,-3.2073,-3.2182,-3.2218,-3.2205,-3.2264,-3.275,-3.3387,-3.4052,0.0,0.0,0.0,0.0,0.0,0.0,0.0,0.0,0.0,0.0,0.0,0.0,0.0,0.0,0.0,0.0,0.0,0.0,0.0,0.0,0.0,0.0,-4.461,-4.461,-4.461,-4.461,-4.461,-4.461,-4.461,-4.461,-4.461,-4.461,-4.461,-4.461,-4.461,-4.461,-4.461,-4.461,-4.461,-4.461,-4.461,-4.461,-4.461,-4.461,-4.461,-4.461,-4.461,-4.461,-4.461,-4.461,-4.461,0.0,0.0,0.0,0.0,0.0,0.0,0.0,0.0,0.0,0.0,0.0,0.0,0.0,0.0,0.0,0.0,0.0,0.0,0.0,0.0,0.0,0.0,0.0,-2.7806,-2.7437,-2.6709,-2.6163,-2.5893,-2.5425,-2.5314,-2.5591,-2.5619,-2.5784,-2.6029,-2.6109,-2.6149,-2.6149,-2.6122,-2.6833,-2.7995,-2.7837,0.0,0.0,0.0,0.0,0.0,0.0,0.0,0.0,-2.8112,-2.8953,-3.0019,-2.9859,0.0,0.0,0.0,0.0,0.0,-3.2146,-3.2205,-3.2277,-3.2417,-3.2837,-3.3509,-3.4454,0.0,0.0,0.0,0.0,0.0,0.0,0.0,0.0,0.0,0.0,0.0,0.0,0.0,0.0,0.0,0.0,0.0,0.0,0.0,0.0,0.0,0.0,-4.461,-4.461,-4.461,-4.461,-4.4648,-4.4663,-4.4648,-4.4701,-4.461,-4.4625,-4.4663,-4.4663,-4.4648,-4.4701,-4.4701,-4.4701,-4.4701,0.0,0.0,-4.4701,-4.4701,-4.4701,-4.4701,-4.4701,-4.4701,-4.4701,-4.4701,-4.4701,-4.4701,0.0,0.0,0.0,0.0,0.0,0.0,0.0,0.0,0.0,0.0,0.0,0.0,0.0,0.0,0.0,0.0,0.0,0.0,0.0,0.0,0.0,-2.8411,-2.8128,-2.7855,-2.7575,-2.6747,-2.6163,-2.5893,-2.5314,-2.5061,-2.5118,-2.523,-2.5453,-2.5757,-2.5495,-2.5425,-2.5508,-2.5286,-2.5972,-2.7189,-2.7159,0.0,0.0,0.0,0.0,0.0,0.0,0.0,0.0,-2.8112,-2.8899,-2.9859,-2.9824,0.0,0.0,0.0,0.0,0.0,-3.2146,-3.2264,-3.2431,-3.2596,-3.2844,-3.3384,-3.471,-3.5069,0.0,0.0,0.0,0.0,0.0,0.0,0.0,0.0,0.0,0.0,0.0,0.0,0.0,0.0,0.0,0.0,0.0,0.0,0.0,0.0,0.0,-4.461,-4.461,-4.461,-4.4685,-4.4836,-4.4836,-4.4927,-4.5108,-4.4776,-4.4701,-4.4836,-4.4836,-4.4927,-4.5108,-4.5108,-4.5108,-4.5108,0.0,-4.5108,-4.5108,-4.5108,-4.5108,-4.5108,-4.5108,-4.5108,-4.5108,-4.5108,-4.5108,-4.5108,0.0,0.0,0.0,0.0,0.0,0.0,0.0,0.0,0.0,0.0,0.0,0.0,0.0,0.0,0.0,0.0,0.0,0.0,0.0,0.0,0.0,-2.8411,-2.8128,-2.7831,-2.7514,-2.6695,-2.6136,-2.5784,-2.5202,-2.492,-2.5005,-2.4977,-2.5033,-2.509,-2.4948,-2.4907,-2.4963,-2.4835,-2.5493,-2.6631,0.0,0.0,0.0,0.0,0.0,0.0,0.0,0.0,0.0,0.0,-2.8649,-2.9684,-2.9557,0.0,0.0,0.0,0.0,0.0,-3.2191,-3.2503,-3.281,-3.3199,-3.3304,-3.3649,-3.4925,-3.5504,0.0,0.0,0.0,0.0,0.0,0.0,0.0,0.0,0.0,0.0,0.0,0.0,0.0,0.0,0.0,0.0,0.0,0.0,0.0,0.0,0.0,-4.4927,-4.4927,-4.4927,-4.498,-4.5055,-4.5055,-4.5092,-4.5182,-4.5017,-4.498,-4.5055,-4.5055,-4.5092,-4.5182,-4.5182,-4.5182,-4.5182,0.0,-4.5182,-4.5182,-4.5182,-4.5182,-4.5182,-4.5182,-4.5182,-4.5182,-4.5182,-4.5182,-4.5182,0.0,0.0,0.0,0.0,0.0,0.0,0.0,0.0,0.0,0.0,0.0,0.0,0.0,0.0,0.0,0.0,0.0,0.0,0.0,0.0,-2.8411,-2.8411,-2.8103,-2.7781,-2.7401,-2.6642,-2.6055,-2.5633,-2.5033,-2.4806,-2.4892,-2.4806,-2.4706,-2.4591,-2.4549,-2.452,-2.4534,-2.4651,-2.5302,-2.6246,0.0,0.0,0.0,0.0,0.0,0.0,0.0,0.0,0.0,0.0,0.0,0.0,0.0,0.0,0.0,-3.1522,-3.1609,-3.1706,-3.2237,-3.2739,-3.3199,-3.3791,-3.3908,-3.4134,-3.5232,-3.593,-3.662,0.0,0.0,0.0,0.0,0.0,0.0,0.0,0.0,0.0,0.0,0.0,0.0,0.0,0.0,0.0,0.0,0.0,0.0,0.0,0.0,-4.5182,-4.5182,-4.5182,-4.522,-4.5257,-4.5257,-4.5294,-4.5331,-4.5331,-4.5331,-4.5257,-4.5257,-4.5294,-4.5331,-4.5331,-4.5331,-4.5331,-4.5331,-4.5331,-4.5331,-4.5331,-4.5331,-4.5331,-4.5331,-4.5331,-4.5331,-4.5331,-4.5331,-4.5331,0.0,0.0,0.0,0.0,0.0,0.0,0.0,0.0,0.0,0.0,0.0,0.0,0.0,0.0,0.0,0.0,0.0,0.0,0.0,0.0,-2.8411,-2.8411,-2.8014,-2.7665,-2.7401,-2.6563,-2.5878,-2.5439,-2.4878,-2.462,-2.462,-2.462,-2.462,-2.4591,-2.4392,-2.4321,-2.4361,-2.478,-2.5402,-2.6162,-2.6673,0.0,0.0,0.0,0.0,0.0,0.0,0.0,0.0,0.0,0.0,0.0,0.0,0.0,-3.1099,-3.1485,-3.1609,-3.1706,-3.2237,-3.2846,-3.3444,-3.4167,-3.4501,-3.4878,-3.5832,-3.6212,0.0,-3.8327,0.0,0.0,0.0,0.0,0.0,0.0,0.0,0.0,0.0,0.0,0.0,0.0,0.0,0.0,0.0,0.0,0.0,0.0,-4.5182,-4.5182,-4.5182,-4.5182,-4.5294,-4.5478,-4.5478,-4.5552,-4.5771,-4.5771,-4.5662,-4.5478,-4.5478,-4.5589,-4.5771,-4.5771,-4.5771,-4.5771,-4.5771,-4.5771,-4.5771,-4.5771,-4.5771,-4.5771,-4.5771,-4.5771,-4.5771,-4.5771,-4.5771,-4.5771,0.0,0.0,0.0,0.0,0.0,0.0,0.0,0.0,0.0,0.0,0.0,0.0,0.0,0.0,0.0,0.0,0.0,0.0,0.0,-2.8411,-2.8411,-2.8411,-2.8014,-2.7615,-2.7229,-2.6404,-2.5743,-2.5272,-2.492,-2.4607,-2.4421,-2.4635,-2.4677,-2.4591,-2.4392,-2.4503,-2.4873,-2.496,-2.5559,-2.6488,-2.6679,-2.7112,0.0,0.0,0.0,0.0,0.0,0.0,0.0,0.0,-2.8307,-2.931,-2.931,-3.0095,-3.1061,-3.1485,-3.1683,-3.1963,-3.2739,-3.336,-3.3968,-3.481,-3.5317,0.0,0.0,-3.6479,-3.7096,-3.7826,-3.8723,0.0,0.0,0.0,0.0,0.0,0.0,0.0,0.0,0.0,0.0,0.0,0.0,0.0,0.0,0.0,0.0,0.0,-4.5589,-4.5589,-4.5589,-4.5589,-4.5589,-4.5698,-4.5698,-4.5735,-4.5807,-4.5807,-4.5771,-4.5698,-4.5698,-4.5735,-4.5807,-4.5807,-4.5807,-4.5807,-4.5807,-4.5807,-4.5807,-4.5807,-4.5807,-4.5807,-4.5807,-4.5539,-4.5128,-4.5128,-4.4859,-4.4476,0.0,0.0,0.0,0.0,0.0,0.0,0.0,0.0,0.0,0.0,0.0,0.0,0.0,0.0,0.0,0.0,0.0,0.0,-2.8411,-2.8411,-2.8411,-2.8411,-2.7965,-2.7534,-2.7122,-2.6203,-2.555,-2.5146,-2.4793,-2.4536,-2.4321,-2.4607,-2.4706,-2.4591,-2.462,-2.4866,-2.5276,-2.5555,-2.6112,-2.6784,-2.6967,-2.7236,0.0,0.0,0.0,0.0,0.0,0.0,0.0,0.0,-2.8307,-2.931,-2.931,-3.0131,-3.1174,-3.1596,-3.189,-3.2264,-3.3129,-3.3811,-3.4476,-3.5302,0.0,0.0,-3.632,-3.6736,-3.723,-3.7589,-3.8831,0.0,0.0,0.0,0.0,0.0,0.0,0.0,0.0,0.0,0.0,0.0,0.0,0.0,0.0,0.0,0.0,-4.5412,-4.546,-4.5555,-4.5807,-4.5807,-4.5807,-4.5807,-4.5807,-4.5807,-4.5807,-4.5807,-4.5807,-4.5807,-4.5807,-4.5807,-4.5807,-4.5807,-4.5807,-4.5807,-4.5807,-4.5807,-4.5807,-4.5807,-4.5665,-4.546,-4.546,-4.5017,-4.4401,-4.4401,-4.4082,-4.3687,0.0,0.0,0.0,0.0,0.0,0.0,0.0,0.0,0.0,0.0,0.0,0.0,0.0,0.0,0.0,0.0,0.0,0.0,-2.8411,-2.8411,-2.8411,-2.8411,-2.789,-2.7458,-2.7122,-2.6,-2.5273,-2.4977,-2.4523,-2.4292,-2.4321,-2.452,-2.462,-2.4647,-2.5175,-2.5412,-2.5492,-2.6712,-2.7078,-2.6952,-2.7551,-2.7689,-2.749,0.0,0.0,0.0,0.0,0.0,0.0,0.0,-2.832,-2.931,-2.9323,-3.0204,-3.1384,-3.178,-3.2155,-3.2583,-3.3374,-3.4104,-3.4795,0.0,0.0,0.0,-3.6938,-3.6999,-3.7202,-3.7857,0.0,-4.0058,-4.0254,0.0,0.0,0.0,0.0,0.0,0.0,0.0,0.0,0.0,0.0,0.0,0.0,0.0,0.0,-4.4654,-4.4701,-4.5017,-4.576,-4.5807,-4.5807,-4.5807,-4.5807,-4.5807,-4.5807,-4.5807,-4.5807,-4.5807,-4.5807,-4.5807,-4.5807,-4.5807,-4.5807,-4.5807,-4.5807,-4.5807,-4.5807,-4.5807,-4.5365,-4.4701,-4.4701,-4.4255,-4.3671,-4.3671,-4.3671,-4.3671,0.0,0.0,0.0,0.0,0.0,0.0,0.0,0.0,0.0,0.0,0.0,0.0,0.0,0.0,0.0,0.0,0.0,0.0,-2.8411,-2.8411,-2.8411,-2.8411,-2.7965,-2.7615,-2.7321,-2.619,-2.5258,-2.4494,-2.4593,-2.4664,-2.4664,-2.4806,-2.5121,-2.5526,-2.5585,-2.6062,-2.6823,-2.7077,-2.7413,-2.7761,-2.7789,-2.7756,-2.7689,0.0,0.0,0.0,0.0,0.0,0.0,0.0,0.0,0.0,-2.9745,-3.0532,-3.1384,-3.1886,-3.2475,-3.3192,-3.424,-3.5008,0.0,-3.6445,0.0,0.0,0.0,-3.7255,0.0,0.0,0.0,-3.9818,-4.0386,0.0,0.0,-4.1588,0.0,0.0,0.0,0.0,0.0,0.0,0.0,0.0,0.0,0.0,-4.3279,-4.394,-4.3987,-4.4322,-4.5001,-4.5049,-4.527,-4.5792,-4.5807,-4.5807,-4.5807,-4.5807,-4.5807,-4.5807,-4.5807,-4.5807,-4.5807,-4.5807,-4.5807,-4.5807,-4.5807,-4.5807,-4.5776,-4.5254,-4.4638,-4.3987,-4.3987,-4.3595,-4.2995,-4.2995,-4.2663,-4.222,0.0,0.0,0.0,0.0,0.0,0.0,0.0,0.0,0.0,0.0,0.0,0.0,0.0,0.0,0.0,0.0,0.0,0.0,0.0,-2.8411,-2.8411,-2.8411,-2.8079,-2.764,-2.7126,-2.6351,-2.5619,-2.495,-2.4907,-2.492,-2.4948,-2.5221,-2.5605,-2.6103,-2.6419,-2.6999,-2.7723,-2.7904,-2.8106,-2.8346,-2.8183,-2.8072,-2.7973,0.0,0.0,0.0,0.0,0.0,0.0,0.0,0.0,0.0,-3.0063,-3.0824,-3.1643,-3.2164,-3.2925,-3.3782,-3.4743,-3.5512,0.0,-3.6847,-3.7105,-3.7254,-3.7435,0.0,0.0,0.0,0.0,0.0,0.0,0.0,0.0,0.0,0.0,0.0,0.0,0.0,0.0,0.0,0.0,0.0,0.0,-4.2252,-4.2537,-4.3263,-4.3311,-4.3611,-4.429,-4.4322,-4.4527,-4.497,-4.4986,-4.5112,-4.5365,-4.5112,-4.5112,-4.5365,-4.5112,-4.4986,-4.4966,-4.5555,-4.5649,-4.5365,-4.508,-4.497,-4.4954,-4.4512,-4.3927,-4.3311,-4.3311,-4.2884,-4.2252,-4.2252,-4.1968,-4.1588,0.0,0.0,0.0,0.0,0.0,0.0,0.0,0.0,0.0,0.0,-2.4544,0.0,0.0,0.0,0.0,0.0,0.0,0.0,0.0,0.0,-2.8411,-2.8411,-2.8128,-2.7625,-2.6797,-2.6549,-2.6299,-2.6114,-2.5425,-2.5173,-2.5354,-2.5773,-2.6217,-2.6657,-2.7586,-2.814,-2.8404,-2.8927,-2.9053,-2.8867,-2.8734,-2.8541,-2.832,-2.8197,0.0,0.0,0.0,0.0,0.0,0.0,0.0,0.0,-3.0381,-3.1229,-3.2096,-3.2632,-3.3451,-3.4356,-3.5088,0.0,0.0,0.0,0.0,0.0,0.0,0.0,0.0,0.0,0.0,0.0,0.0,0.0,0.0,0.0,0.0,0.0,0.0,0.0,0.0,0.0,0.0,0.0,0.0,-4.1588,-4.1873,-4.2537,-4.2584,-4.29,-4.3561,-4.3592,-4.3624,-4.3687,-4.3687,-4.3971,-4.4606,-4.3987,-4.4022,-4.4606,-4.3971,-4.3687,-4.3734,-4.5049,-4.5254,-4.4591,-4.3943,-4.3658,-4.3592,-4.3592,-4.3216,-4.2584,-4.2584,-4.2173,-4.1588,-4.1588,-4.1588,-4.1588,0.0,0.0,0.0,0.0,0.0,0.0,0.0,0.0,0.0,0.0,0.0,0.0,0.0,0.0,0.0,0.0,0.0,0.0,0.0,0.0,-2.8411,-2.8411,-2.8128,-2.7815,-2.7433,-2.7244,-2.7339,-2.772,-2.6365,-2.5966,-2.6469,-2.6552,-2.724,-2.8357,-2.8474,-2.8975,-2.97,-2.9673,-2.9623,-2.956,-2.9279,-2.8962,-2.8675,-2.8541,-2.8379,0.0,0.0,0.0,0.0,0.0,0.0,0.0,-3.1762,-3.2249,-3.2668,-3.3346,-3.4138,-3.4909,0.0,-3.6414,0.0,0.0,0.0,0.0,0.0,0.0,0.0,0.0,0.0,0.0,0.0,0.0,0.0,0.0,0.0,0.0,0.0,0.0,0.0,0.0,0.0,0.0,-4.1588,-4.1588,-4.1652,-4.181,-4.1825,-4.2141,-4.2868,-4.2916,-4.3169,-4.3671,-4.3687,-4.3766,-4.3892,-4.3766,-4.3766,-4.3892,-4.3766,-4.3687,-4.3703,-4.4003,-4.405,-4.3892,-4.3753,-4.339,-4.2916,-4.2916,-4.2489,-4.1825,-4.1825,-4.1731,-4.1588,-4.1588,-4.1588,-4.1588,0.0,0.0,0.0,0.0,0.0,0.0,0.0,0.0,0.0,0.0,0.0,0.0,0.0,0.0,0.0,0.0,0.0,0.0,0.0,0.0,-2.8411,-2.8411,-2.8201,-2.8039,-2.79,-2.8006,-2.8207,-2.8483,-2.7935,-2.777,-2.7964,-2.7954,-2.8497,-2.9449,-2.947,-2.9875,-3.0509,-3.0358,-3.0297,-3.0267,-2.9901,-2.9654,-2.9404,-2.918,-2.904,-2.9012,-2.9135,0.0,0.0,0.0,0.0,0.0,0.0,0.0,-3.3346,-3.3988,-3.4629,-3.5302,0.0,0.0,0.0,0.0,0.0,0.0,0.0,0.0,0.0,0.0,0.0,0.0,0.0,0.0,0.0,0.0,0.0,0.0,0.0,0.0,0.0,0.0,0.0,0.0,-4.1588,-4.1588,-4.1588,-4.1588,-4.1588,-4.1762,-4.2141,-4.2157,-4.2331,-4.2695,-4.2695,-4.2868,-4.3232,-4.2868,-4.2902,-4.3303,-4.2986,-4.2928,-4.308,-4.3246,-4.3303,-4.3321,-4.314,-4.2807,-4.2423,-4.2522,-4.2249,-4.1752,-4.1752,-4.167,-4.1588,-4.1588,-4.1588,-4.1588,0.0,0.0,0.0,0.0,0.0,0.0,0.0,0.0,0.0,0.0,0.0,0.0,0.0,0.0,0.0,0.0,0.0,0.0,0.0,0.0,0.0,-2.8411,-2.8299,-2.8296,-2.8403,-2.8728,-2.902,-2.9247,-2.9686,-2.9841,-2.9756,-2.955,-2.9784,-3.0377,-3.0469,-3.0762,-3.1146,-3.1029,-3.0955,-3.0925,-3.0613,-3.0372,-3.019,-2.9898,-2.9853,-2.9946,-3.0121,-3.0688,-3.1398,-3.1868,0.0,0.0,0.0,0.0,-3.4138,-3.4629,-3.5139,-3.564,0.0,0.0,0.0,0.0,0.0,0.0,0.0,0.0,0.0,0.0,0.0,0.0,0.0,0.0,0.0,0.0,0.0,0.0,0.0,0.0,0.0,0.0,0.0,0.0,-4.1588,-4.1588,-4.1588,-4.1588,-4.1588,-4.1588,-4.1588,-4.1588,-4.1621,-4.167,-4.167,-4.1955,-4.2623,-4.2021,-4.2104,-4.2842,-4.2316,-4.2238,-4.2524,-4.2831,-4.2941,-4.2876,-4.2607,-4.2381,-4.2238,-4.2365,-4.2238,-4.1931,-4.1898,-4.1784,-4.1588,-4.1588,-4.1588,-4.1588,0.0,0.0,0.0,0.0,0.0,0.0,0.0,0.0,0.0,0.0,0.0,0.0,0.0,0.0,0.0,0.0,0.0,0.0,-2.8411,0.0,0.0,-2.8411,-2.8372,-2.8649,-2.9233,-2.929,-2.9889,-3.1067,-3.1014,-3.1323,-3.194,-3.0902,-3.0795,-3.1489,-3.1392,-3.1538,-3.184,-3.1653,-3.1581,-3.1552,-3.1278,-3.097,-3.0718,-3.0658,-3.0524,-3.0536,-3.1406,-3.2159,-3.2836,-3.3483,-3.4082,0.0,0.0,0.0,-3.5088,-3.5462,-3.572,-3.6022,0.0,0.0,0.0,0.0,0.0,0.0,0.0,0.0,0.0,0.0,0.0,0.0,0.0,0.0,0.0,0.0,0.0,0.0,0.0,0.0,0.0,0.0,0.0,0.0,-4.1588,-4.1588,-4.1588,-4.1588,-4.1588,-4.1588,-4.1588,-4.1588,-4.167,-4.1866,-4.1866,-4.206,-4.243,-4.2334,-4.2413,-4.2636,-4.2745,-4.2852,-4.3021,-4.3178,-4.3105,-4.2905,-4.2839,-4.2837,-4.2775,-4.2633,-4.2381,-4.2061,-4.1963,-4.1784,-4.1588,-4.1588,-4.1588,-4.1588,0.0,0.0,0.0,0.0,0.0,0.0,0.0,0.0,0.0,0.0,0.0,0.0,0.0,0.0,0.0,-2.8381,-2.8411,-2.8411,-2.8411,-2.8411,-2.8411,-2.8411,-2.8765,-2.9119,-2.9371,-3.0135,-3.0797,-3.1409,-3.1712,-3.205,-3.2382,-3.1857,-3.1789,-3.2092,-3.1881,-3.1938,-3.2219,-3.2051,-3.1994,-3.1966,-3.1853,-3.1682,-3.1466,-3.1422,-3.166,-3.2062,-3.2436,-3.3261,-3.427,-3.4478,-3.4986,-3.5527,-3.5638,0.0,0.0,0.0,-3.6038,0.0,-3.6739,0.0,0.0,0.0,0.0,0.0,0.0,0.0,0.0,0.0,0.0,0.0,0.0,0.0,0.0,0.0,0.0,0.0,0.0,0.0,0.0,0.0,0.0,0.0,-4.2045,-4.2126,-4.2142,-4.2142,-4.2142,-4.2142,-4.2142,-4.2142,-4.219,-4.2302,-4.2397,-4.2524,-4.2681,-4.2743,-4.2912,-4.3171,-4.3446,-4.3641,-4.3772,-4.3914,-4.368,-4.3127,-4.3325,-4.3355,-4.3295,-4.3204,-4.2943,-4.2649,-4.2508,-4.2286,-4.2045,-4.2045,-4.1931,-4.1784,0.0,0.0,0.0,0.0,0.0,0.0,0.0,0.0,0.0,0.0,0.0,0.0,0.0,0.0,0.0,0.0,-2.8444,-2.8436,-2.8411,-2.8411,-2.8488,-2.8658,-2.9125,-2.9566,-2.9904,-3.0889,-3.1474,-3.1643,-3.2151,-3.2398,-3.2398,-3.2398,-3.2398,-3.2398,-3.2191,-3.2219,-3.2398,-3.2287,-3.2274,-3.2302,-3.2274,-3.2219,-3.2135,-3.2104,-3.2601,-3.3328,-3.3456,-3.4283,-3.5355,-3.5416,-3.5751,-3.6132,0.0,0.0,0.0,0.0,0.0,0.0,0.0,0.0,0.0,0.0,0.0,0.0,0.0,0.0,0.0,0.0,0.0,0.0,0.0,0.0,0.0,0.0,0.0,0.0,0.0,0.0,0.0,0.0,0.0,0.0,-4.2508,-4.2633,-4.271,-4.271,-4.271,-4.271,-4.271,-4.271,-4.2741,-4.2772,-4.2959,-4.3099,-4.3207,-4.3386,-4.3608,-4.3902,-4.4167,-4.4338,-4.4463,-4.4575,-4.4288,-4.3752,-4.3902,-4.3931,-4.3814,-4.3759,-4.3522,-4.3218,-4.3052,-4.2821,-4.2555,-4.2539,-4.2366,-4.2157,0.0,0.0,0.0,0.0,0.0,0.0,0.0,0.0,0.0,0.0,0.0,0.0,-2.8488,-2.8668,-2.8723,-2.8597,-2.8589,-2.8541,-2.8411,-2.8411,-2.8688,-2.931,-2.9371,0.0,-3.1285,-3.1378,-3.1705,-3.2336,-3.2382,-3.2398,-3.2398,-3.2398,-3.2398,-3.2398,-3.2398,-3.2398,-3.2398,0.0,0.0,0.0,0.0,0.0,0.0,-3.2559,-3.3036,0.0,0.0,0.0,-3.5764,-3.6383,0.0,0.0,0.0,-3.646,-3.6492,0.0,0.0,0.0,0.0,0.0,0.0,0.0,0.0,0.0,0.0,0.0,0.0,0.0,0.0,0.0,0.0,0.0,0.0,0.0,0.0,0.0,0.0,0.0,0.0,0.0,0.0,0.0,0.0,-4.3007,-4.3066,-4.3066,-4.3066,-4.3066,-4.3066,-4.3066,-4.3127,-4.3246,-4.3443,-4.3713,-4.4039,-4.4293,-4.4519,-4.4748,-4.4748,-4.4831,-4.4951,-4.4978,-4.4951,-4.4896,-4.4586,-4.4446,-4.4418,-4.4167,-4.3877,-4.3549,-4.3353,-4.3202,-4.3052,-4.2914,-4.2868,-4.2837,0.0,0.0,0.0,0.0,0.0,0.0,0.0,0.0,0.0,0.0,0.0,0.0,0.0,-2.8889,-2.8842,-2.8803,-2.874,-2.8894,-2.9266,-2.9297,-2.9608,-3.0266,-3.0639,-3.1051,-3.1531,-3.1867,-3.2151,-3.2398,-3.2398,-3.2398,-3.2398,-3.2496,-3.2523,-3.2523,-3.2425,-3.2453,-3.2523,-3.2523,0.0,0.0,0.0,0.0,0.0,0.0,0.0,0.0,0.0,0.0,0.0,0.0,0.0,0.0,-3.6677,-3.6631,-3.66,-3.6523,0.0,0.0,0.0,0.0,0.0,0.0,0.0,0.0,0.0,0.0,0.0,0.0,0.0,0.0,0.0,0.0,0.0,0.0,0.0,0.0,0.0,0.0,0.0,0.0,0.0,0.0,0.0,-4.356,-4.4001,-4.4001,-4.4001,-4.4001,-4.4001,-4.4001,-4.403,-4.4088,-4.4265,-4.448,-4.4676,-4.4769,-4.4879,-4.5059,-4.5059,-4.5113,-4.5264,-4.5264,-4.5264,-4.5264,-4.5042,-4.4906,-4.4797,-4.462,-4.4497,-4.435,-4.4162,-4.3972,-4.386,-4.373,-4.3522,-4.3325,0.0,0.0,0.0,0.0,0.0,0.0,0.0,0.0,0.0,0.0,0.0,0.0,0.0,0.0,-2.9323,-2.9491,-2.9651,-2.9903,-3.0319,-3.0302,-3.0566,-3.1195,-3.1509,-3.1787,-3.202,-3.2389,-3.2523,-3.2453,-3.2453,-3.2453,-3.2453,-3.2551,-3.2648,-3.2703,-3.2621,-3.2621,0.0,0.0,0.0,-3.2978,0.0,0.0,-3.3319,0.0,0.0,0.0,0.0,0.0,0.0,0.0,0.0,0.0,0.0,-3.6846,-3.677,-3.6677,0.0,0.0,-3.6877,0.0,0.0,0.0,0.0,0.0,0.0,0.0,0.0,0.0,0.0,0.0,0.0,0.0,0.0,0.0,0.0,0.0,0.0,0.0,0.0,0.0,0.0,0.0,0.0,-4.3426,-4.3895,-4.3895,-4.415,0.0,-4.4285,-4.4523,-4.4686,-4.4725,-4.4852,-4.5005,-4.5113,-4.5113,-4.5167,-4.5274,-4.5274,-4.53,-4.5397,-4.5397,-4.5397,-4.5397,-4.53,-4.5194,-4.5059,-4.4913,-4.4858,-4.4841,-4.4714,-4.4603,-4.4536,-4.4367,-4.4196,-4.396,0.0,0.0,0.0,0.0,0.0,0.0,0.0,0.0,0.0,-2.9559,0.0,0.0,0.0,0.0,0.0,-3.0725,-3.1308,-3.1574,-3.1485,-3.1339,-3.1523,-3.2153,-3.1972,-3.2179,-3.2908,-3.2912,-3.2816,-3.2621,-3.2621,-3.2621,-3.2621,-3.2621,-3.2718,-3.2912,-3.2897,-3.2897,-3.2897,0.0,-3.2978,-3.3139,0.0,-3.343,-3.3666,0.0,0.0,0.0,-3.7048,-3.7621,0.0,-3.7943,0.0,0.0,0.0,-3.7119,-3.7015,-3.7015,0.0,0.0,0.0,0.0,0.0,0.0,0.0,0.0,0.0,0.0,0.0,0.0,0.0,0.0,0.0,0.0,0.0,0.0,0.0,0.0,0.0,0.0,0.0,0.0,0.0,0.0,0.0,-4.2567,-4.2706,-4.2706,-4.345,-4.3877,-4.3877,-4.4578,-4.5052,-4.5186,-4.5186,-4.5274,-4.5397,-4.5397,-4.5397,-4.5397,-4.5397,-4.5397,-4.5397,-4.5397,-4.5397,-4.5397,-4.5397,-4.5344,-4.5203,-4.5059,-4.5005,-4.5005,-4.5005,-4.5005,-4.5005,-4.4858,-4.4803,-4.4776,0.0,0.0,0.0,0.0,0.0,0.0,0.0,0.0,-3.0128,0.0,0.0,0.0,-3.1264,-3.1709,-3.1995,-3.2069,-3.2135,-3.2415,-3.2969,-3.2772,-3.2967,-3.3652,-3.3355,-3.3218,-3.3319,-3.315,-3.2978,-3.2816,-3.2816,-3.2816,-3.2816,-3.2908,-3.2989,0.0,-3.315,-3.3176,-3.3176,-3.3085,0.0,-3.3446,-3.4112,-3.4514,0.0,0.0,0.0,0.0,0.0,-3.846,-3.8539,0.0,-3.8399,-3.8144,0.0,0.0,0.0,-3.703,0.0,0.0,-3.706,0.0,0.0,0.0,0.0,0.0,0.0,0.0,0.0,0.0,0.0,0.0,0.0,0.0,0.0,0.0,0.0,0.0,0.0,0.0,0.0,0.0,0.0,0.0,0.0,-4.2619,-4.3047,0.0,-4.3253,-4.3373,-4.3373,-4.4079,-4.4501,-4.457,-4.5078,-4.5371,-4.5397,-4.5397,-4.5397,-4.5397,-4.5397,-4.5397,-4.5397,-4.5397,-4.5397,-4.5397,-4.5397,-4.545,-4.5485,-4.5327,-4.5291,-4.5291,-4.5291,-4.5291,-4.5264,-4.514,-4.5086,-4.5059,0.0,0.0,0.0,0.0,0.0,0.0,0.0,0.0,0.0,0.0,0.0,0.0,-3.2562,-3.3139,-3.3439,-3.3389,-3.3606,-3.3887,-3.4273,-3.4086,-3.4118,-3.4456,-3.4201,-3.3975,-3.3848,-3.3684,-3.3477,-3.3229,-3.3229,-3.3203,-3.315,-3.3229,-3.3309,0.0,0.0,0.0,0.0,0.0,0.0,0.0,-3.4695,0.0,0.0,-3.7475,-3.8138,0.0,0.0,0.0,-3.9391,-3.9339,-3.9071,0.0,0.0,0.0,0.0,0.0,0.0,0.0,0.0,0.0,0.0,0.0,0.0,0.0,-3.77,-3.7902,-3.81,0.0,0.0,0.0,0.0,0.0,0.0,0.0,0.0,0.0,0.0,0.0,0.0,0.0,0.0,0.0,0.0,-4.1908,-4.224,-4.224,-4.2534,-4.2844,-4.3172,-4.3603,-4.3845,-4.3845,-4.4251,-4.4656,-4.5019,-4.5019,-4.52,-4.5581,-4.5581,-4.5581,-4.5581,-4.5581,-4.5581,-4.5581,-4.5581,-4.5607,-4.5684,-4.5607,-4.5581,-4.5581,-4.5581,-4.5581,-4.5554,-4.5485,-4.5459,-4.5432,0.0,0.0,0.0,0.0,0.0,0.0,0.0,0.0,0.0,0.0,-3.2675,-3.3042,-3.369,-3.4317,-3.4689,-3.4689,-3.5277,-3.5577,-3.5406,-3.5195,-3.5015,-3.4835,-3.4691,-3.4546,-3.4382,-3.4358,-3.4159,-3.3771,-3.3771,-3.371,-3.3581,-3.3581,-3.3617,-3.3745,0.0,0.0,0.0,0.0,0.0,-3.4867,-3.524,-3.6025,0.0,0.0,-3.908,-3.9329,-4.0153,-4.0368,-4.0245,-4.012,-3.9645,0.0,0.0,0.0,0.0,0.0,-3.8075,0.0,0.0,0.0,0.0,0.0,0.0,0.0,-3.7817,-3.8017,-3.8201,-3.8201,0.0,0.0,0.0,0.0,0.0,0.0,0.0,0.0,0.0,0.0,0.0,0.0,0.0,0.0,-4.0721,-4.084,-4.0912,-4.0912,-4.1516,-4.2189,-4.2913,-4.3059,-4.3093,-4.3093,-4.3162,-4.36,-4.4383,-4.4401,-4.4833,-4.5673,-4.5673,-4.5726,-4.5795,-4.5795,-4.5795,-4.5795,-4.5795,-4.5795,-4.5821,-4.5821,-4.5821,-4.5795,-4.5795,-4.5795,-4.5795,-4.5795,-4.5795,-4.577,0.0,0.0,0.0,0.0,0.0,0.0,0.0,0.0,0.0,-3.3579,-3.4229,-3.4699,-3.4717,-3.5415,-3.5857,-3.5857,-3.589,-3.5954,-3.6014,-3.5795,-3.5622,-3.5594,-3.5356,-3.5108,-3.4873,-3.4761,-3.4586,-3.4349,-3.4226,-3.4176,-3.4151,-3.4025,-3.4,-3.4025,0.0,0.0,0.0,0.0,0.0,-3.6323,-3.6481,0.0,-3.8514,-3.9712,-4.0336,-4.0545,-4.0748,-4.0799,-4.0728,-4.0493,-4.0212,-3.9893,0.0,0.0,0.0,0.0,0.0,0.0,0.0,0.0,0.0,0.0,0.0,0.0,-3.8415,-3.8639,-3.8816,0.0,0.0,0.0,0.0,0.0,0.0,0.0,0.0,0.0,0.0,0.0,0.0,0.0,0.0,0.0,-4.0864,-4.0871,-4.0912,-4.0912,-4.1032,-4.1188,-4.1343,-4.2002,-4.2396,-4.2396,-4.3065,-4.352,-4.3684,-4.3701,-4.4125,-4.4908,-4.4908,-4.5221,-4.5795,-4.5795,-4.5795,-4.5795,-4.5795,-4.5846,-4.5947,-4.5947,-4.5897,-4.5795,-4.5795,-4.5795,-4.5795,-4.5795,-4.5795,-4.5812,0.0,0.0,0.0,0.0,0.0,0.0,0.0,0.0,0.0,-3.4496,-3.5304,-3.5849,-3.5849,-3.6195,-3.6457,-3.6457,-3.6395,-3.6314,-3.6255,-3.6127,-3.5997,-3.5888,-3.5778,-3.5605,-3.5402,-3.5316,-3.5178,-3.4961,-3.4859,-3.4763,-3.4691,-3.4618,-3.4594,0.0,0.0,0.0,0.0,0.0,-3.5703,-3.7186,-3.7203,0.0,-3.9587,-4.0453,-4.0942,-4.1152,-4.1221,-4.1198,-4.1129,-4.0924,-4.0676,0.0,0.0,-3.9782,-3.9558,0.0,-3.9169,-3.9007,0.0,0.0,0.0,-3.8711,0.0,0.0,0.0,-3.8942,-3.9121,0.0,0.0,0.0,0.0,0.0,0.0,0.0,0.0,0.0,0.0,0.0,0.0,0.0,0.0,0.0,-4.0793,-4.0864,-4.0912,-4.0912,-4.0912,-4.0935,-4.1,-4.1393,-4.1671,-4.1684,-4.2119,-4.2573,-4.3044,-4.3044,-4.3469,-4.431,-4.431,-4.4712,-4.5439,-4.5439,-4.5648,-4.5998,-4.5998,-4.6048,-4.6097,-4.6097,-4.6048,-4.5998,-4.5998,-4.5998,-4.5998,-4.5998,-4.5998,-4.5998,0.0,0.0,0.0,0.0,0.0,0.0,0.0,0.0,0.0,-3.5396,-3.6101,-3.6582,-3.6681,-3.6702,-3.6702,0.0,-3.6702,-3.6602,0.0,0.0,0.0,0.0,-3.6127,-3.6062,-3.5949,-3.5905,-3.5778,-3.556,-3.5458,-3.5337,-3.5228,-3.5205,0.0,0.0,0.0,0.0,0.0,0.0,0.0,-3.7824,0.0,-3.8773,-4.0368,-4.0942,-4.1261,-4.1448,-4.156,-4.1538,-4.1426,-4.1277,-4.11,-4.089,-4.0662,-4.0427,0.0,0.0,0.0,0.0,0.0,0.0,0.0,0.0,0.0,-3.9185,0.0,0.0,0.0,0.0,0.0,0.0,0.0,0.0,0.0,0.0,0.0,0.0,0.0,0.0,0.0,0.0,0.0,-4.0673,-4.0697,-4.0817,-4.0912,-4.0912,-4.0912,-4.0959,-4.1093,-4.1117,-4.1169,-4.1232,-4.1255,-4.1637,-4.2398,-4.2415,-4.2829,-4.3693,-4.3693,-4.4097,-4.4869,-4.5027,-4.5431,-4.6003,-4.6144,-4.6196,-4.6196,-4.6196,-4.6196,-4.6196,-4.6196,-4.6196,-4.6196,-4.6196,-4.6196,-4.6172,-3.4145,-3.4177,0.0,0.0,0.0,0.0,0.0,0.0,0.0,-3.6504,-3.6629,-3.6681,0.0,0.0,0.0,0.0,0.0,0.0,-3.6661,0.0,0.0,0.0,0.0,0.0,-3.6419,-3.6301,-3.6212,-3.6101,-3.5861,-3.5728,-3.5728,-3.56,0.0,0.0,-3.5739,0.0,0.0,0.0,-3.6901,0.0,-3.855,-3.9491,0.0,-4.1203,-4.1448,-4.1582,-4.1604,-4.1582,-4.156,0.0,-4.1358,-4.1312,0.0,-4.1,-4.0959,0.0,0.0,0.0,0.0,0.0,0.0,0.0,-3.9969,0.0,0.0,0.0,0.0,-3.9651,0.0,0.0,0.0,0.0,0.0,0.0,0.0,0.0,0.0,0.0,0.0,0.0,0.0,-4.0558,-4.0697,-4.0817,-4.0912,-4.0912,-4.0912,-4.0959,-4.1093,-4.1175,-4.1249,-4.1363,-4.1475,-4.1595,-4.1705,-4.1705,-4.2108,-4.2938,-4.2938,-4.3325,-4.4062,-4.4764,-4.515,-4.5273,-4.5916,-4.6196,-4.6196,-4.6196,-4.6196,-4.6196,-4.6196,-4.6196,-4.6196,-4.6196,-4.6196,-4.6196,-3.4658,-3.4774,0.0,0.0,0.0,0.0,0.0,0.0,0.0,-3.6748,-3.6766,0.0,0.0,0.0,0.0,0.0,0.0,-3.6869,0.0,0.0,0.0,0.0,0.0,0.0,0.0,-3.6544,-3.6482,-3.6377,-3.617,-3.6062,-3.6014,-3.5971,0.0,0.0,-3.6174,0.0,-3.6381,0.0,-3.7067,0.0,0.0,0.0,0.0,-4.1183,-4.1493,-4.1604,-4.1604,-4.1604,-4.1582,0.0,-4.1515,0.0,0.0,0.0,0.0,0.0,0.0,0.0,0.0,0.0,0.0,0.0,0.0,0.0,-4.0163,0.0,-4.0087,0.0,0.0,0.0,0.0,0.0,0.0,0.0,-3.9428,0.0,0.0,0.0,0.0,0.0,0.0,0.0,-4.0038,-3.9749,-3.9583,-3.9583,-3.9583,-3.9652,-3.9872,-3.9921,-4.0219,-4.0872,-4.0933,-4.1165,-4.1604,-4.1604,-4.178,-4.2113,-4.2113,-4.2517,-4.3272,-4.3605,-4.4009,-4.4448,-4.5238,-4.5572,-4.5582,-4.6021,-4.6196,-4.6196,-4.6196,-4.6196,-4.6196,-4.6196,-4.6196,-4.6196,-3.5418,0.0,0.0,0.0,0.0,0.0,0.0,0.0,0.0,0.0,0.0,0.0,-3.7066,-3.7085,0.0,0.0,-3.7145,-3.7106,0.0,0.0,-3.6928,0.0,0.0,0.0,0.0,0.0,0.0,-3.6585,-3.6464,-3.6381,-3.6331,-3.6331,-3.6377,0.0,0.0,-3.6647,-3.6786,0.0,0.0,-3.7934,-3.8559,-3.9441,-4.0438,-4.1173,-4.1515,-4.1604,-4.1604,-4.1604,-4.1604,-4.1604,-4.1604,0.0,-4.1493,0.0,0.0,0.0,0.0,0.0,-4.1186,0.0,0.0,0.0,0.0,0.0,0.0,0.0,0.0,0.0,0.0,0.0,0.0,0.0,0.0,0.0,0.0,-3.8751,0.0,0.0,0.0,0.0,0.0,0.0,0.0,-3.8854,-3.8594,-3.8594,-3.8594,-3.8706,-3.9003,-3.8986,-3.9355,-4.0147,-4.0397,-4.0766,-4.1288,-4.1499,-4.1604,-4.1604,-4.1604,-4.192,-4.2482,-4.271,-4.3096,-4.3641,-4.4431,-4.4904,-4.5133,-4.567,-4.6021,-4.6196,-4.6196,-4.6196,-4.6196,-4.6196,-4.6196,-4.6196,-3.6937,-3.6954,0.0,0.0,0.0,0.0,0.0,0.0,0.0,0.0,0.0,0.0,0.0,0.0,0.0,0.0,0.0,-3.7392,-3.7392,0.0,-3.728,0.0,0.0,-3.705,0.0,0.0,0.0,0.0,0.0,-3.6681,-3.6681,-3.6681,-3.6725,0.0,0.0,-3.6851,-3.6987,-3.6987,-3.7426,-3.8091,-3.8108,-3.9076,-4.0551,0.0,-4.1604,-4.1604,-4.1604,0.0,0.0,-4.1604,-4.1604,-4.1604,0.0,0.0,0.0,0.0,0.0,0.0,0.0,0.0,0.0,-4.1186,0.0,0.0,0.0,0.0,-4.0648,0.0,0.0,0.0,0.0,0.0,0.0,-3.8344,0.0,0.0,0.0,0.0,0.0,0.0,0.0,0.0,0.0,-3.8544,-3.8594,-3.8594,-3.8594,-3.8706,-3.9003,-3.8986,-3.9111,-3.9336,-4.0077,-4.052,-4.0537,-4.1236,-4.1604,-4.1604,-4.1604,-4.1622,-4.1657,-4.2447,-4.2793,-4.2886,-4.3623,-4.4378,-4.5098,-4.5133,-4.5572,-4.6196,-4.6196,-4.6196,-4.6196,-4.6196,-4.6196,-4.6196,0.0,0.0,0.0,0.0,0.0,0.0,0.0,-3.7201,0.0,0.0,0.0,0.0,0.0,-3.754,-3.7631,0.0,0.0,-3.7703,-3.7792,-3.7667,0.0,0.0,0.0,-3.7429,0.0,0.0,0.0,0.0,0.0,0.0,-3.6702,0.0,0.0,0.0,0.0,-3.6871,0.0,0.0,0.0,0.0,0.0,-3.9059,-4.0573,0.0,-4.1604,-4.1604,-4.1604,-4.1604,-4.1604,-4.1604,-4.1604,-4.1604,-4.1604,-4.1604,-4.1604,-4.1604,-4.156,-4.1538,0.0,0.0,-4.134,-4.134,0.0,0.0,0.0,0.0,0.0,0.0,0.0,0.0,0.0,0.0,0.0,-3.7917,0.0,0.0,0.0,0.0,-3.6969,0.0,0.0,0.0,0.0,0.0,0.0,-3.7077,-3.7158,-3.7303,-3.7467,-3.7512,-3.7825,-3.8477,-3.8778,-3.941,-4.0485,-4.0748,-4.1113,-4.1604,-4.1604,-4.1604,-4.1604,-4.1885,-4.2008,-4.2061,-4.2833,-4.3342,-4.3658,-4.4676,-4.5256,-4.5536,-4.6003,-4.6196,-4.6196,-4.6196,-4.6196,-4.6196,-3.7429,0.0,0.0,0.0,0.0,0.0,0.0,0.0,0.0,0.0,-3.7613,0.0,-3.7828,0.0,-3.8035,0.0,-3.8167,-3.815,-3.8201,-3.8068,0.0,-3.7827,-3.7792,0.0,0.0,0.0,0.0,0.0,0.0,-3.7007,0.0,0.0,0.0,0.0,0.0,-3.6928,-3.7007,0.0,-3.7009,0.0,0.0,-3.8828,0.0,0.0,-4.1424,-4.1604,0.0,-4.167,-4.167,-4.1732,-4.1732,-4.1732,-4.1688,-4.167,-4.1648,-4.1604,-4.1604,-4.1604,-4.1604,-4.1538,0.0,-4.1471,-4.1363,0.0,-4.1255,0.0,0.0,0.0,0.0,0.0,0.0,0.0,0.0,-3.7334,-3.7166,0.0,0.0,-3.6301,-3.6301,0.0,0.0,0.0,0.0,0.0,-3.6301,-3.6301,-3.6423,-3.6544,0.0,-3.6748,-3.7079,-3.769,-3.797,-3.8602,-3.9642,-4.0221,-4.0748,-4.12,-4.1508,-4.167,-4.167,-4.1758,-4.178,-4.1797,-4.237,-4.2763,-4.3076,-4.4077,-4.4777,-4.5323,-4.5721,-4.6042,-4.627,-4.6221,-4.6196,-4.6196,0.0,0.0,0.0,0.0,-3.7411,0.0,0.0,0.0,-3.781,0.0,-3.8018,-3.8104,-3.8289,-3.8385,-3.8478,-3.8615,-3.8688,-3.8685,-3.8631,-3.8554,0.0,0.0,-3.8185,-3.8083,-3.7946,0.0,0.0,0.0,0.0,0.0,0.0,0.0,0.0,0.0,-3.7007,0.0,-3.7007,-3.6989,-3.7048,-3.7198,-3.8017,-3.8375,-3.8606,-4.0114,-4.105,-4.1565,-4.174,-4.1801,-4.1823,-4.1966,-4.2005,-4.1987,-4.1862,-4.1823,-4.178,-4.167,-4.1626,-4.1626,-4.1626,-4.1626,-4.1626,-4.1574,-4.1468,0.0,0.0,0.0,-4.0083,0.0,0.0,0.0,0.0,0.0,0.0,0.0,0.0,0.0,0.0,0.0,0.0,0.0,0.0,0.0,0.0,0.0,-3.6301,-3.6301,-3.6423,0.0,0.0,-3.6768,-3.6869,-3.7007,-3.7672,-3.8058,-3.8111,-3.9624,-4.0432,-4.052,-4.1353,-4.1788,-4.1823,-4.2019,-4.2124,-4.2124,-4.2267,-4.2718,-4.3354,-4.3337,-4.4165,-4.5475,-4.5346,-4.5746,-4.6357,-4.6246,-4.6196,-4.6196,-3.8203,-3.8219,-3.8236,0.0,-3.8066,-3.7983,0.0,0.0,0.0,0.0,-3.8364,-3.8446,-3.8655,-3.8728,-3.8833,-3.8956,-3.8984,0.0,0.0,0.0,0.0,-3.8725,-3.8695,-3.8649,-3.8572,-3.8412,0.0,-3.7845,0.0,0.0,-3.7069,0.0,0.0,0.0,0.0,0.0,-3.6989,-3.705,-3.7166,-3.7336,-3.7567,-3.8088,-3.8826,0.0,-3.9844,-4.0608,-4.1587,-4.197,-4.2019,-4.2058,-4.2142,-4.2222,-4.2184,-4.21,-4.2019,-4.1977,-4.1948,-4.1902,-4.1902,-4.1902,-4.1782,-4.1226,-4.1049,-4.0866,-4.0282,0.0,0.0,0.0,0.0,0.0,0.0,0.0,0.0,0.0,0.0,0.0,0.0,0.0,0.0,-3.6301,0.0,0.0,0.0,-3.6301,-3.6301,-3.6301,-3.6523,0.0,0.0,0.0,-3.695,-3.7007,-3.7183,-3.7549,-3.8093,-3.8614,-3.9447,-4.0574,-4.0958,-4.1511,-4.2184,-4.2272,-4.2374,-4.2472,-4.251,-4.2638,-4.2851,-4.3319,-4.37,-4.4057,-4.5002,-4.5735,-4.6246,-4.6196,-4.6196,-4.6196,-3.8664,0.0,0.0,-3.8796,0.0,0.0,-3.8646,-3.8646,0.0,-3.8752,-3.8752,0.0,-3.8964,-3.9031,-3.9133,-3.9256,-3.9296,0.0,-3.9288,0.0,0.0,-3.9124,-3.9064,-3.9021,-3.8979,-3.8815,0.0,-3.8133,0.0,0.0,-3.7318,0.0,0.0,0.0,0.0,-3.7164,0.0,-3.7222,-3.7318,-3.7503,-3.7577,-3.799,0.0,-3.8959,-3.9427,-3.9969,-4.1081,-4.1667,-4.1932,-4.1954,-4.2286,-4.267,-4.2591,-4.2512,-4.2434,-4.2351,-4.2267,-4.2113,-4.1815,-4.1685,-4.149,-4.081,-4.0596,-4.0451,-4.0043,-3.9629,-3.9337,0.0,-3.8578,-3.7953,0.0,0.0,0.0,0.0,0.0,0.0,0.0,0.0,0.0,0.0,0.0,0.0,0.0,-3.6322,-3.6301,-3.6301,-3.6544,0.0,0.0,0.0,-3.7007,-3.7007,-3.7007,-3.72,-3.7619,-3.8071,-3.8926,-4.017,-4.0791,-4.1562,-4.2474,-4.2671,-4.2806,-4.2901,-4.2975,-4.2994,-4.3012,-4.3312,-4.3554,-4.3827,-4.4785,-4.5501,-4.6024,-4.6024,-4.6092,-4.6196,0.0,0.0,0.0,0.0,0.0,0.0,0.0,-3.9059,0.0,-3.9129,0.0,-3.9156,-3.9224,-3.929,-3.9375,-3.9508,0.0,-3.9583,-3.952,-3.94,-3.9375,-3.9412,-3.9309,-3.9256,-3.9242,-3.9115,0.0,0.0,0.0,0.0,0.0,0.0,0.0,0.0,0.0,0.0,0.0,-3.7467,-3.7577,-3.7721,-3.7898,-3.807,-3.829,-3.9066,-3.9385,-3.9542,-4.0319,-4.1026,-4.1633,-4.1687,-4.2267,-4.2904,-4.2723,-4.2668,-4.263,-4.2441,-4.2307,-4.2068,-4.148,-4.1225,-4.1008,-4.0384,-4.0167,-4.0058,-4.0077,-3.9446,-3.8851,-3.8797,-3.8187,-3.7631,-3.7467,0.0,0.0,0.0,0.0,0.0,0.0,0.0,0.0,0.0,0.0,0.0,0.0,0.0,0.0,0.0,0.0,0.0,0.0,0.0,-3.7007,-3.7007,-3.7007,-3.6989,-3.7009,-3.7794,-3.8636,-3.9518,-4.0672,-4.1695,-4.2643,-4.3069,-4.3286,-4.3374,-4.3479,-4.3549,-4.3532,-4.3304,-4.3615,-4.4208,-4.4554,-4.5094,-4.5704,-4.5811,-4.6003,-4.6203,0.0,0.0,0.0,0.0,0.0,-3.9451,-3.9502,-3.9399,-3.9333,-3.9346,-3.9346,-3.9373,-3.9438,-3.9451,-3.9508,-3.9583,-3.9577,0.0,0.0,0.0,0.0,-3.9552,-3.954,-3.9502,-3.9457,-3.9322,-3.9096,0.0,0.0,0.0,0.0,0.0,0.0,0.0,0.0,0.0,-3.7897,-3.7897,0.0,-3.8269,-3.8366,-3.8541,-3.8773,-3.8992,-3.912,-3.9197,-3.9341,-4.0148,-4.1126,-4.1207,-4.1362,-4.1535,-4.1503,-4.1456,-4.1392,-4.1311,-4.1189,-4.1047,-4.0937,-4.0901,-4.0735,-4.0132,-3.9944,-3.9747,-3.9058,-3.8771,-3.8565,-3.8302,-3.8125,-3.7948,-3.7756,0.0,0.0,0.0,0.0,0.0,0.0,0.0,0.0,0.0,0.0,0.0,0.0,0.0,0.0,0.0,0.0,0.0,0.0,0.0,-3.7007,0.0,-3.7007,-3.7029,0.0,0.0,-3.8053,-3.9026,-4.0221,-4.1305,-4.2247,-4.3132,-4.3599,-4.3719,-4.3754,-4.3754,-4.3719,-4.3532,-4.367,-4.4038,-4.4063,-4.4479,-4.5129,-4.5796,-4.6076,-4.6203,0.0,0.0,0.0,0.0,0.0,0.0,0.0,-3.9558,-3.9489,-3.9489,-3.9489,-3.952,-3.9558,-3.9558,-3.9552,-3.9608,-3.9589,-3.9589,-3.9589,-3.9589,-3.9589,-3.9589,-3.9589,0.0,-3.9558,-3.9445,-3.9283,-3.9064,0.0,0.0,-3.8525,0.0,0.0,0.0,0.0,-3.8234,0.0,0.0,0.0,-3.8525,-3.8585,-3.8766,-3.9003,-3.9073,-3.9175,-3.9261,-3.9301,-3.9709,-4.0277,-4.0659,-4.1126,-4.152,-4.1475,-4.1449,-4.1403,-4.1292,-4.1199,-4.1025,-4.0646,-4.052,-4.0335,-3.969,-3.9501,-3.9394,-3.9005,-3.8855,-3.8766,-3.8615,-3.8538,-3.8428,-3.8115,-3.7879,0.0,0.0,0.0,0.0,0.0,0.0,0.0,0.0,0.0,0.0,0.0,0.0,0.0,0.0,0.0,0.0,0.0,0.0,-3.7009,0.0,0.0,0.0,-3.7261,0.0,-3.8079,-3.9121,-4.0305,-4.1363,-4.2336,-4.3295,-4.3798,-4.3897,-4.3897,-4.3897,-4.3881,-4.3718,-4.3699,-4.378,-4.3725,-4.4142,-4.483,-4.5231,-4.5649,-4.6096,0.0,-3.9589,0.0,0.0,-3.9589,0.0,-3.9589,-3.9589,-3.9589,-3.9589,-3.9589,-3.9589,-3.9589,-3.9589,-3.9589,-3.9589,-3.9589,-3.9589,-3.9589,-3.9589,-3.9589,-3.9589,-3.9589,-3.9589,-3.9589,-3.9546,-3.9438,0.0,0.0,0.0,-3.8964,0.0,0.0,0.0,0.0,0.0,0.0,0.0,-3.8615,-3.8737,-3.8807,-3.8966,-3.9202,-3.9269,-3.9354,-3.9457,-3.9508,-3.952,-3.9601,-4.0139,-4.0774,-4.1324,-4.1269,-4.1241,-4.1227,-4.1105,-4.1051,-4.0859,-4.0277,-4.0081,-3.9918,-3.9405,-3.9256,-3.9229,-3.9256,-3.9188,-3.9087,-3.9059,-3.8974,-3.8844,-3.8499,-3.8279,-3.8085,0.0,0.0,0.0,0.0,0.0,0.0,0.0,0.0,0.0,0.0,0.0,0.0,0.0,0.0,0.0,-3.6849,0.0,0.0,0.0,0.0,-3.728,-3.7503,0.0,-3.8256,-3.9164,-4.0484,-4.1535,-4.2371,-4.3465,-4.4008,-4.4036,-4.4036,-4.4005,-4.3958,-4.3867,-4.3751,-4.3649,-4.3565,-4.3935,-4.4541,-4.4707,-4.5148,-4.5828,0.0,0.0,0.0,0.0,0.0,-3.9589,-3.9589,-3.9589,-3.9589,-3.9589,-3.9589,-3.9589,-3.9589,-3.9589,-3.9589,-3.9589,-3.9589,-3.9589,-3.9589,-3.9589,-3.9589,-3.9589,-3.9589,-3.9589,-3.9589,-3.9589,-3.9558,0.0,0.0,-3.9232,0.0,0.0,0.0,0.0,0.0,-3.9059,-3.9045,-3.9045,-3.9087,-3.9156,-3.9219,-3.9317,-3.9469,-3.954,-3.9564,-3.9577,-3.9596,-3.9596,-3.9596,-3.9658,-3.9733,-3.979,-3.9808,-3.9808,-3.9783,-3.9707,-3.9681,-3.9662,-3.9588,-3.9569,-3.9576,-3.9558,-3.9552,-3.954,-3.9476,-3.9469,-3.9399,-3.9229,-3.9129,-3.9059,-3.8942,-3.8778,-3.8563,0.0,0.0,0.0,0.0,0.0,0.0,0.0,0.0,0.0,0.0,-3.7259,0.0,0.0,-3.6849,0.0,0.0,0.0,0.0,-3.7373,-3.7355,-3.7522,-3.7846,-3.7984,-3.8271,-3.8682,-4.0575,-4.1568,-4.1841,-4.3498,-4.4226,-4.4184,-4.4184,-4.4073,-4.3897,-4.3899,-4.3851,-4.3788,-4.3771,-4.3808,-4.3974,-4.4694,-4.5007,-4.521,0.0,0.0,0.0,0.0,0.0,0.0,0.0,-4.0021,-4.0309,-4.0309,-3.9908,-3.9777,-4.0284,-4.0309,-4.0497,-4.1004,-4.0591,-4.0309,-4.0309,-3.9871,-3.9589,-3.9589,-3.9589,-3.9589,-3.9589,-3.9589,-3.9596,0.0,0.0,0.0,0.0,0.0,-3.9406,-3.9406,-3.9354,-3.9328,-3.9328,-3.9288,-3.9315,-3.9367,-3.9406,-3.9476,-3.9571,-3.9596,-3.9589,-3.9589,-3.9589,-3.9589,-3.9589,-3.9589,-3.9589,-3.9589,-3.9589,-3.9589,-3.9589,-3.9571,-3.9571,-3.9571,-3.9571,-3.9571,-3.9571,-3.9577,-3.9589,-3.9577,-3.9571,-3.9571,-3.9527,-3.9458,-3.938,-3.9315,-3.9192,-3.9055,-3.8884,-3.8691,0.0,0.0,0.0,0.0,0.0,0.0,0.0,0.0,0.0,0.0,0.0,0.0,0.0,0.0,0.0,0.0,0.0,-3.7685,0.0,-3.7915,-3.8271,-3.8394,-3.8612,-3.8917,-4.0744,-4.1659,-4.1815,-4.3519,-4.4304,-4.4274,-4.4274,-4.4211,-4.415,-4.415,-4.4135,-4.4104,-4.4104,-4.4104,-4.4141,-4.446,-4.4572,-4.4628,-3.9698,0.0,-3.9619,0.0,-3.9619,-3.9713,-3.997,-4.0484,-4.0954,-4.118,-4.071,-4.0566,-4.1098,-4.1154,-4.1366,-4.1948,-4.1479,-4.106,-4.0816,-4.0284,-3.9852,-3.9608,-3.9589,0.0,-3.9589,-3.9589,-3.9589,-3.9589,-3.9589,0.0,0.0,-3.9589,-3.9589,-3.9608,-3.9558,-3.9533,-3.9533,-3.9482,-3.9495,-3.9533,-3.9533,-3.9558,-3.9589,-3.9589,-3.9589,-3.9589,-3.9589,-3.9589,-3.9589,-3.9589,-3.9589,-3.9589,-3.9589,-3.9589,-3.9589,-3.9589,-3.9589,-3.9589,-3.9589,-3.9589,-3.9589,-3.9589,-3.9589,-3.9589,-3.9589,-3.9589,-3.9589,-3.9589,-3.9571,-3.9502,-3.9413,-3.9277,-3.9175,-3.9031,0.0,0.0,0.0,0.0,0.0,0.0,0.0,0.0,0.0,0.0,0.0,0.0,0.0,0.0,0.0,0.0,0.0,0.0,0.0,0.0,-3.8618,-3.8748,-3.8923,-3.9188,-4.0686,-4.1558,-4.1912,-4.3563,-4.4329,-4.4329,-4.43,-4.43,-4.43,-4.43,-4.43,-4.43,-4.43,-4.43,-4.43,-4.43,-4.43,-4.43,-3.9712,-3.9689,-3.9689,-3.9689,-3.9689,-3.9984,-4.0851,-4.0983,-4.1278,-4.2089,-4.2165,-4.2115,-4.1999,-4.1986,-4.1986,-4.2004,-4.1986,-4.1648,-4.0854,-4.0797,-4.0422,0.0,0.0,-3.9589,-3.9589,-3.9589,-3.9589,-3.9589,0.0,0.0,-3.9589,-3.9589,-3.9589,-3.9589,-3.9589,-3.9589,-3.9608,-3.9608,-3.9608,-3.9589,-3.9589,-3.9589,-3.9589,-3.9589,-3.9589,-3.9589,-3.9589,-3.9589,-3.9589,-3.9589,-3.9589,-3.9589,-3.9589,-3.9589,-3.9589,-3.9589,-3.9589,-3.9589,-3.9589,-3.9589,-3.9589,-3.9589,-3.9589,-3.9589,-3.9589,-3.9589,-3.9589,-3.9589,-3.9589,-3.9608,-3.9608,-3.9546,-3.9451,-3.933,0.0,0.0,0.0,0.0,0.0,0.0,0.0,0.0,-3.8525,0.0,0.0,0.0,0.0,0.0,0.0,0.0,0.0,-3.8382,-3.8523,0.0,-3.8877,-3.9017,-3.9151,-3.9317,-4.0255,-4.1164,-4.2061,-4.3657,-4.4397,-4.4397,-4.4329,-4.43,-4.43,-4.43,-4.43,-4.43,-4.43,-4.43,-4.43,-4.43,-4.43,-4.43,-3.977,-4.0207,-4.0587,-4.0587,-4.1052,-4.1505,-4.1788,-4.2316,-4.28,-4.3045,-4.3561,-4.3875,-4.3854,-4.3307,-4.316,0.0,-4.32,-4.2787,0.0,-4.1436,-4.0685,-4.0422,-3.989,-3.9589,-3.9589,-3.9589,-3.9589,-3.9589,0.0,-3.9589,-3.9589,-3.9589,-3.9589,-3.9589,-3.9589,-3.9589,-3.9589,-3.9589,-3.9589,-3.9589,-3.9589,-3.9589,-3.9589,-3.9589,-3.9589,-3.9589,-3.9589,-3.9589,-3.9589,-3.9589,-3.9589,-3.9589,-3.9589,-3.9589,-3.9589,-3.9589,-3.9589,-3.9589,-3.9589,-3.9589,-3.9589,-3.9589,-3.9589,-3.9589,-3.9589,-3.9589,-3.9589,-3.9589,-3.9589,-3.9589,-3.9589,-3.9577,-3.9527,-3.9451,-3.9425,0.0,-3.9301,0.0,0.0,0.0,0.0,0.0,0.0,-3.8898,0.0,0.0,0.0,0.0,0.0,0.0,0.0,0.0,-3.8873,0.0,-3.9165,-3.9315,-3.9425,-3.9508,-4.0365,-4.1516,-4.2919,-4.398,-4.4473,-4.4473,-4.4444,-4.4444,-4.4444,-4.4444,-4.4444,-4.4444,-4.4444,-4.4444,-4.4444,-4.4444,-4.4444,-4.4444,-4.0786,-4.1264,-4.159,-4.1574,-4.1971,-4.2425,-4.2747,-4.3269,-4.3736,-4.4063,-4.4531,-4.4796,-4.4789,-4.4272,-4.4081,-4.45,-4.4086,-4.3641,-4.3313,-4.2318,-4.1454,-4.0835,-4.0309,-3.9908,-3.9608,-3.9589,-3.9589,-3.9589,-3.9589,-3.9589,-3.9589,-3.9589,-3.9589,-3.9589,-3.9589,-3.9589,-3.9589,-3.9589,-3.9589,-3.9589,-3.9589,-3.9589,-3.9589,-3.9589,-3.9589,-3.9589,-3.9589,-3.9589,-3.9589,-3.9589,-3.9589,-3.9589,-3.9589,-3.9589,-3.9589,-3.9589,-3.9589,-3.9589,-3.9589,-3.9589,-3.9589,-3.9589,-3.9589,-3.9589,-3.9589,-3.9589,-3.9589,-3.9589,-3.9589,-3.9589,-3.9589,-3.9589,-3.9596,-3.9546,-3.9533,-3.952,-3.9482,0.0,0.0,0.0,0.0,0.0,0.0,-3.9202,-3.9129,0.0,0.0,0.0,0.0,0.0,-3.8815,-3.9007,-3.9161,-3.9283,-3.9375,-3.9489,-3.9558,-3.9608,-4.0722,-4.1811,-4.2862,-4.3975,-4.4501,-4.4501,-4.4501,-4.4501,-4.4501,-4.4501,-4.4501,-4.4501,-4.4501,-4.4501,-4.4501,-4.4501,-4.4501,-4.4501,-4.247,-4.265,-4.2686,-4.2612,-4.2658,-4.2962,-4.3779,-4.3893,-4.4201,-4.5019,-4.5068,-4.501,-4.4931,-4.487,-4.477,-4.4646,-4.4619,-4.4259,-4.3453,-4.334,-4.2575,-4.096,-4.0848,-4.0434,-3.962,-3.9602,-3.9602,-3.9602,-3.962,-3.962,-3.962,-3.9589,-3.9589,-3.9589,-3.9589,-3.9589,-3.9589,-3.9589,-3.9589,-3.9589,-3.9589,-3.9589,-3.9589,-3.9589,-3.9589,-3.9589,-3.9589,-3.9589,-3.9589,-3.9589,-3.9589,-3.9589,-3.9589,-3.9589,-3.9589,-3.9589,-3.9589,-3.9589,-3.9589,-3.9589,-3.9589,-3.9589,-3.9589,-3.9589,-3.9589,-3.9589,-3.9589,-3.9589,-3.9589,-3.9589,-3.9589,-3.9589,-3.9589,-3.9589,-3.9589,-3.9589,-3.9589,-3.9546,0.0,0.0,0.0,0.0,-3.9418,-3.9418,-3.9373,0.0,0.0,0.0,0.0,0.0,-3.9156,-3.921,-3.9412,-3.9508,-3.9508,-3.9571,-3.9589,-3.9627,-4.1229,-4.2004,-4.2061,-4.3731,-4.4501,-4.4501,-4.4501,-4.4501,-4.4501,-4.4501,-4.4501,-4.4501,-4.4501,-4.4501,-4.4501,-4.4501,-4.4501,-4.4501,-4.2718,-4.3252,-4.3661,-4.3651,-4.4194,-4.4709,-4.4919,-4.4938,-4.5014,-4.5227,-4.5254,-4.5213,-4.5203,-4.5192,-4.5125,-4.4979,-4.4783,-4.4578,-4.4376,-4.3786,-4.2976,-4.1908,-4.1286,-4.0551,-3.9691,-3.9684,-3.9684,-3.9684,-3.9674,-3.9681,-3.9681,-3.9614,-3.9589,-3.9589,-3.9589,-3.9589,-3.9589,-3.9589,-3.9589,-3.9589,-3.9589,-3.9589,-3.9589,-3.9589,-3.9589,-3.9589,-3.9589,-3.9589,-3.9589,-3.9589,-3.9589,-3.9589,-3.9589,-3.9589,-3.9589,-3.9589,-3.9589,-3.9589,-3.9589,-3.9589,-3.9589,-3.9589,-3.9589,-3.9589,-3.9589,-3.9589,-3.9589,-3.9589,-3.9589,-3.9589,-3.9589,-3.9589,-3.9589,-3.9589,-3.9589,-3.9589,-3.9589,-3.9596,-3.9583,0.0,-3.9552,-3.954,-3.954,-3.954,-3.954,0.0,0.0,-3.954,-3.9514,-3.9483,-3.9476,-3.9425,-3.9514,-3.9583,-3.9583,-3.9577,-3.9589,-3.9627,-4.1229,-4.2004,-4.2061,-4.3731,-4.4501,-4.4501,-4.4501,-4.4501,-4.4501,-4.4501,-4.4501,-4.4501,-4.4501,-4.4501,-4.4501,-4.4501,-4.4501,-4.4501,-4.4006,-4.444,-4.4729,-4.47,-4.5074,-4.54,-4.54,-4.54,-4.54,-4.5429,-4.5409,-4.54,-4.54,-4.5351,-4.531,-4.5229,-4.5026,-4.4833,-4.4745,-4.4348,-4.3712,-4.2838,-4.1995,-4.1146,-4.0304,-3.9908,-3.9701,-3.9701,-3.9703,-3.9691,-3.9691,-3.9668,-3.9644,-3.9644,-3.9644,-3.9644,-3.9644,-3.9644,-3.9644,-3.9644,-3.9644,-3.9644,-3.9644,-3.9644,-3.9644,-3.9644,-3.9657,-3.9645,-3.9645,-3.962,-3.9589,-3.9589,-3.9589,-3.9589,-3.9589,-3.9589,-3.9589,-3.9589,-3.9589,-3.9589,-3.9589,-3.9589,-3.9589,-3.9589,-3.9589,-3.9589,-3.9589,-3.9589,-3.9589,-3.9589,-3.9589,-3.9589,-3.9589,-3.9589,-3.9589,-3.9589,-3.9589,-3.9589,-3.9589,-3.9589,-3.9589,-3.9589,-3.9589,-3.9589,-3.9589,-3.9589,-3.9589,0.0,-3.9589,-3.9589,-3.9577,-3.9546,-3.9583,-3.9589,-3.9589,-3.9589,-3.9589,-3.9627,-4.1229,-4.2004,-4.2061,-4.3731,-4.4501,-4.4501,-4.4501,-4.4501,-4.4501,-4.4501,-4.4501,-4.4501,-4.4501,-4.4501,-4.4501,-4.4501,-4.4501,-4.4501,-4.5518,-4.5637,-4.5605,-4.5566,-4.5558,-4.5558,-4.5558,-4.5558,-4.5566,-4.5629,-4.5584,-4.5558,-4.5558,-4.5503,-4.5447,-4.5447,-4.5301,-4.5098,-4.4895,-4.487,-4.4486,-4.3592,-4.2741,-4.1886,-4.105,-4.0188,-3.9724,-3.9724,-3.9712,-3.9712,-3.9712,-3.9701,-3.9701,-3.9701,-3.9701,-3.9701,-3.9701,-3.9701,-3.9701,-3.9701,-3.9701,-3.9701,-3.9701,-3.9701,-3.9701,-3.9689,-3.971,-3.9705,-3.9693,-3.9626,-3.962,-3.9602,-3.9589,-3.9589,-3.9589,-3.9589,-3.9589,-3.9589,-3.9589,-3.9589,-3.9589,-3.9589,-3.9589,-3.9589,-3.9589,-3.9589,-3.9589,-3.9589,-3.9589,-3.9589,-3.9589,-3.9589,-3.9589,-3.9589,-3.9589,-3.9589,-3.9589,0.0,-3.9589,-3.9589,-3.9589,-3.9589,-3.9589,-3.9589,-3.9589,-3.9589,-3.9589,-3.9589,-3.9589,-3.9589,-3.9589,-3.9589,-3.9589,-3.9589,-3.9589,-3.9589,-3.9589,-3.9627,-4.1229,-4.2004,-4.2061,-4.3731,-4.4501,-4.4501,-4.4501,-4.4501,-4.4501,-4.4515,-4.4515,-4.4528,-4.4542,-4.4556,-4.4556,-4.457,-4.4551,-4.4556,-4.5827,-4.58,-4.5771,-4.5764,-4.5737,-4.5737,-4.5737,-4.5737,-4.5764,-4.5771,-4.5764,-4.5737,-4.5737,-4.5737,-4.5715,-4.5665,-4.5615,-4.5498,-4.5251,-4.5227,-4.481,-4.3879,-4.3061,-4.2199,-4.1274,-4.0336,-3.9867,-3.9867,-3.9804,-3.9781,-3.9781,-3.9724,-3.9701,-3.9701,-3.9701,-3.9701,-3.9701,-3.9701,-3.9701,-3.9701,-3.9701,-3.9701,-3.9701,-3.9701,-3.9701,-3.9701,-3.9708,-3.9708,-3.9696,-3.9686,-3.9681,-3.9669,-3.962,-3.9589,-3.9589,-3.9589,-3.9589,-3.9589,-3.9589,-3.9589,-3.9589,-3.9589,-3.9589,-3.9589,-3.9589,-3.9589,-3.9589,-3.9589,-3.9589,-3.9589,-3.9589,-3.9589,-3.9589,-3.9589,-3.9589,-3.9589,-3.9589,-3.9589,-3.9589,-3.9589,-3.9589,-3.9589,-3.9589,-3.9589,-3.9589,-3.9589,-3.9589,-3.9589,-3.9589,-3.9589,-3.9589,-3.9589,-3.9589,-3.9589,-3.9589,-3.9589,-3.9589,-3.9627,-4.1229,-4.2004,-4.2061,-4.3731,-4.4501,-4.4501,-4.4501,-4.4501,-4.4496,-4.4551,-4.4578,-4.4592,-4.4712,-4.4745,-4.4745,-4.4827,-4.4796,-4.4745,-4.5956,-4.5918,-4.5906,-4.5867,-4.5841,-4.5841,-4.5841,-4.5841,-4.5841,-4.5841,-4.5841,-4.5841,-4.5841,-4.5841,-4.5835,-4.5802,-4.5801,-4.5764,-4.5629,-4.5484,-4.5189,-4.4727,-4.3454,-4.2115,-4.0728,-4.0279,-4.0059,-4.0059,-4.0039,-4.0029,-4.001,-3.9979,-3.9969,-3.9969,-3.9969,-3.9967,-3.9965,-3.9965,-3.9943,-3.9911,-3.9911,-3.9911,-3.9911,-3.9911,-3.9911,-3.9911,-3.9859,-3.9848,-3.9867,-3.9819,-3.9796,-3.9796,-3.9773,-3.9762,-3.9762,-3.9762,-3.9679,-3.9589,-3.9589,-3.9589,-3.9589,-3.9589,-3.9589,-3.9589,-3.9589,-3.9589,-3.9589,-3.9589,-3.9589,-3.9589,-3.9589,-3.9589,-3.9589,-3.9589,-3.9589,-3.9589,-3.9589,-3.9589,-3.9589,-3.9589,-3.9589,-3.9589,-3.9589,-3.9589,-3.9589,-3.9589,-3.9589,-3.9589,-3.9589,-3.9589,-3.9589,-3.9589,-3.9589,-3.9589,-3.9589,-3.9589,-3.9589,-3.9627,-4.1229,-4.2004,-4.2061,-4.3731,-4.4528,-4.4551,-4.4551,-4.4592,-4.4672,-4.468,-4.4764,-4.4821,-4.487,-4.4919,-4.4974,-4.501,-4.4998,-4.4955,-4.5989,-4.6008,-4.5978,-4.5935,-4.591,-4.591,-4.591,-4.591,-4.591,-4.591,-4.591,-4.591,-4.591,-4.591,-4.591,-4.591,-4.5931,-4.5912,-4.5925,-4.573,-4.5577,-4.5475,-4.377,-4.2124,-4.0585,-4.0328,-4.0223,-4.0223,-4.0223,-4.0223,-4.0223,-4.0223,-4.0223,-4.0223,-4.0223,-4.0215,-4.0215,-4.0215,-4.0177,-4.0128,-4.0128,-4.0128,-4.0128,-4.0128,-4.0128,-4.0118,-4.0078,-4.0068,-4.0068,-3.9988,-3.9967,-3.9956,-3.9935,-3.9924,-3.9924,-3.9924,-3.9804,-3.9703,-3.9668,-3.9674,-3.9674,-3.9674,-3.9674,-3.9674,-3.9674,-3.9674,-3.9674,-3.9674,-3.9674,-3.9656,-3.9662,-3.965,-3.965,-3.9633,-3.9614,-3.962,-3.9589,-3.9589,-3.9589,-3.9589,-3.9589,-3.9589,-3.9589,-3.9589,-3.962,-3.9614,-3.9614,-3.9626,-3.965,-3.965,-3.9644,-3.9674,-3.9626,-3.9589,-3.9589,-3.962,-3.9614,-3.9651,-4.128,-4.2064,-4.212,-4.3807,-4.4619,-4.4672,-4.4685,-4.4745,-4.4846,-4.487,-4.4955,-4.5042,-4.5076,-4.514,-4.5194,-4.5205,-4.5205,-4.5184,-4.5997,-4.5997,-4.5997,-4.5997,-4.5997,-4.5997,-4.5997,-4.5997,-4.5997,-4.5997,-4.5997,-4.5997,-4.5997,-4.5997,-4.5997,-4.5997,-4.5991,-4.6,-4.5991,-4.598,-4.5874,-4.5696,-4.3959,-4.2538,-4.1615,-4.0745,-4.0292,-4.0292,-4.0292,-4.0292,-4.0292,-4.0292,-4.0292,-4.0292,-4.0292,-4.0285,-4.0298,-4.0298,-4.0243,-4.0196,-4.0196,-4.0196,-4.0196,-4.0196,-4.0196,-4.0196,-4.0271,-4.0289,-4.028,-4.0196,-4.0177,-4.0167,-4.0032,-3.9992,-3.9992,-3.9992,-3.9982,-3.997,-3.9892,-3.9878,-3.9878,-3.9878,-3.9878,-3.9878,-3.9878,-3.9878,-3.9878,-3.9878,-3.9878,-3.9856,-3.9792,-3.9781,-3.9766,-3.9705,-3.9693,-3.9669,-3.962,-3.9589,-3.9589,-3.9589,-3.9589,-3.9589,-3.9589,-3.9589,-3.9633,-3.9681,-3.9693,-3.9722,-3.9781,-3.9781,-3.9804,-3.9878,-3.971,-3.9589,-3.9589,-3.9657,-3.9693,-3.9712,-4.1453,-4.2288,-4.2344,-4.4089,-4.487,-4.487,-4.4931,-4.4986,-4.4991,-4.5125,-4.5184,-4.5191,-4.5322,-4.541,-4.5476,-4.5541,-4.5513,-4.5467,-4.6002,-4.6002,-4.6002,-4.6002,-4.6002,-4.6002,-4.6002,-4.6002,-4.6002,-4.6002,-4.6002,-4.6002,-4.6002,-4.6002,-4.6002,-4.6002,-4.6002,-4.5997,-4.6005,-4.6005,-4.5708,-4.5053,-4.3845,-4.2786,-4.1909,-4.1012,-4.0554,-4.0554,-4.0554,-4.0554,-4.0554,-4.0554,-4.0554,-4.0554,-4.0554,-4.0552,-4.0546,-4.0504,-4.0454,-4.0386,-4.0381,-4.0392,-4.0392,-4.0392,-4.0389,-4.0386,-4.0411,-4.0454,-4.0477,-4.0462,-4.0462,-4.0434,-4.0383,-4.0367,-4.0367,-4.0367,-4.0367,-4.0359,-4.0345,-4.0139,-3.996,-3.996,-3.996,-3.996,-3.996,-3.996,-3.996,-3.996,-3.996,-3.995,-3.9939,-3.9916,-3.9922,-3.9897,-3.9853,-3.9819,-3.9796,-3.9796,-3.9796,-3.9796,-3.9796,-3.9796,-3.9796,-3.9796,-3.9796,-3.9819,-3.9864,-3.9908,-3.9933,-3.9908,-3.9939,-3.996,-3.9886,-3.9837,-3.9796,-3.9808,-3.9841,-3.9905,-4.1598,-4.242,-4.2473,-4.4224,-4.5057,-4.5091,-4.5121,-4.5167,-4.526,-4.5351,-4.541,-4.5455,-4.551,-4.5573,-4.5635,-4.5651,-4.5643,-4.5607,-4.6002,-4.6002,-4.6002,-4.6002,-4.6002,-4.6002,-4.6002,-4.6002,-4.6002,-4.6002,-4.6002,-4.6002,-4.6002,-4.6002,-4.6002,-4.6002,-4.6002,-4.6002,-4.6002,-4.6002,-4.5703,-4.5058,-4.3941,-4.3051,-4.2446,-4.1311,-4.0724,-4.0724,-4.0724,-4.0724,-4.0724,-4.0724,-4.0724,-4.0724,-4.0724,-4.0725,-4.0726,-4.0688,-4.0622,-4.0561,-4.0559,-4.0552,-4.0552,-4.0552,-4.0566,-4.0568,-4.0595,-4.0615,-4.0662,-4.0662,-4.0662,-4.0662,-4.0648,-4.0629,-4.0629,-4.0629,-4.0629,-4.0629,-4.0629,-4.0431,-4.0201,-4.0193,-4.0184,-4.0184,-4.0184,-4.0166,-4.0157,-4.0157,-4.0167,-4.0148,-4.0129,-4.0129,-4.0118,-4.0059,-4.0008,-3.9956,-3.9927,-3.9916,-3.9916,-3.9916,-3.9916,-3.9916,-3.9916,-3.9916,-3.9946,-3.9967,-4.0019,-4.009,-4.0158,-4.0167,-4.0166,-4.0184,-4.0184,-4.0167,-4.0129,-4.0029,-3.9998,-4.0078,-4.1804,-4.2637,-4.2726,-4.4465,-4.5279,-4.5329,-4.5332,-4.5371,-4.5456,-4.5549,-4.5599,-4.5665,-4.5665,-4.5688,-4.5727,-4.5727,-4.5727,-4.5719,-4.6002,-4.6002,-4.6002,-4.6002,-4.6002,-4.6002,-4.6002,-4.6002,-4.6002,-4.6002,-4.6002,-4.6002,-4.6002,-4.6002,-4.6002,-4.6002,-4.6002,-4.6002,-4.6002,-4.6002,-4.6002,-4.6002,-4.4325,-4.3396,-4.3396,-4.1696,-4.0807,-4.0807,-4.0807,-4.0807,-4.0807,-4.0807,-4.0807,-4.0807,-4.0807,-4.079,-4.08,-4.08,-4.0763,-4.07,-4.07,-4.07,-4.07,-4.07,-4.07,-4.07,-4.0788,-4.08,-4.08,-4.08,-4.08,-4.0794,-4.0725,-4.07,-4.07,-4.07,-4.07,-4.07,-4.07,-4.07,-4.0681,-4.0609,-4.0595,-4.0595,-4.0595,-4.054,-4.0511,-4.0511,-4.05,-4.0481,-4.0414,-4.0392,-4.036,-4.0223,-4.0139,-4.0091,-4.0003,-3.9993,-3.9993,-3.9993,-3.9993,-3.9993,-3.9993,-3.9993,-4.0032,-4.0101,-4.0177,-4.0295,-4.0489,-4.0488,-4.0526,-4.0595,-4.0595,-4.0595,-4.0595,-4.0276,-4.0129,-4.0233,-4.2028,-4.2944,-4.3054,-4.4808,-4.5594,-4.5594,-4.5607,-4.5605,-4.5605,-4.5673,-4.5731,-4.5807,-4.5807,-4.5791,-4.5807,-4.5807,-4.5807,-4.58,-4.6002,-4.6002,-4.6002,-4.6002,-4.6002,-4.6002,-4.6002,-4.6002,-4.6002,-4.6002,-4.6002,-4.6002,-4.6002,-4.6002,-4.6002,-4.6002,-4.6002,-4.6002,-4.6002,-4.6002,-4.6002,-4.6002,-4.4379,-4.3476,-4.3476,-4.1762,-4.0864,-4.0864,-4.0864,-4.0864,-4.0864,-4.0864,-4.0864,-4.0864,-4.0864,-4.0859,-4.0868,-4.0867,-4.0856,-4.0846,-4.079,-4.0765,-4.0765,-4.0765,-4.0796,-4.0851,-4.0856,-4.0872,-4.0873,-4.0873,-4.0873,-4.0868,-4.0844,-4.0844,-4.0844,-4.0844,-4.0844,-4.0844,-4.0844,-4.0844,-4.0818,-4.0694,-4.0668,-4.0668,-4.0668,-4.0655,-4.0642,-4.0635,-4.0641,-4.0622,-4.06,-4.0605,-4.0591,-4.0569,-4.0492,-4.0442,-4.0415,-4.0415,-4.0415,-4.0415,-4.0415,-4.0415,-4.0415,-4.0415,-4.0434,-4.045,-4.05,-4.0579,-4.0629,-4.0642,-4.0655,-4.0668,-4.0668,-4.0668,-4.0668,-4.0518,-4.0485,-4.0561,-4.2287,-4.3153,-4.326,-4.4974,-4.5734,-4.5734,-4.5798,-4.5812,-4.5819,-4.5834,-4.5854,-4.5861,-4.588,-4.5873,-4.586,-4.5814,-4.5807,-4.5807,-4.6002,-4.6002,-4.6002,-4.6002,-4.6002,-4.6002,-4.6002,-4.6002,-4.6002,-4.6002,-4.6002,-4.6002,-4.6002,-4.6002,-4.6002,-4.6002,-4.6002,-4.6002,-4.6002,-4.6002,-4.6002,-4.6002,-4.4384,-4.3505,-4.3505,-4.1781,-4.0907,-4.0907,-4.0907,-4.0907,-4.0907,-4.0907,-4.0907,-4.0907,-4.0907,-4.0907,-4.0907,-4.0908,-4.0903,-4.0898,-4.0868,-4.0839,-4.0839,-4.0839,-4.0868,-4.0903,-4.0903,-4.0893,-4.0907,-4.0907,-4.0907,-4.0907,-4.0907,-4.0907,-4.0907,-4.0907,-4.0907,-4.0907,-4.0907,-4.0907,-4.0874,-4.0807,-4.0771,-4.0771,-4.0771,-4.0779,-4.0781,-4.0782,-4.0763,-4.075,-4.0745,-4.0745,-4.0739,-4.0739,-4.0675,-4.0636,-4.0636,-4.0636,-4.0636,-4.0636,-4.0636,-4.0636,-4.0636,-4.0636,-4.0662,-4.0675,-4.0726,-4.0758,-4.0787,-4.0787,-4.0773,-4.079,-4.0771,-4.0771,-4.0771,-4.0736,-4.0725,-4.0759,-4.2118,-4.297,-4.3382,-4.4744,-4.5538,-4.5848,-4.5874,-4.5899,-4.5899,-4.5899,-4.5911,-4.5905,-4.5906,-4.5899,-4.5899,-4.5854,-4.5848,-4.5848,-4.6007,-4.6007,-4.6007,-4.6007,-4.6007,-4.6007,-4.6007,-4.6007,-4.6002,-4.6002,-4.6002,-4.6002,-4.6002,-4.6002,-4.6002,-4.6002,-4.6002,-4.6002,-4.6002,-4.6002,-4.6002,-4.6002,-4.4384,-4.3505,-4.3505,-4.1781,-4.0907,-4.0907,-4.0907,-4.0907,-4.0907,-4.0907,-4.0907,-4.0907,-4.0907,-4.0907,-4.0907,-4.0907,-4.0946,-4.1024,-4.1024,-4.1063,-4.1121,-4.1043,-4.1024,-4.1005,-4.0927,-4.0907,-4.0907,-4.0907,-4.0907,-4.0907,-4.0907,-4.0907,-4.0907,-4.0907,-4.0907,-4.0907,-4.0907,-4.0907,-4.0907,-4.0907,-4.0907,-4.0907,-4.0907,-4.0908,-4.0907,-4.0902,-4.0848,-4.0812,-4.0812,-4.0809,-4.0812,-4.0812,-4.0769,-4.0712,-4.0712,-4.0712,-4.0712,-4.0712,-4.0712,-4.0712,-4.0712,-4.0712,-4.0744,-4.0806,-4.0812,-4.0834,-4.0902,-4.0907,-4.0898,-4.0907,-4.0907,-4.0907,-4.0907,-4.0907,-4.0868,-4.0831,-4.1689,-4.2579,-4.3435,-4.4302,-4.5161,-4.5917,-4.5917,-4.5917,-4.5917,-4.5917,-4.5917,-4.5917,-4.5917,-4.5911,-4.5911,-4.5892,-4.5911,-4.5911,-4.608,-4.608,-4.608,-4.608,-4.608,-4.608,-4.608,-4.6085,-4.6071,-4.6071,-4.6032,-4.6002,-4.6002,-4.6002,-4.6002,-4.6002,-4.6002,-4.6002,-4.6002,-4.6002,-4.6002,-4.6002,-4.4384,-4.3505,-4.3505,-4.1781,-4.0907,-4.0907,-4.0907,-4.0907,-4.0907,-4.0907,-4.0907,-4.0907,-4.0907,-4.0907,-4.0907,-4.0907,-4.1296,-4.1922,-4.1922,-4.2325,-4.2869,-4.217,-4.1922,-4.1825,-4.114,-4.0907,-4.0907,-4.0907,-4.0907,-4.0907,-4.0907,-4.0907,-4.0907,-4.0907,-4.0907,-4.0907,-4.0907,-4.0907,-4.0907,-4.0907,-4.0907,-4.0907,-4.0907,-4.0903,-4.0893,-4.0907,-4.0898,-4.0883,-4.0877,-4.0888,-4.0883,-4.0883,-4.0878,-4.0854,-4.0854,-4.0854,-4.0854,-4.0854,-4.0854,-4.0854,-4.0854,-4.0854,-4.0859,-4.0883,-4.0883,-4.0888,-4.0898,-4.0898,-4.0903,-4.0907,-4.0907,-4.0907,-4.0907,-4.0907,-4.0898,-4.0883,-4.1757,-4.2636,-4.3509,-4.4383,-4.5223,-4.598,-4.598,-4.598,-4.598,-4.598,-4.598,-4.598,-4.5978,-4.5986,-4.5966,-4.5917,-4.5911,-4.5911,-4.6098,-4.6098,-4.6098,-4.6098,-4.6098,-4.6098,-4.6098,-4.6104,-4.6099,-4.6099,-4.6066,-4.6052,-4.6042,-4.6061,-4.6032,-4.6002,-4.6002,-4.6002,-4.6002,-4.6002,-4.5827,-4.5433,-4.419,-4.3316,-4.2889,-4.1587,-4.0907,-4.0907,-4.0907,-4.0907,-4.0907,-4.0907,-4.0907,-4.0927,-4.1335,-4.151,-4.1548,-4.1956,-4.2403,-4.2811,-4.2811,-4.3083,-4.3447,-4.2986,-4.2811,-4.2753,-4.2306,-4.1879,-4.1451,-4.1043,-4.0907,-4.0907,-4.0907,-4.0907,-4.0907,-4.0907,-4.0907,-4.0907,-4.0907,-4.0907,-4.0907,-4.0907,-4.0907,-4.0907,-4.0907,-4.0907,-4.0903,-4.0908,-4.0898,-4.0903,-4.0908,-4.0898,-4.0907,-4.0907,-4.0907,-4.0907,-4.0907,-4.0907,-4.0907,-4.0907,-4.0907,-4.0907,-4.0907,-4.0907,-4.0907,-4.0907,-4.0907,-4.0907,-4.0907,-4.0907,-4.0907,-4.0907,-4.0907,-4.0907,-4.0907,-4.0907,-4.0907,-4.0907,-4.1354,-4.2248,-4.3525,-4.3976,-4.4851,-4.6002,-4.6002,-4.6002,-4.6002,-4.6002,-4.6002,-4.5997,-4.6005,-4.6,-4.5994,-4.5958,-4.5953,-4.5953,-4.6119,-4.6119,-4.6119,-4.6119,-4.6119,-4.6119,-4.6115,-4.6111,-4.6126,-4.6122,-4.6117,-4.6108,-4.611,-4.6105,-4.6076,-4.6032,-4.6026,-4.6007,-4.6002,-4.6002,-4.5633,-4.4831,-4.3976,-4.3083,-4.2214,-4.1354,-4.0907,-4.0907,-4.0907,-4.0907,-4.0907,-4.1043,-4.1121,-4.116,-4.2034,-4.2427,-4.2461,-4.3199,-4.3583,-4.3724,-4.3724,-4.3802,-4.3918,-4.3763,-4.3724,-4.3704,-4.3544,-4.3044,-4.2287,-4.1412,-4.1121,-4.1102,-4.0946,-4.0907,-4.0907,-4.0907,-4.0907,-4.0907,-4.0907,-4.0907,-4.0907,-4.0907,-4.0907,-4.0907,-4.0907,-4.0907,-4.0907,-4.0907,-4.0907,-4.0907,-4.0907,-4.0907,-4.0907,-4.0907,-4.0907,-4.0907,-4.0907,-4.0907,-4.0907,-4.0907,-4.0907,-4.0907,-4.0907,-4.0907,-4.0907,-4.0907,-4.0907,-4.0907,-4.0907,-4.0907,-4.0907,-4.0907,-4.0907,-4.0907,-4.0907,-4.0907,-4.0907,-4.0907,-4.0907,-4.1743,-4.3277,-4.3277,-4.421,-4.5788,-4.5788,-4.5866,-4.6002,-4.6002,-4.6002,-4.6002,-4.6002,-4.6002,-4.6002,-4.6002,-4.6002,-4.6002,-4.6195,-4.6195,-4.6195,-4.6195,-4.6195,-4.6192,-4.6196,-4.618,-4.6185,-4.6185,-4.6149,-4.6093,-4.6093,-4.6093,-4.6099,-4.6095,-4.6095,-4.6066,-4.6002,-4.6002,-4.5633,-4.4831,-4.3976,-4.3083,-4.2214,-4.1354,-4.0907,-4.0907,-4.0907,-4.0907,-4.0927,-4.1665,-4.2019,-4.2058,-4.2947,-4.3316,-4.3335,-4.3447,-4.3938,-4.4617,-4.4617,-4.5045,-4.5589,-4.4889,-4.4617,-4.452,-4.3763,-4.3408,-4.3199,-4.2325,-4.2019,-4.1883,-4.114,-4.0907,-4.0907,-4.0907,-4.0907,-4.0907,-4.0907,-4.0907,-4.0907,-4.0907,-4.0907,-4.0907,-4.0907,-4.0907,-4.0907,-4.0907,-4.0907,-4.0907,-4.0907,-4.0907,-4.0907,-4.0907,-4.0907,-4.0907,-4.0907,-4.0907,-4.0907,-4.0907,-4.0907,-4.0907,-4.0907,-4.0907,-4.0907,-4.0907,-4.0907,-4.0907,-4.0907,-4.0907,-4.0907,-4.0907,-4.0907,-4.0907,-4.0907,-4.0907,-4.0907,-4.0907,-4.0907,-4.1412,-4.2388,-4.2388,-4.3316,-4.4967,-4.4967,-4.5356,-4.6002,-4.6002,-4.6002,-4.6002,-4.6002,-4.6002,-4.6002,-4.6002,-4.6002,-4.6002,-4.6206,-4.6206,-4.6206,-4.6206,-4.6206,-4.6206,-4.6198,-4.6192,-4.6206,-4.6196,-4.616,-4.6165,-4.6154,-4.6111,-4.6093,-4.6099,-4.6099,-4.5881,-4.5366,-4.5322,-4.4759,-4.3456,-4.3028,-4.2425,-4.155,-4.1142,-4.0967,-4.0967,-4.1407,-4.1626,-4.1646,-4.252,-4.2928,-4.2966,-4.384,-4.4229,-4.4268,-4.4715,-4.5122,-4.5472,-4.5472,-4.5691,-4.5963,-4.5613,-4.5472,-4.5356,-4.452,-4.4229,-4.4015,-4.266,-4.2194,-4.2058,-4.116,-4.0907,-4.0907,-4.0907,-4.0907,-4.0907,-4.0907,-4.0907,-4.0907,-4.0907,-4.0907,-4.0907,-4.0907,-4.0907,-4.0907,-4.0907,-4.0907,-4.0907,-4.0907,-4.0907,-4.0907,-4.0907,-4.0907,-4.0907,-4.0907,-4.0907,-4.0907,-4.0907,-4.0907,-4.0907,-4.0907,-4.0907,-4.0907,-4.0907,-4.0907,-4.0907,-4.0907,-4.0907,-4.0907,-4.0907,-4.0907,-4.0907,-4.0907,-4.0907,-4.0907,-4.0907,-4.0907,-4.1354,-4.2194,-4.2194,-4.2889,-4.4074,-4.4074,-4.4287,-4.4598,-4.4598,-4.4598,-4.4598,-4.4598,-4.4598,-4.4598,-4.4598,-4.4598,-4.4598]},{"header":{"parameterUnit":"m.s-1","parameterCategory":1,"la1":30.6,"la2":28.766,"lo1":-90.7593,"lo2":-88.6598,"dy":0.0162,"dx":0.0183,"nx":116,"ny":114,"refTime":"2023-07-25T12:00:00:Z","depth":0,"parameterNumber":3,"parameterNumberName":"V-component_of_WINDS"},"data":[0.0,0.0,0.0,0.0,0.0,0.0,0.0,0.0,0.0,0.0,0.0,0.0,0.0,0.0,0.0,0.0,0.0,0.0,0.0,0.0,0.0,0.0,0.0,0.0,0.0,0.0,0.0,0.0,0.0,0.0,0.0,0.0,0.0,0.0,0.0,0.0,0.0,0.0,0.0,0.0,0.0,0.0,0.0,0.0,0.0,0.0,0.0,0.0,0.0,0.0,0.0,0.0,0.0,0.0,0.0,0.0,0.0,0.0,0.0,0.0,0.0,0.0,0.0,0.0,0.0,0.0,0.0,0.0,0.0,0.0,0.0,0.0,0.0,0.0,0.0,0.0,0.0,0.0,0.0,0.0,0.0,0.0,0.0,0.0,0.0,0.0,0.0,0.0,0.0,0.0,0.0,0.0,0.0,0.0,0.0,0.0,0.0,0.0,0.0,0.0,0.0,0.0,0.0,0.0,0.0,0.0,0.0,0.0,0.0,0.0,0.0,0.0,0.0,0.0,0.0,0.0,0.0,0.0,0.0,0.0,0.0,0.0,0.0,0.0,0.0,0.0,0.0,0.0,0.0,0.0,0.0,0.0,0.0,0.0,0.0,0.0,0.0,0.0,0.0,0.0,0.0,0.0,0.0,0.0,0.0,0.0,0.0,0.0,0.0,0.0,0.0,0.0,0.0,0.0,0.0,0.0,0.0,0.0,0.0,0.0,0.0,0.0,0.0,0.0,0.0,0.0,0.0,0.0,0.0,0.0,0.0,0.0,0.0,0.0,0.0,0.0,0.0,0.0,0.0,0.0,0.0,0.0,0.0,0.0,0.0,0.0,0.0,0.0,0.0,0.0,0.0,0.0,0.0,0.0,0.0,0.0,0.0,0.0,0.0,0.0,0.0,0.0,0.0,0.0,0.0,0.0,0.0,0.0,0.0,0.0,0.0,0.0,0.0,0.0,0.0,0.0,0.0,0.0,0.0,0.0,0.0,0.0,0.0,0.0,0.0,0.0,0.0,0.0,0.0,0.0,0.0,0.0,0.0,0.0,0.0,0.0,0.0,0.0,0.0,0.0,0.0,0.0,0.0,0.0,0.0,0.0,0.0,0.0,0.0,0.0,0.0,0.0,0.0,0.0,0.0,0.0,0.0,0.0,0.0,0.0,0.0,0.0,0.0,0.0,0.0,0.0,0.0,0.0,0.0,0.0,0.0,0.0,0.0,0.0,0.0,0.0,0.0,0.0,0.0,0.0,0.0,0.0,0.0,0.0,0.0,0.0,0.0,0.0,0.0,0.0,0.0,0.0,0.0,0.0,0.0,0.0,0.0,0.0,0.0,0.0,0.0,0.0,0.0,0.0,0.0,0.0,0.0,0.0,0.0,0.0,0.0,0.0,0.0,0.0,0.0,0.0,0.0,0.0,0.0,0.0,0.0,0.0,0.0,0.0,0.0,0.0,0.0,0.0,0.0,0.0,0.0,0.0,0.0,0.0,0.0,0.0,0.0,0.0,0.0,0.0,0.0,0.0,0.0,0.0,0.0,0.0,0.0,0.0,0.0,0.0,0.0,0.0,0.0,0.0,0.0,0.0,0.0,0.0,0.0,0.0,0.0,0.0,0.0,0.0,0.0,0.0,0.0,0.0,0.0,0.0,0.0,0.0,0.0,0.0,0.0,0.0,0.0,0.0,0.0,0.0,0.0,0.0,0.0,0.0,0.0,0.0,0.0,0.0,0.0,0.0,0.0,0.0,0.0,0.0,0.0,0.0,0.0,0.0,0.0,0.0,0.0,0.0,0.0,0.0,0.0,0.0,0.0,0.0,0.0,0.0,0.0,0.0,0.0,0.0,0.0,0.0,0.0,0.0,0.0,0.0,0.0,0.0,0.0,0.0,0.0,0.0,0.0,0.0,0.0,0.0,0.0,0.0,0.0,0.0,0.0,0.0,0.0,0.0,0.0,0.0,0.0,0.0,0.0,0.0,0.0,0.0,0.0,0.0,0.0,0.0,0.0,0.0,0.0,0.0,0.0,0.0,0.0,0.0,0.0,0.0,0.0,0.0,0.0,0.0,0.0,0.0,0.0,0.0,0.0,0.0,0.0,0.0,0.0,0.0,0.0,0.0,0.0,0.0,0.0,0.0,0.0,0.0,0.0,0.0,0.0,0.0,0.0,0.0,0.0,0.0,0.0,0.0,0.0,0.0,0.0,0.0,0.0,0.0,0.0,0.0,0.0,0.0,0.0,0.0,0.0,0.0,0.0,0.0,0.0,0.0,0.0,0.0,0.0,0.0,0.0,0.0,0.0,0.0,0.0,0.0,0.0,0.0,0.0,0.0,0.0,0.0,0.0,0.0,0.0,0.0,0.0,0.0,0.0,0.0,0.0,0.0,0.0,0.0,0.0,0.0,0.0,0.0,0.0,0.0,0.0,0.0,0.0,0.0,0.0,0.0,0.0,0.0,0.0,0.0,0.0,0.0,0.0,0.0,0.0,0.0,0.0,0.0,0.0,0.0,0.0,0.0,0.0,0.0,0.0,0.0,0.0,0.0,0.0,0.0,0.0,0.0,0.0,0.0,0.0,0.0,0.0,0.0,0.0,0.0,0.0,0.0,0.0,0.0,0.0,0.0,0.0,0.0,0.0,0.0,0.0,0.0,0.0,0.0,0.0,0.0,0.0,0.0,0.0,0.0,0.0,0.0,0.0,0.0,0.0,0.0,0.0,0.0,0.0,0.0,0.0,0.0,0.0,0.0,0.0,0.0,0.0,0.0,0.0,0.0,0.0,0.0,0.0,0.0,0.0,0.0,0.0,0.0,0.0,0.0,0.0,0.0,0.0,0.0,0.0,0.0,0.0,0.0,0.0,0.0,0.0,0.0,0.0,0.0,0.0,0.0,0.0,0.0,0.0,0.0,0.0,0.0,0.0,0.0,0.0,0.0,0.0,0.0,0.0,0.0,0.0,0.0,0.0,0.0,0.0,0.0,0.0,0.0,0.0,0.0,0.0,0.0,0.0,0.0,0.0,0.0,0.0,0.0,0.0,0.0,0.0,0.0,0.0,0.0,0.0,0.0,0.0,0.0,0.0,0.0,0.0,0.0,0.0,0.0,0.0,0.0,0.0,0.0,0.0,0.0,0.0,0.0,0.0,0.0,0.0,0.0,0.0,0.0,0.0,0.0,0.0,0.0,0.0,0.0,0.0,0.0,0.0,0.0,0.0,0.0,0.0,0.0,0.0,0.0,0.0,0.0,0.0,0.0,0.0,0.0,0.0,0.0,0.0,0.0,0.0,0.0,0.0,0.0,0.0,0.0,0.0,0.0,0.0,0.0,0.0,0.0,0.0,0.0,0.0,0.0,0.0,0.0,0.0,0.0,0.0,0.0,0.0,0.0,0.0,0.0,0.0,0.0,0.0,0.0,0.0,0.0,0.0,0.0,0.0,0.0,0.0,0.0,0.0,0.0,0.0,0.0,0.0,0.0,0.0,0.0,0.0,0.0,0.0,0.0,0.0,0.0,0.0,0.0,0.0,0.0,0.0,0.0,0.0,0.0,0.0,0.0,0.0,0.0,0.0,0.0,0.0,0.0,0.0,0.0,0.0,0.0,0.0,0.0,0.0,0.0,0.0,0.0,0.0,0.0,0.0,0.0,0.0,0.0,0.0,0.0,0.0,0.0,0.0,0.0,0.0,0.0,0.0,0.0,0.0,0.0,0.0,0.0,0.0,0.0,0.0,0.0,0.0,0.0,0.0,0.0,0.0,0.0,0.0,0.0,0.0,0.0,0.0,0.0,0.0,0.0,0.0,0.0,0.0,0.0,0.0,0.0,0.0,0.0,0.0,0.0,0.0,0.0,0.0,0.0,0.0,0.0,0.0,0.0,0.0,0.0,0.0,0.0,0.0,0.0,0.0,0.0,0.0,0.0,0.0,0.0,0.0,0.0,0.0,0.0,0.0,0.0,0.0,0.0,0.0,0.0,0.0,0.0,0.0,0.0,0.0,0.0,0.0,0.0,0.0,0.0,0.0,0.0,0.0,0.0,0.0,0.0,0.0,0.0,0.0,0.0,0.0,0.0,0.0,0.0,0.0,0.0,0.0,0.0,0.0,0.0,0.0,0.0,0.0,0.0,0.0,0.0,0.0,0.0,0.0,0.0,0.0,0.0,0.0,0.0,0.0,0.0,0.0,0.0,0.0,0.0,0.0,0.0,0.0,0.0,0.0,0.0,0.0,0.0,0.0,0.0,0.0,0.0,0.0,0.0,0.0,0.0,0.0,0.0,0.0,0.0,0.0,0.0,0.0,0.0,0.0,0.0,0.0,0.0,0.0,0.0,0.0,0.0,0.0,0.0,0.0,0.0,0.0,0.0,0.0,0.0,0.0,0.0,0.0,0.0,0.0,0.0,0.0,0.0,0.0,0.0,0.0,0.0,0.0,0.0,0.0,0.0,0.0,0.0,0.0,0.0,0.0,0.0,0.0,0.0,0.0,0.0,0.0,0.0,0.0,0.0,0.0,0.0,0.0,0.0,0.0,0.0,0.0,0.0,0.0,0.0,0.0,0.0,0.0,0.0,0.0,0.0,0.0,0.0,0.0,0.0,0.0,0.0,0.0,0.0,0.0,0.0,0.0,0.0,0.0,0.0,0.0,0.0,0.0,0.0,0.0,0.0,0.0,0.0,0.0,0.0,0.0,0.0,0.0,0.0,0.0,0.0,0.0,0.0,0.0,0.0,0.0,0.0,0.0,0.0,0.0,0.0,0.0,0.0,0.0,0.0,0.0,0.0,0.0,0.0,0.0,0.0,0.0,0.0,0.0,0.0,0.0,0.0,0.0,0.0,0.0,0.0,0.0,0.0,0.0,0.0,0.0,0.0,0.0,0.0,0.0,0.0,0.0,0.0,0.0,0.0,0.0,0.0,0.0,0.0,0.0,0.0,0.0,0.0,0.0,0.0,0.0,0.0,0.0,0.0,0.0,0.0,0.0,0.0,0.0,0.0,0.0,0.0,0.0,0.0,0.0,0.0,0.0,0.0,0.0,0.0,0.0,0.0,0.0,0.0,0.0,0.0,0.0,0.0,0.0,0.0,0.0,0.0,0.0,0.0,0.0,0.0,0.0,0.0,0.0,0.0,0.0,0.0,0.0,0.0,0.0,0.0,0.0,0.0,0.0,0.0,0.0,0.0,0.0,0.0,0.0,0.0,0.0,0.0,0.0,0.0,0.0,0.0,0.0,0.0,0.0,0.0,0.0,0.0,0.0,0.0,0.0,0.0,0.0,0.0,0.0,0.0,0.0,0.0,0.0,0.0,0.0,0.0,0.0,0.0,0.0,0.0,0.0,0.0,0.0,0.0,0.0,0.0,0.0,0.0,0.0,0.0,0.0,0.0,0.0,0.0,0.0,0.0,0.0,0.0,0.0,0.0,0.0,0.0,0.0,0.0,0.0,0.0,0.0,0.0,0.0,0.0,0.0,0.0,0.0,0.0,0.0,0.0,0.0,0.0,0.0,0.0,0.0,0.0,0.0,0.0,0.0,0.0,0.0,0.0,0.0,0.0,0.0,0.0,0.0,0.0,0.0,0.0,0.0,0.0,0.0,0.0,0.0,0.0,0.0,0.0,0.0,0.0,0.0,0.0,0.0,0.0,0.0,0.0,0.0,0.0,0.0,0.0,0.0,0.0,0.0,0.0,0.0,0.0,0.0,0.0,0.0,0.0,0.0,0.0,0.0,0.0,0.0,0.0,0.0,0.0,0.0,0.0,0.0,0.0,0.0,0.0,0.0,0.0,0.0,0.0,0.0,0.0,0.0,0.0,0.0,0.0,0.0,0.0,0.0,0.0,0.0,0.0,0.0,0.0,0.0,0.0,0.0,0.0,0.0,0.0,0.0,0.0,0.0,0.0,0.0,0.0,0.0,0.0,0.0,0.0,0.0,0.0,0.0,0.0,0.0,0.0,0.0,0.0,0.0,0.0,0.0,0.0,0.0,0.0,0.0,0.0,0.0,0.0,0.0,0.0,0.0,0.0,0.0,0.0,0.0,0.0,0.0,0.0,0.0,0.0,0.0,0.0,0.0,0.0,0.0,0.0,0.0,0.0,0.0,0.0,0.0,0.0,0.0,0.0,0.0,0.0,-2.836,0.0,0.0,0.0,0.0,0.0,0.0,0.0,0.0,0.0,0.0,0.0,0.0,0.0,0.0,0.0,0.0,0.0,0.0,0.0,0.0,0.0,0.0,0.0,0.0,0.0,0.0,0.0,0.0,0.0,0.0,0.0,0.0,0.0,0.0,0.0,0.0,0.0,0.0,0.0,-2.6732,-2.7074,-2.7113,-2.704,-2.71,-2.7339,0.0,0.0,0.0,0.0,0.0,0.0,0.0,0.0,0.0,0.0,0.0,0.0,0.0,0.0,0.0,0.0,0.0,0.0,0.0,0.0,0.0,0.0,0.0,0.0,0.0,0.0,0.0,0.0,0.0,0.0,0.0,0.0,0.0,0.0,0.0,0.0,0.0,0.0,0.0,0.0,0.0,0.0,0.0,0.0,0.0,0.0,0.0,0.0,0.0,0.0,0.0,0.0,0.0,0.0,0.0,0.0,0.0,0.0,0.0,0.0,0.0,0.0,0.0,0.0,0.0,0.0,0.0,0.0,0.0,0.0,0.0,-2.836,0.0,0.0,0.0,0.0,0.0,0.0,0.0,0.0,0.0,0.0,0.0,0.0,0.0,0.0,0.0,0.0,0.0,0.0,0.0,0.0,0.0,0.0,0.0,0.0,-2.5536,-2.5661,-2.5674,-2.5757,0.0,0.0,0.0,0.0,0.0,0.0,0.0,-2.6666,-2.6875,-2.6731,-2.7284,-2.7668,-2.798,-2.7701,-2.762,-2.7665,-2.7556,0.0,0.0,0.0,0.0,0.0,0.0,0.0,0.0,0.0,0.0,0.0,0.0,0.0,0.0,0.0,0.0,0.0,0.0,0.0,0.0,0.0,0.0,0.0,0.0,0.0,0.0,0.0,0.0,0.0,0.0,0.0,0.0,0.0,0.0,0.0,0.0,0.0,0.0,0.0,0.0,0.0,0.0,0.0,0.0,0.0,0.0,0.0,0.0,0.0,0.0,0.0,0.0,0.0,0.0,0.0,0.0,0.0,0.0,0.0,0.0,0.0,0.0,0.0,-2.7728,-2.7626,-2.7335,-2.7663,-2.7681,-2.7477,-2.8193,-2.8469,-2.8425,-2.8578,0.0,0.0,0.0,0.0,0.0,0.0,0.0,0.0,0.0,0.0,0.0,0.0,0.0,0.0,0.0,0.0,0.0,0.0,0.0,0.0,0.0,-2.5522,-2.5494,-2.5522,-2.5633,-2.5702,-2.5729,0.0,0.0,0.0,0.0,0.0,-2.6694,-2.7312,-2.7504,-2.7209,-2.7513,-2.7881,-2.8244,-2.8198,-2.7952,-2.7551,-2.7848,-2.8032,-2.8145,0.0,0.0,0.0,0.0,0.0,0.0,0.0,0.0,0.0,0.0,0.0,0.0,0.0,0.0,0.0,0.0,0.0,0.0,0.0,0.0,0.0,0.0,0.0,0.0,0.0,0.0,0.0,0.0,0.0,0.0,0.0,0.0,0.0,0.0,0.0,0.0,0.0,0.0,0.0,0.0,0.0,-2.635,-2.6167,0.0,0.0,0.0,0.0,0.0,0.0,0.0,0.0,0.0,0.0,0.0,0.0,0.0,-2.749,-2.759,-2.759,-2.7623,-2.7756,-2.8572,-2.8859,-2.8682,-2.9392,-2.9528,-2.9193,-2.9285,0.0,-2.7656,-2.7973,0.0,0.0,0.0,0.0,0.0,0.0,0.0,0.0,0.0,0.0,0.0,0.0,0.0,0.0,0.0,0.0,0.0,0.0,0.0,0.0,0.0,-2.5244,-2.5244,-2.5328,-2.5508,-2.5605,-2.5702,-2.5839,0.0,0.0,0.0,-2.6989,-2.734,-2.7973,-2.8314,-2.8312,-2.8229,-2.8233,-2.8287,-2.8216,-2.7954,-2.749,-2.7616,-2.7703,-2.7769,-2.7868,0.0,0.0,0.0,0.0,0.0,0.0,0.0,0.0,0.0,0.0,0.0,0.0,0.0,0.0,0.0,0.0,0.0,0.0,0.0,0.0,0.0,0.0,0.0,0.0,0.0,0.0,0.0,0.0,0.0,0.0,0.0,0.0,0.0,0.0,0.0,0.0,0.0,0.0,0.0,-2.6527,-2.6336,-2.6129,-2.6427,-2.6871,0.0,0.0,0.0,0.0,0.0,0.0,0.0,0.0,0.0,-2.8324,-2.8381,-2.8516,-2.8676,-2.8676,-2.8778,-2.8983,-2.9421,-2.9438,-2.9153,-2.9508,-2.9438,-2.9048,-2.9048,-2.8798,-2.8387,-2.8936,-2.943,-2.9863,0.0,0.0,0.0,0.0,-3.0895,-3.0863,0.0,0.0,0.0,0.0,0.0,0.0,0.0,0.0,0.0,0.0,0.0,0.0,-2.5146,-2.5061,-2.5033,-2.5146,-2.5313,-2.5481,-2.5564,-2.5896,0.0,0.0,-2.7058,-2.7437,-2.7928,-2.8454,-2.8813,-2.9004,-2.8748,-2.8476,-2.8235,-2.8099,-2.7769,-2.7289,-2.7121,-2.7201,-2.7369,-2.7523,-2.7776,-2.8105,0.0,0.0,0.0,0.0,0.0,0.0,0.0,0.0,0.0,0.0,0.0,0.0,0.0,0.0,0.0,0.0,0.0,0.0,0.0,0.0,0.0,0.0,0.0,0.0,0.0,0.0,0.0,0.0,0.0,0.0,0.0,0.0,0.0,0.0,0.0,0.0,0.0,-2.6508,-2.6245,-2.6015,-2.6371,-2.6837,0.0,0.0,0.0,0.0,0.0,0.0,-2.8625,-2.8871,-2.8953,-2.8842,-2.9145,-2.9416,-2.9579,-2.9649,-2.9776,-3.0033,-3.0398,-3.0418,-3.0113,-3.0453,-3.0392,-3.0051,-2.9835,-2.9842,-2.9984,-2.9962,-3.0179,-3.0603,-3.0956,-3.1285,-3.1485,-3.1485,-3.1485,-3.1485,0.0,0.0,0.0,0.0,0.0,0.0,0.0,0.0,0.0,0.0,0.0,-2.5146,-2.5033,-2.5005,-2.5005,-2.5005,-2.5146,-2.523,-2.523,-2.6077,-2.658,-2.6608,-2.7724,-2.8351,-2.8379,-2.8632,-2.8785,-2.8812,-2.8651,-2.8438,-2.8112,-2.7901,-2.7423,-2.6714,-2.653,-2.6645,-2.7024,-2.7045,-2.7248,-2.7523,-2.7556,0.0,0.0,0.0,0.0,0.0,0.0,0.0,0.0,0.0,0.0,0.0,0.0,0.0,0.0,0.0,0.0,0.0,0.0,0.0,0.0,0.0,0.0,0.0,0.0,0.0,0.0,0.0,0.0,0.0,0.0,0.0,0.0,0.0,0.0,0.0,0.0,0.0,0.0,-2.6236,-2.6807,0.0,0.0,0.0,0.0,-2.8871,-2.9252,-2.9465,-2.943,-2.935,-2.9271,-2.9271,-2.9306,-2.939,-2.9579,-2.9728,-2.9992,-3.0378,-3.1744,-3.2376,-3.2367,-3.3516,-3.3908,-3.3691,-3.2909,-3.2592,-3.2458,-3.0383,-2.9888,-3.0433,-3.0759,-3.1157,-3.1485,-3.1485,-3.1485,-3.1485,0.0,0.0,0.0,0.0,0.0,0.0,0.0,0.0,-2.5536,-2.5494,-2.5244,-2.5061,-2.5005,-2.5005,-2.5005,-2.5005,-2.5118,-2.5352,-2.5749,-2.6284,-2.6913,-2.7601,-2.8107,-2.8524,-2.8848,-2.883,-2.8748,-2.8651,-2.8509,-2.8259,-2.8025,-2.7957,-2.7655,-2.7171,-2.7087,-2.6991,-2.6869,-2.6706,-2.702,-2.7692,-2.7533,-2.7946,0.0,0.0,0.0,0.0,0.0,0.0,0.0,0.0,0.0,0.0,0.0,0.0,0.0,0.0,0.0,0.0,0.0,0.0,0.0,0.0,0.0,0.0,0.0,0.0,0.0,0.0,0.0,0.0,0.0,0.0,0.0,0.0,0.0,0.0,0.0,0.0,0.0,-2.6806,-2.747,0.0,-2.7969,-2.869,-2.9205,-2.9283,-2.9586,-2.9754,-2.9754,-3.017,-3.0579,-3.0966,-3.1485,-3.2021,-3.2634,-3.2657,-3.2841,-3.3111,-3.3624,-3.3794,-3.3659,-3.4084,-3.4175,-3.3971,-3.3691,-3.3558,-3.3504,-3.284,-3.2173,-3.1567,-3.1787,-3.2033,-3.2291,-3.2291,-3.2361,-3.2465,0.0,0.0,0.0,0.0,0.0,0.0,0.0,0.0,-2.5494,-2.5494,-2.5216,-2.5005,-2.5005,-2.5005,-2.5005,-2.5005,-2.5267,-2.561,-2.6005,-2.6665,-2.7361,-2.8054,-2.8367,-2.8671,-2.894,-2.8812,-2.876,-2.8787,-2.861,-2.8424,-2.8311,-2.8087,-2.7744,-2.7286,-2.7186,-2.6925,-2.6625,-2.642,-2.6861,-2.7672,-2.7586,-2.801,-2.8669,0.0,0.0,0.0,0.0,0.0,0.0,0.0,0.0,0.0,0.0,0.0,0.0,0.0,0.0,0.0,0.0,0.0,0.0,0.0,0.0,0.0,0.0,0.0,0.0,0.0,0.0,0.0,0.0,0.0,0.0,0.0,0.0,0.0,0.0,0.0,-2.8232,-2.7462,-2.81,-2.8569,-2.846,-2.9109,-2.9643,-2.9879,-3.0512,-3.0931,-3.1003,-3.1699,-3.2308,-3.2701,-3.3295,-3.3841,-3.4403,-3.4403,-3.4517,-3.4705,-3.4913,-3.4972,-3.4896,-3.5103,-3.5124,-3.4994,-3.4712,-3.4591,-3.4501,-3.4372,-3.3711,-3.2789,-3.2828,-3.2789,-3.2704,-3.2704,-3.2846,-3.3023,0.0,0.0,0.0,0.0,0.0,0.0,0.0,-2.5674,-2.5494,-2.5494,-2.5216,-2.5005,-2.5005,-2.5005,-2.5005,-2.5032,-2.5561,-2.5914,-2.5941,-2.7179,-2.7913,-2.794,-2.8484,-2.8716,-2.8587,-2.8614,-2.8801,-2.9181,-2.9005,-2.8886,-2.8882,-2.8279,-2.7693,-2.7111,-2.6759,-2.6505,-2.6353,-2.6353,-2.6759,-2.7421,-2.7619,-2.817,-2.8882,0.0,0.0,0.0,0.0,0.0,0.0,0.0,0.0,0.0,0.0,0.0,0.0,0.0,0.0,0.0,0.0,0.0,0.0,0.0,0.0,0.0,0.0,0.0,0.0,0.0,0.0,0.0,0.0,0.0,0.0,0.0,0.0,0.0,-2.9319,-2.9274,-2.9038,-2.8244,-2.8669,-2.896,-2.8767,-2.9606,-3.0332,-3.077,-3.2058,-3.2941,-3.3129,-3.3899,-3.4327,-3.4355,-3.453,-3.4671,-3.4713,-3.4713,-3.4802,-3.5055,-3.5603,-3.5997,-3.6216,-3.6768,-3.7049,-3.7007,-3.6263,-3.5767,-3.5532,-3.4733,-3.4244,-3.3946,-3.3771,-3.3297,-3.2723,-3.2723,-3.2866,-3.3093,0.0,0.0,0.0,0.0,0.0,0.0,0.0,-2.5757,-2.5661,-2.5661,-2.5481,-2.5313,-2.5174,-2.5146,-2.5295,-2.5615,-2.5792,-2.6267,-2.7149,-2.7643,-2.8118,-2.8538,-2.862,-2.8651,-2.8587,-2.9021,-2.914,-2.8979,-2.9082,-2.8967,-2.8687,-2.8149,-2.7746,-2.7411,-2.7292,-2.7144,-2.6967,-2.6967,-2.7155,-2.7459,-2.7515,-2.8089,-2.8872,0.0,0.0,0.0,0.0,0.0,0.0,0.0,0.0,0.0,0.0,0.0,0.0,0.0,0.0,0.0,0.0,0.0,0.0,0.0,0.0,0.0,0.0,0.0,0.0,0.0,0.0,0.0,0.0,0.0,0.0,0.0,0.0,-3.1061,-2.979,-3.0042,-2.9971,-2.9021,-2.9576,-3.0023,-3.0087,-3.088,-3.1713,-3.2541,-3.3384,-3.3967,-3.4193,-3.4533,-3.495,-3.5381,-3.5585,-3.6095,-3.6976,-3.6976,-3.7254,-3.781,-3.7978,-3.8102,-3.8143,-3.8311,-3.8396,-3.8382,-3.8132,-3.7901,-3.7643,-3.6964,-3.6227,-3.5405,-3.4263,-3.3745,-3.3557,-3.3557,-3.3833,-3.4219,0.0,0.0,0.0,0.0,0.0,0.0,0.0,-2.5716,-2.5578,-2.5508,-2.5383,-2.5257,-2.5118,-2.5118,-2.5293,-2.5729,-2.5999,-2.6523,-2.7431,-2.7845,-2.8257,-2.8702,-2.8651,-2.8709,-2.8953,-2.9339,-2.9558,-2.9643,-2.9587,-2.9342,-2.8908,-2.838,-2.7921,-2.7522,-2.7412,-2.7301,-2.719,-2.719,-2.7342,-2.7504,-2.7696,-2.8266,-2.9011,-2.9063,-2.916,-2.9234,-2.9234,-2.9068,-2.8864,-2.895,0.0,0.0,0.0,0.0,0.0,0.0,0.0,0.0,0.0,0.0,0.0,0.0,0.0,0.0,0.0,0.0,0.0,0.0,0.0,0.0,0.0,0.0,0.0,0.0,-3.1974,-3.1802,-3.1141,-3.101,-3.0777,-3.0227,-3.0586,-3.101,-3.1311,-3.1941,-3.2709,-3.3493,-3.4342,-3.4903,-3.5093,-3.5694,-3.6139,-3.6408,-3.687,-3.7424,-3.8137,-3.8259,-3.8496,-3.8902,-3.8902,-3.8902,-3.8902,-3.8902,-3.8902,-3.8902,-3.8902,-3.8697,-3.8339,-3.8005,-3.7414,0.0,0.0,0.0,0.0,0.0,-3.4303,-3.4469,0.0,0.0,0.0,0.0,0.0,0.0,0.0,-2.5592,-2.5453,-2.5272,-2.5118,-2.5033,-2.5005,-2.5031,-2.5229,-2.5617,-2.6206,-2.6747,-2.7203,-2.7857,-2.83,-2.8457,-2.849,-2.8774,-2.9402,-2.947,-2.9881,-3.0618,-3.0262,-2.9831,-2.9302,-2.8697,-2.8099,-2.7441,-2.726,-2.719,-2.719,-2.719,-2.7301,-2.7522,-2.7978,-2.8538,-2.9131,-2.9624,-2.9934,-3.0113,-3.0113,-2.9783,-2.9339,-2.9513,0.0,0.0,0.0,0.0,0.0,0.0,0.0,0.0,0.0,0.0,0.0,0.0,0.0,0.0,0.0,0.0,0.0,0.0,0.0,0.0,0.0,0.0,0.0,0.0,-3.2395,-3.2481,-3.2928,-3.2214,-3.1617,-3.1656,-3.1643,-3.1863,-3.2499,-3.2896,-3.3408,-3.4151,-3.5109,-3.5778,-3.6069,0.0,0.0,0.0,0.0,-3.8519,-3.8588,-3.8891,-3.9057,-3.9113,-3.9113,-3.9113,-3.9113,-3.9113,-3.9113,-3.9113,-3.9113,-3.8865,-3.8435,-3.8366,-3.8046,-3.7463,-3.6232,-3.5308,-3.4739,-3.492,-3.4829,-3.4648,0.0,0.0,0.0,0.0,0.0,0.0,0.0,-2.5674,-2.5605,-2.5453,-2.5272,-2.5118,-2.5005,-2.5295,-2.5601,-2.5902,-2.6466,-2.6997,-2.7393,-2.7571,-2.7656,-2.7689,-2.7689,-2.8079,-2.8843,-2.9281,-2.9737,-3.0197,-3.0084,-2.9628,-2.891,-2.8311,-2.776,-2.726,-2.7231,-2.719,-2.719,-2.719,-2.7231,-2.7301,-2.776,-2.8311,-2.8922,-2.9546,-2.9934,-3.0113,-3.0292,-3.0152,-2.9948,-2.9948,-3.0037,-3.0123,-3.0123,-3.0386,0.0,0.0,0.0,0.0,0.0,0.0,0.0,0.0,0.0,0.0,0.0,0.0,0.0,0.0,0.0,0.0,0.0,0.0,0.0,-3.3088,-3.3184,-3.3426,-3.4142,-3.3826,-3.3304,-3.2843,-3.2607,-3.2777,-3.3554,-3.3687,-3.4393,-3.5967,-3.6429,-3.6961,-3.7689,-3.7938,-3.8076,-3.8021,-3.8339,-3.8727,-3.9214,-3.948,-3.9859,-4.0336,0.0,0.0,-4.0336,-4.0336,-4.0336,-4.0336,-4.0336,-4.0194,-3.9952,-3.9437,-3.8768,-3.8034,-3.7593,-3.7346,-3.725,-3.7414,-3.7318,-3.7126,0.0,0.0,0.0,0.0,0.0,0.0,0.0,-2.5453,-2.537,-2.5173,-2.492,-2.4736,-2.465,-2.4922,-2.5249,-2.5608,-2.6193,-2.6665,-2.6926,-2.6858,-2.6892,-2.7095,-2.7095,-2.7541,-2.8524,-2.8866,-2.9365,-3.0058,-2.9821,-2.9341,-2.8657,-2.8122,-2.7638,-2.719,-2.719,-2.719,-2.719,-2.719,-2.719,-2.7231,-2.7719,-2.8191,-2.8697,-2.926,-2.9728,-3.0113,-3.0113,-3.0152,-3.0228,-3.0113,-3.0305,-3.0533,-3.0533,-3.0761,-3.0986,0.0,0.0,0.0,0.0,0.0,0.0,0.0,0.0,0.0,0.0,0.0,0.0,0.0,0.0,-3.2418,0.0,0.0,-3.3065,-3.3853,-3.3987,-3.4245,-3.4951,-3.4881,-3.4535,-3.4003,-3.3648,-3.3913,-3.5007,-3.5236,-3.5844,-3.7165,-3.7441,-3.7689,-3.7992,-3.8266,-3.8402,-3.8317,-3.8904,-3.9421,-3.9683,-4.0068,-4.0393,-4.0702,-4.0702,-4.0702,-4.0702,-4.0702,-4.0702,-4.0702,-4.0587,-4.0414,-4.0126,-3.9491,-3.8958,-3.8526,-3.8323,-3.8086,-3.7838,-3.7964,-3.7838,-3.7683,0.0,0.0,0.0,0.0,0.0,0.0,0.0,-2.5174,-2.5061,-2.4835,-2.445,-2.4176,-2.4147,-2.4417,-2.479,-2.5306,-2.5777,-2.6082,-2.6173,-2.6022,-2.6092,-2.6389,-2.6436,-2.6964,-2.8132,-2.8254,-2.8797,-2.9767,-2.9419,-2.8922,-2.8391,-2.8002,-2.7598,-2.719,-2.719,-2.719,-2.719,-2.719,-2.719,-2.7231,-2.7626,-2.807,-2.855,-2.8934,-2.9521,-3.0152,-2.9972,-3.0152,-3.0444,-3.0228,-3.0381,-3.0698,-3.0698,-3.0849,-3.0986,-3.0986,-3.0986,0.0,0.0,0.0,0.0,0.0,0.0,0.0,0.0,0.0,-3.2173,-3.2295,-3.2345,-3.2608,-3.3416,-3.3563,-3.383,-3.4699,-3.4833,-3.5055,-3.569,-3.5845,-3.5758,-3.5405,-3.4981,-3.5251,-3.6549,-3.685,-3.7234,-3.8031,-3.8198,-3.8253,-3.8082,-3.8617,-3.8817,-3.8643,-3.9587,-4.0097,-4.0097,-4.0443,-4.0616,-4.0616,-4.0573,-4.0573,-4.0573,-4.0573,-4.053,-4.0473,-4.0284,-4.0023,-3.9733,-3.9087,-3.8774,-3.8684,-3.844,-3.8122,-3.777,-3.7912,-3.7853,-3.7709,0.0,0.0,0.0,0.0,0.0,0.0,0.0,0.0,-2.4977,-2.4806,-2.4261,-2.378,-2.3531,-2.4098,-2.4793,-2.5512,-2.5451,-2.5418,-2.5406,-2.5406,-2.5406,-2.5441,-2.5453,-2.6056,-2.7323,-2.7347,-2.7873,-2.891,-2.8697,-2.8391,-2.7962,-2.7696,-2.7412,-2.719,-2.719,-2.719,-2.719,-2.719,-2.719,-2.7231,-2.7452,-2.7938,-2.855,-2.8934,-2.9638,-3.0368,-3.033,-3.0495,-3.066,-3.0444,-3.0533,-3.0698,-3.0698,-3.0849,-3.0986,-3.0986,0.0,-3.0949,-3.0773,-3.0609,0.0,-3.0949,-3.1061,-3.1174,0.0,0.0,-3.2075,-3.2637,-3.2881,-3.3258,-3.4046,-3.4193,-3.4537,-3.5527,-3.5662,-3.5948,-3.6718,-3.7147,-3.7336,-3.7282,-3.6919,-3.703,-3.7896,-3.784,-3.8016,-3.8661,-3.8702,-3.8849,-3.9119,-3.9417,-3.959,-3.9546,-4.0097,-4.0356,-4.0356,-4.0399,-4.0442,-4.0442,-4.0184,-4.0083,-4.0083,-4.0083,-3.9938,-3.9692,-3.9513,-3.9292,-3.8997,-3.8724,-3.8349,-3.79,-3.7684,-3.7573,-3.7625,-3.8254,-3.8492,-3.8492,0.0,0.0,0.0,0.0,0.0,0.0,0.0,0.0,0.0,-2.4536,-2.3868,-2.3318,-2.3138,-2.3592,-2.4083,-2.447,-2.4685,-2.4838,-2.4838,-2.4718,-2.4718,-2.4838,-2.4838,-2.5216,-2.6071,-2.6492,-2.7043,-2.7821,-2.7893,-2.7817,-2.7655,-2.7412,-2.726,-2.719,-2.719,-2.719,-2.719,-2.719,-2.719,-2.7231,-2.7586,-2.803,-2.855,-2.9079,-2.9741,-3.0406,-3.0406,-3.0596,0.0,-3.0647,-3.0723,-3.0874,-3.0874,-3.0911,-3.0986,-3.0986,-3.0986,0.0,-3.0609,0.0,0.0,0.0,-3.0761,-3.1003,-3.1708,-3.2177,-3.2562,-3.3154,-3.3542,-3.406,-3.4854,-3.5103,-3.5464,0.0,-3.6483,-3.662,-3.695,-3.7433,-3.7926,-3.829,-3.8504,-3.87,-3.895,-3.8894,-3.9059,-3.9695,-3.9737,-3.9704,-3.9733,-3.9791,-3.9818,-3.97,-3.998,-4.0023,-3.976,-3.9878,-3.9878,-3.976,-3.9659,-3.9601,-3.9601,-3.9411,-3.9131,-3.8774,-3.8697,-3.8427,-3.805,-3.7848,-3.742,-3.693,-3.6709,-3.6615,-3.6756,-3.7651,-3.8018,-3.8154,0.0,0.0,0.0,0.0,0.0,0.0,0.0,0.0,0.0,0.0,-2.3573,-2.3007,-2.28,-2.2946,-2.3194,-2.3572,-2.3989,-2.4267,-2.4406,-2.4273,-2.4273,-2.4418,-2.4418,-2.4661,-2.5196,-2.5669,-2.6258,-2.6913,-2.7127,-2.7302,-2.7412,-2.726,-2.719,-2.719,-2.719,-2.719,-2.719,-2.719,-2.719,-2.7231,-2.7638,-2.803,-2.8498,-2.9157,-2.978,-3.033,-3.0368,-3.0672,-3.0986,-3.0773,-3.0849,-3.0986,-3.0986,-3.0986,-3.0986,-3.0986,-3.0949,-3.0836,-3.0558,0.0,0.0,-3.0663,-3.079,-3.1175,-3.2133,-3.265,-3.3091,-3.372,-3.4242,-3.4805,-3.5604,-3.5909,-3.6241,-3.6908,-3.6978,-3.7049,-3.7203,-3.7779,-3.8397,-3.9085,-3.9662,-3.9999,-3.9858,-3.9816,-3.9983,-4.0371,-4.0399,-4.0255,-3.9922,-3.9966,-3.9878,-3.9598,-3.9955,-3.9936,-3.9522,-3.9611,-3.9553,-3.9312,-3.9105,-3.898,-3.889,-3.8549,-3.8187,-3.7789,-3.7743,-3.7466,-3.7083,-3.6862,-3.6487,-3.6001,-3.5823,-3.5775,-3.587,-3.6615,-3.7083,-3.7394,0.0,0.0,0.0,0.0,0.0,0.0,0.0,0.0,0.0,0.0,0.0,0.0,0.0,-2.2157,-2.2352,-2.3316,-2.3419,-2.3637,-2.4166,-2.42,-2.42,-2.42,-2.42,-2.4418,-2.49,-2.4923,-2.5478,-2.6501,-2.6524,-2.6737,-2.7231,-2.719,-2.719,-2.719,-2.719,-2.719,-2.719,-2.719,-2.719,-2.7231,-2.7452,-2.7805,-2.8299,-2.9106,-2.9703,-3.0113,-3.033,-3.0672,-3.0986,-3.0773,-3.0849,-3.0986,-3.0986,-3.0986,0.0,-3.0986,-3.0836,-3.0698,0.0,0.0,-3.0573,-3.1306,-3.1474,-3.1734,-3.2751,-3.3118,-3.3525,-3.4324,-3.4828,-3.5425,-3.6227,-3.6536,-3.6719,-3.694,-3.6978,-3.7189,-3.7793,-3.8466,-3.9113,-3.9676,-4.0308,-4.0674,0.0,-4.0674,-4.0602,-4.0399,-4.0399,-4.0182,-3.9744,-3.9878,-3.9777,-3.9349,-4.0072,-4.0359,-4.0074,-3.9873,-3.9645,-3.9388,-3.8614,-3.8109,-3.7808,-3.7374,-3.7002,-3.6709,-3.6546,-3.631,-3.6061,-3.6061,-3.574,-3.5223,-3.5223,-3.5223,-3.5223,-3.5271,-3.5787,-3.6452,0.0,0.0,0.0,0.0,0.0,0.0,0.0,0.0,0.0,0.0,0.0,0.0,0.0,0.0,0.0,0.0,-2.3212,-2.3625,-2.4166,-2.42,-2.42,-2.42,-2.42,-2.4269,-2.443,-2.4751,-2.5084,-2.544,-2.6168,-2.6593,-2.6726,-2.707,-2.719,-2.719,-2.719,-2.719,-2.719,-2.719,-2.719,-2.7231,-2.74,-2.7765,-2.8247,-2.8961,-2.956,-3.0152,0.0,-3.0874,-3.1024,-3.1099,-3.1061,-3.0986,-3.0986,-3.0986,-3.0986,-3.0986,-3.0949,-3.0874,0.0,0.0,-3.119,-3.1448,-3.1902,-3.2502,-3.3383,-3.386,-3.4338,-3.5143,-3.5678,-3.6117,-3.6522,-3.6772,-3.6915,-3.6978,-3.6978,-3.7203,-3.7821,-3.8454,-3.9127,-3.9718,-4.0322,0.0,0.0,0.0,0.0,-4.0399,-4.0399,-4.0168,-3.9675,-3.9895,-3.983,-3.9363,-3.9774,-3.9847,-3.9423,-3.9388,-3.9211,-3.8999,-3.8179,-3.7373,-3.6615,-3.6439,-3.6203,-3.5991,-3.5895,-3.5704,-3.5452,-3.5452,-3.5271,-3.492,-3.492,-3.492,-3.492,-3.492,-3.5126,-3.5404,0.0,0.0,0.0,0.0,0.0,0.0,0.0,0.0,0.0,0.0,0.0,0.0,0.0,0.0,0.0,0.0,0.0,-2.3385,-2.389,-2.4097,-2.42,-2.42,-2.42,-2.42,-2.42,-2.4499,-2.474,-2.4912,-2.5589,-2.6106,-2.6513,-2.6806,-2.7059,-2.719,-2.719,-2.719,-2.719,-2.719,-2.719,-2.7231,-2.733,-2.7615,-2.8007,-2.8657,-2.9287,0.0,-3.0723,-3.1061,-3.1123,-3.1272,-3.1161,-3.0986,-3.0986,-3.0986,-3.0986,-3.0986,-3.0986,-3.0986,-3.0849,-3.1214,-3.1669,-3.1954,-3.2607,-3.3356,-3.4232,-3.4674,-3.5102,-3.5736,-3.6192,-3.6563,-3.6682,-3.685,-3.6978,-3.6978,-3.6978,-3.7274,-3.8131,-3.8649,-3.9211,-4.0013,-4.0449,-4.0659,0.0,0.0,0.0,-4.0255,-4.0274,-4.0062,-3.9576,-3.9736,-3.9641,-3.9173,-3.9534,-3.9544,-3.9131,-3.9216,-3.9028,-3.8519,-3.7705,-3.6853,-3.5963,-3.5826,-3.5548,-3.532,-3.532,-3.5223,-3.5078,-3.5078,-3.4981,-3.4775,-3.4775,-3.4775,-3.4775,-3.4775,-3.4775,-3.4823,0.0,0.0,0.0,0.0,0.0,0.0,0.0,0.0,0.0,0.0,0.0,0.0,0.0,0.0,0.0,0.0,0.0,0.0,-2.3373,-2.3913,-2.42,-2.42,-2.42,-2.42,-2.42,-2.42,-2.4418,-2.4877,-2.49,-2.5417,-2.6421,-2.6455,-2.6691,-2.711,-2.7133,-2.7144,-2.7156,-2.7179,-2.719,-2.719,-2.719,-2.7342,-2.7563,-2.8219,-2.8882,-2.9535,-3.0596,-3.1099,-3.1272,-3.131,0.0,0.0,0.0,-3.0986,-3.0986,-3.0986,-3.0986,-3.0999,-3.1013,-3.1444,-3.2058,-3.2856,-3.3542,-3.4245,-3.5197,-3.5562,-3.5804,-3.6072,-3.6445,-3.6721,0.0,0.0,-3.6978,-3.6978,-3.6978,-3.7428,-3.8733,-3.8902,-3.9325,0.0,0.0,0.0,0.0,0.0,0.0,-3.9906,0.0,-3.9809,-3.9336,-3.9328,-3.9139,-3.8692,-3.9277,-3.9434,-3.9196,-3.9421,-3.9042,-3.799,-3.7219,-3.6554,-3.5952,-3.5442,-3.5054,-3.4775,-3.4775,-3.4775,-3.4775,-3.4775,-3.4775,-3.4775,-3.4775,-3.4775,-3.4775,-3.4775,-3.4775,-3.4775,0.0,0.0,0.0,0.0,0.0,0.0,0.0,0.0,0.0,0.0,0.0,0.0,0.0,0.0,0.0,0.0,0.0,0.0,-2.3373,-2.3913,-2.42,-2.42,-2.42,-2.42,-2.42,-2.42,-2.4258,-2.4372,-2.474,-2.505,-2.5325,-2.5716,-2.598,-2.6117,-2.6496,-2.6657,-2.6691,-2.707,-2.719,-2.719,-2.719,-2.7342,-2.7563,-2.8099,-2.8764,-2.9496,-3.0292,-3.0785,0.0,0.0,0.0,0.0,0.0,-3.0986,-3.0986,-3.0986,-3.0986,-3.1078,-3.1509,-3.2109,-3.2843,-3.3516,-3.4352,-3.513,-3.5521,-3.5817,-3.6112,-3.6484,-3.6642,-3.6747,0.0,0.0,0.0,-3.6978,-3.6978,0.0,-3.8733,-3.8902,0.0,-4.0375,0.0,-4.0284,-3.9851,-3.9441,0.0,0.0,-3.9164,-3.8978,-3.8321,-3.8717,-3.8818,-3.8492,-3.8812,-3.8995,-3.8891,-3.8995,-3.8555,-3.7719,-3.747,-3.6779,-3.5716,-3.5584,-3.5245,-3.4775,-3.4775,-3.4775,-3.4775,-3.4775,-3.4775,-3.4775,-3.4775,-3.4775,-3.4775,-3.4775,-3.4775,-3.4775,0.0,0.0,0.0,0.0,0.0,0.0,0.0,0.0,0.0,0.0,0.0,0.0,0.0,0.0,0.0,0.0,0.0,0.0,0.0,-2.358,-2.3959,-2.4189,-2.42,-2.42,-2.42,-2.42,-2.42,-2.42,-2.4464,-2.4705,-2.4923,-2.5222,-2.5486,-2.5727,-2.6003,-2.6129,-2.6163,-2.668,-2.6898,0.0,0.0,-2.7094,-2.7389,-2.7639,-2.8321,-2.9223,-2.9973,0.0,0.0,0.0,0.0,-3.0986,-3.0986,-3.0986,-3.0986,-3.0986,0.0,-3.1155,-3.1807,-3.2488,-3.3186,-3.398,-3.4808,-3.548,-3.5804,-3.6072,-3.6325,-3.6642,-3.6786,0.0,0.0,0.0,0.0,0.0,0.0,0.0,-3.8299,-3.8597,-3.9019,0.0,-3.9871,0.0,-3.9189,-3.8581,-3.8228,0.0,-3.848,-3.8512,-3.8148,-3.8427,-3.8541,-3.8386,-3.8524,-3.8684,-3.8788,-3.8788,-3.8524,-3.7959,-3.7728,-3.7027,-3.5954,-3.5725,-3.5328,-3.4775,0.0,-3.4775,-3.4775,-3.4775,-3.4775,-3.4775,-3.4775,-3.4775,-3.4775,-3.4775,-3.4775,-3.4775,0.0,0.0,0.0,0.0,0.0,0.0,0.0,0.0,0.0,0.0,0.0,0.0,0.0,0.0,0.0,0.0,0.0,0.0,0.0,0.0,-2.3638,-2.4074,-2.4154,-2.42,-2.42,-2.42,-2.42,-2.42,-2.42,-2.4407,-2.482,-2.482,-2.5073,-2.552,-2.5578,-2.5601,-2.5647,-2.6152,-2.6409,-2.6409,-2.6409,-2.6634,-2.7019,0.0,-2.7714,0.0,0.0,0.0,0.0,0.0,-3.1522,-3.1061,-3.1061,-3.1061,-3.1061,-3.1061,-3.1061,-3.1243,-3.2104,-3.2709,-3.3356,-3.4392,-3.5063,-3.5616,-3.6072,-3.6325,-3.6524,-3.6707,0.0,-3.6978,-3.6978,0.0,-3.6978,-3.6978,0.0,-3.7203,-3.7821,-3.8251,-3.863,-3.893,-3.9101,-3.898,-3.8453,-3.7717,-3.7326,-3.7465,-3.786,-3.8141,-3.8273,-3.8338,-3.8356,-3.8356,-3.8356,-3.8473,-3.8684,-3.8684,-3.8579,-3.8356,-3.7894,-3.7194,-3.6386,-3.593,-3.5388,-3.4775,-3.4775,-3.4775,-3.4775,-3.4775,-3.4775,-3.4775,-3.4775,-3.4775,-3.4775,-3.4775,-3.4775,-3.4775,0.0,0.0,0.0,0.0,0.0,0.0,0.0,0.0,0.0,0.0,-2.1285,0.0,0.0,0.0,0.0,0.0,0.0,0.0,0.0,0.0,0.0,-2.3533,-2.3971,-2.42,-2.42,-2.42,-2.42,-2.42,-2.42,-2.4235,-2.4315,-2.4315,-2.4372,-2.4476,-2.4877,-2.505,-2.5084,-2.5624,-2.5842,-2.5842,-2.5842,-2.5899,-2.6007,-2.6317,0.0,0.0,0.0,0.0,0.0,0.0,-3.1559,-3.1498,-3.1498,-3.1498,-3.1498,-3.1498,-3.1498,-3.171,-3.2836,-3.335,-3.3893,-3.5169,-3.5736,-3.6072,-3.6524,-3.6642,0.0,0.0,0.0,-3.6978,-3.6978,-3.6978,0.0,-3.6978,0.0,0.0,0.0,0.0,-3.8491,0.0,0.0,0.0,0.0,0.0,0.0,0.0,0.0,-3.725,-3.7697,-3.796,-3.8092,-3.8092,-3.8092,-3.8092,-3.8145,-3.8145,-3.8145,-3.8092,-3.7995,-3.7389,-3.6411,-3.6314,-3.5749,-3.4775,-3.4775,0.0,-3.4775,-3.4775,-3.4775,-3.4775,-3.4775,-3.4775,-3.4775,-3.4775,-3.4775,-3.4775,0.0,0.0,0.0,0.0,0.0,0.0,0.0,0.0,0.0,0.0,-2.1336,-2.1273,0.0,0.0,0.0,0.0,0.0,0.0,0.0,0.0,0.0,0.0,0.0,0.0,0.0,-2.4099,0.0,0.0,0.0,0.0,0.0,0.0,0.0,0.0,0.0,-2.4545,-2.4579,-2.5084,-2.5302,-2.5302,-2.5302,-2.5463,0.0,0.0,0.0,0.0,0.0,0.0,0.0,0.0,-3.2009,-3.1986,-3.1669,-3.1609,-3.1609,-3.1609,-3.1609,-3.1833,-3.2787,-3.3357,-3.397,-3.5138,-3.576,-3.6206,-3.6603,0.0,0.0,0.0,0.0,-3.6978,-3.6978,0.0,0.0,0.0,0.0,0.0,0.0,0.0,0.0,0.0,0.0,0.0,0.0,0.0,0.0,0.0,0.0,-3.6964,-3.7774,-3.7947,-3.7986,-3.7986,-3.7986,-3.7986,-3.7986,-3.7986,-3.7986,-3.7986,-3.7709,-3.7168,-3.6398,-3.6122,-3.5569,-3.4775,-3.4775,-3.4775,-3.4775,-3.4775,-3.4775,-3.4775,-3.4775,-3.4775,-3.4775,-3.4775,-3.4775,-3.4775,0.0,0.0,0.0,0.0,0.0,0.0,0.0,-2.1925,-2.18,-2.1526,-2.1494,-2.1411,-2.1328,-2.1411,0.0,0.0,0.0,0.0,0.0,0.0,0.0,0.0,0.0,0.0,0.0,0.0,0.0,0.0,0.0,0.0,0.0,0.0,0.0,0.0,0.0,0.0,0.0,-2.4602,-2.4763,0.0,0.0,0.0,0.0,0.0,0.0,0.0,0.0,0.0,0.0,0.0,-3.2343,-3.2381,-3.1986,-3.1817,-3.178,-3.1743,-3.1743,-3.1937,-3.2678,-3.3347,-3.4057,-3.5018,-3.5753,-3.6312,-3.6668,-3.6747,0.0,0.0,-3.6978,-3.6978,-3.6978,0.0,0.0,0.0,0.0,0.0,0.0,0.0,0.0,0.0,0.0,0.0,0.0,0.0,0.0,0.0,0.0,0.0,-3.7938,-3.7986,-3.7986,-3.7986,-3.7986,-3.7986,-3.7986,-3.7986,-3.7986,-3.7974,-3.7445,-3.6916,-3.6386,-3.5857,-3.5328,-3.4775,-3.4775,-3.4775,-3.4775,-3.4775,-3.4775,-3.4775,-3.4775,-3.4775,-3.4775,-3.4775,-3.4775,-3.4775,0.0,0.0,0.0,0.0,0.0,0.0,0.0,-2.203,-2.1894,-2.1862,-2.1749,-2.1667,-2.1667,-2.1667,0.0,0.0,0.0,0.0,0.0,0.0,0.0,0.0,0.0,0.0,0.0,0.0,0.0,0.0,0.0,0.0,0.0,0.0,0.0,0.0,0.0,0.0,0.0,0.0,0.0,0.0,0.0,0.0,0.0,0.0,0.0,0.0,0.0,0.0,0.0,0.0,0.0,-3.2668,-3.2596,-3.2453,-3.2322,-3.2169,0.0,0.0,-3.2938,-3.3649,-3.4426,-3.5261,-3.6053,-3.6707,-3.6915,0.0,0.0,-3.6993,-3.6978,-3.6978,-3.6978,-3.6978,-3.6978,0.0,0.0,0.0,0.0,0.0,0.0,0.0,0.0,0.0,0.0,0.0,0.0,0.0,0.0,0.0,-3.795,-3.7986,-3.7986,-3.7986,-3.7986,-3.7986,-3.7986,-3.7986,-3.7986,-3.7974,-3.7445,-3.6916,-3.6386,-3.5857,-3.5328,-3.4775,-3.4775,-3.4775,0.0,-3.4775,-3.4775,-3.4775,-3.4775,-3.4775,-3.4775,-3.4775,-3.4775,-3.4775,0.0,0.0,0.0,0.0,0.0,0.0,0.0,-2.2123,-2.203,-2.1937,-2.1843,-2.1781,-2.1698,-2.1761,-2.1812,0.0,0.0,0.0,0.0,0.0,0.0,0.0,0.0,0.0,0.0,0.0,0.0,0.0,0.0,0.0,0.0,0.0,0.0,0.0,0.0,0.0,0.0,0.0,0.0,0.0,0.0,0.0,0.0,0.0,0.0,0.0,0.0,0.0,0.0,0.0,0.0,0.0,-3.2629,-3.2739,0.0,0.0,-3.2525,-3.2616,-3.2791,-3.3349,-3.4079,-3.4913,-3.5652,-3.63,-3.6869,0.0,0.0,-3.6978,-3.6978,-3.6978,-3.6978,-3.6978,-3.6978,-3.6978,0.0,0.0,0.0,0.0,0.0,0.0,0.0,0.0,0.0,0.0,0.0,0.0,0.0,0.0,-3.7457,-3.7805,-3.7986,-3.7986,-3.7986,-3.7986,-3.7986,-3.7661,-3.7505,-3.7505,-3.6651,-3.6134,-3.5918,-3.5376,-3.4979,-3.4775,-3.4775,-3.4775,0.0,-3.4775,-3.4775,-3.4775,-3.4775,-3.4775,-3.4775,-3.4775,-3.4775,-3.4775,0.0,0.0,0.0,0.0,0.0,0.0,-2.2021,-2.2092,-2.2092,-2.1999,-2.1999,-2.1937,-2.1855,-2.1937,-2.1999,-2.1999,0.0,0.0,0.0,0.0,0.0,0.0,0.0,0.0,0.0,0.0,0.0,-2.3112,0.0,0.0,0.0,0.0,0.0,0.0,0.0,0.0,0.0,0.0,0.0,0.0,0.0,0.0,0.0,0.0,0.0,0.0,0.0,0.0,0.0,0.0,0.0,0.0,0.0,0.0,0.0,0.0,-3.2739,-3.2775,-3.2739,-3.3196,-3.3891,-3.4701,-3.5404,-3.6056,0.0,0.0,-3.6978,-3.6978,-3.6978,-3.6978,-3.6978,-3.6978,-3.6978,-3.6978,0.0,-3.6549,0.0,0.0,0.0,0.0,0.0,0.0,0.0,0.0,0.0,0.0,0.0,0.0,-3.6904,-3.7312,-3.7589,-3.7745,-3.7745,-3.7673,-3.7517,-3.7144,-3.6952,-3.6952,-3.605,-3.5617,-3.5605,-3.5015,-3.4775,-3.4775,-3.4775,-3.4775,0.0,-3.4775,-3.4775,-3.4775,-3.4775,-3.4775,-3.4775,-3.4775,-3.4775,-3.4775,0.0,0.0,0.0,0.0,0.0,0.0,0.0,-2.1894,-2.1956,-2.2154,-2.2197,-2.2197,-2.2185,-2.2197,-2.2197,-2.2197,0.0,0.0,0.0,0.0,0.0,0.0,0.0,0.0,0.0,0.0,-2.245,-2.2879,-2.2774,-2.2939,0.0,0.0,0.0,0.0,0.0,0.0,0.0,0.0,0.0,0.0,0.0,0.0,0.0,0.0,0.0,0.0,0.0,0.0,0.0,0.0,0.0,0.0,0.0,0.0,0.0,0.0,-3.2846,-3.2952,-3.2739,-3.329,-3.4046,-3.4724,-3.5503,-3.6272,0.0,0.0,-3.6978,-3.6978,-3.6978,-3.6978,-3.6978,-3.6978,-3.6978,-3.6978,-3.6811,0.0,0.0,0.0,0.0,0.0,0.0,0.0,0.0,0.0,0.0,0.0,0.0,0.0,-3.6386,-3.6423,-3.6663,-3.718,-3.7204,-3.6952,-3.6423,-3.6411,-3.6411,-3.6411,-3.5869,-3.5617,-3.5605,-3.5015,-3.4775,-3.4775,-3.4775,-3.4775,0.0,-3.4775,-3.4775,-3.4775,-3.4775,-3.4775,-3.4775,-3.4775,-3.4775,-3.4775,0.0,0.0,0.0,0.0,0.0,0.0,0.0,-2.1594,-2.1925,-2.1999,-2.2092,-2.2197,-2.2197,-2.2197,-2.2197,-2.2197,0.0,0.0,0.0,0.0,0.0,0.0,0.0,0.0,0.0,0.0,-2.2813,-2.3022,-2.2911,-2.2842,-2.2844,-2.273,-2.254,0.0,0.0,0.0,0.0,0.0,0.0,0.0,0.0,0.0,0.0,0.0,0.0,0.0,0.0,0.0,0.0,0.0,0.0,0.0,0.0,0.0,0.0,-3.3136,-3.3157,0.0,-3.3122,-3.3311,-3.364,-3.427,-3.4947,-3.5639,-3.6258,-3.6722,-3.6978,-3.6978,-3.6978,-3.6978,-3.6978,-3.6978,-3.6954,-3.6811,-3.6457,0.0,0.0,0.0,0.0,0.0,0.0,0.0,0.0,0.0,0.0,0.0,0.0,0.0,-3.5833,-3.5869,-3.611,-3.6639,-3.6651,-3.6567,-3.6411,-3.605,-3.5869,-3.5857,-3.5328,-3.5027,-3.5076,-3.4859,-3.4775,-3.4775,-3.4775,-3.4775,-3.4775,-3.4775,-3.4775,-3.4775,-3.4775,-3.4775,-3.4775,-3.4775,-3.4775,-3.4775,0.0,0.0,0.0,0.0,0.0,0.0,0.0,-2.1231,-2.1606,-2.187,-2.2092,-2.2197,-2.2197,-2.2197,-2.2197,-2.2197,0.0,0.0,0.0,0.0,0.0,0.0,0.0,0.0,0.0,-2.3215,-2.3335,-2.3484,-2.3395,-2.3215,-2.2975,-2.2848,-2.2604,-2.2278,-2.2636,0.0,0.0,0.0,0.0,0.0,0.0,0.0,-2.6324,0.0,0.0,0.0,0.0,0.0,0.0,0.0,0.0,0.0,0.0,0.0,0.0,0.0,-3.329,-3.329,0.0,-3.329,-3.3431,-3.4048,-3.4688,0.0,0.0,-3.6581,-3.6978,-3.6978,-3.6954,-3.6889,-3.6889,-3.6797,-3.6733,-3.6603,-3.6138,0.0,0.0,0.0,0.0,0.0,0.0,0.0,0.0,0.0,0.0,0.0,0.0,0.0,-3.5304,-3.5316,-3.5473,-3.5797,-3.6002,-3.6014,-3.5809,-3.5485,-3.5316,-3.5267,-3.4943,-3.4775,-3.4775,-3.4775,-3.4775,-3.4775,-3.4775,-3.4775,0.0,-3.4775,-3.4775,-3.4775,-3.4775,-3.4775,-3.4775,-3.4775,-3.4775,-3.4775,0.0,0.0,0.0,0.0,0.0,0.0,0.0,0.0,0.0,0.0,-2.2037,-2.2185,-2.2197,-2.2197,-2.2197,0.0,0.0,0.0,0.0,0.0,0.0,0.0,0.0,0.0,-2.3403,-2.3679,-2.393,-2.4118,-2.4147,-2.3985,-2.3675,-2.3539,-2.33,-2.3,-2.2969,-2.2891,-2.2776,-2.3149,-2.3904,-2.489,-2.5108,-2.5747,0.0,0.0,0.0,0.0,0.0,0.0,0.0,0.0,0.0,0.0,0.0,0.0,0.0,0.0,0.0,0.0,0.0,-3.329,0.0,0.0,0.0,0.0,0.0,-3.6511,0.0,-3.6978,-3.685,-3.6721,-3.6682,-3.6524,-3.6365,-3.6312,-3.5777,0.0,0.0,0.0,0.0,0.0,0.0,0.0,0.0,0.0,0.0,0.0,0.0,0.0,-3.4775,-3.4775,-3.4775,-3.4775,-3.5304,-3.5328,-3.4787,-3.4775,-3.4775,-3.4775,-3.4775,-3.4775,-3.4775,-3.4775,-3.4775,0.0,-3.4775,-3.4775,-3.4775,-3.4775,-3.4775,-3.4775,-3.4775,-3.4775,-3.4775,-3.4775,-3.4775,-3.4775,0.0,0.0,0.0,0.0,0.0,0.0,0.0,0.0,0.0,0.0,0.0,-2.203,-2.2185,-2.2197,0.0,0.0,0.0,0.0,0.0,0.0,0.0,0.0,0.0,0.0,-2.3403,-2.3809,-2.4147,-2.4408,-2.4565,-2.4607,-2.452,-2.4218,-2.3985,-2.3809,-2.3556,-2.336,-2.3291,-2.4035,-2.4765,-2.5454,-2.6025,-2.6791,0.0,0.0,0.0,0.0,-2.9257,-2.9446,0.0,0.0,0.0,0.0,0.0,0.0,0.0,0.0,-3.329,-3.329,-3.329,0.0,-3.3319,-3.3473,-3.3964,-3.4618,0.0,-3.5878,-3.6455,-3.688,0.0,0.0,-3.6524,-3.6258,-3.5924,-3.5494,0.0,0.0,0.0,0.0,0.0,0.0,0.0,0.0,0.0,0.0,0.0,0.0,0.0,-3.4775,-3.4775,-3.4775,-3.4775,-3.4775,-3.4895,-3.4907,-3.4775,-3.4775,-3.4775,-3.4775,-3.4775,-3.4775,-3.4775,-3.4775,-3.4775,-3.4775,-3.4775,-3.4775,-3.4775,-3.4775,-3.4775,-3.4775,-3.4775,-3.4775,-3.4775,-3.4775,-3.4775,-3.4775,0.0,0.0,0.0,0.0,0.0,0.0,0.0,0.0,0.0,0.0,0.0,0.0,0.0,0.0,0.0,0.0,0.0,0.0,0.0,0.0,0.0,0.0,0.0,-2.2921,-2.3403,-2.3985,-2.4436,-2.4736,-2.5048,-2.5118,-2.4977,-2.4793,-2.4622,-2.4392,-2.4131,-2.3956,-2.3953,-2.44,-2.5118,-2.5962,-2.6395,0.0,0.0,0.0,0.0,0.0,-2.9446,-2.9634,0.0,-2.9834,-3.0591,-3.1603,0.0,0.0,0.0,0.0,-3.3431,-3.3431,-3.3326,-3.329,-3.3276,-3.3192,-3.3619,-3.4198,-3.4803,0.0,0.0,0.0,0.0,0.0,0.0,0.0,0.0,0.0,0.0,0.0,0.0,0.0,0.0,0.0,0.0,0.0,0.0,0.0,0.0,0.0,0.0,-3.4775,-3.4775,-3.4775,-3.4775,-3.4775,-3.4775,-3.4775,-3.4775,-3.4775,-3.4775,-3.4775,-3.4775,-3.4775,-3.4775,-3.4775,-3.4775,-3.4775,-3.4775,-3.4775,-3.4775,-3.4775,-3.4775,-3.4775,-3.4775,-3.4775,-3.4775,-3.4775,-3.4775,-3.4775,0.0,0.0,0.0,0.0,0.0,0.0,0.0,0.0,0.0,0.0,0.0,0.0,0.0,0.0,0.0,0.0,0.0,0.0,0.0,0.0,0.0,0.0,0.0,-2.2921,-2.333,-2.4102,-2.4666,-2.5005,-2.5481,-2.5591,-2.5314,-2.5286,-2.5118,-2.4863,-2.4723,-2.4652,-2.4652,-2.4681,-2.5408,-2.6509,-2.659,0.0,0.0,0.0,0.0,0.0,0.0,0.0,0.0,-3.008,-3.0845,-3.1772,-3.195,0.0,0.0,0.0,0.0,0.0,-3.3361,-3.3276,-3.3206,-3.2988,-3.3342,-3.3803,-3.4379,0.0,0.0,0.0,0.0,0.0,0.0,0.0,0.0,0.0,0.0,0.0,0.0,0.0,0.0,0.0,0.0,0.0,0.0,0.0,0.0,0.0,0.0,-3.4775,-3.4775,-3.4775,-3.4775,-3.4726,-3.4738,-3.4726,-3.4689,-3.4775,-3.4787,-3.4738,-3.4738,-3.4726,-3.4689,-3.4689,-3.4689,-3.4689,0.0,0.0,-3.4689,-3.4689,-3.4689,-3.4689,-3.4689,-3.4689,-3.4689,-3.4689,-3.4689,-3.4689,0.0,0.0,0.0,0.0,0.0,0.0,0.0,0.0,0.0,0.0,0.0,0.0,0.0,0.0,0.0,0.0,0.0,0.0,0.0,0.0,0.0,-2.2197,-2.2525,-2.286,-2.3138,-2.4031,-2.4666,-2.5005,-2.5591,-2.5839,-2.5784,-2.5674,-2.5453,-2.5146,-2.5384,-2.5425,-2.5287,-2.5564,-2.6314,-2.7308,-2.7337,0.0,0.0,0.0,0.0,0.0,0.0,0.0,0.0,-3.008,-3.0922,-3.195,-3.1982,0.0,0.0,0.0,0.0,0.0,-3.3361,-3.3192,-3.3002,-3.281,-3.2701,-3.2878,-3.3813,-3.4088,0.0,0.0,0.0,0.0,0.0,0.0,0.0,0.0,0.0,0.0,0.0,0.0,0.0,0.0,0.0,0.0,0.0,0.0,0.0,0.0,0.0,-3.4775,-3.4775,-3.4775,-3.4677,-3.4482,-3.4482,-3.4396,-3.4223,-3.4592,-3.4689,-3.4482,-3.4482,-3.4396,-3.4223,-3.4223,-3.4223,-3.4223,0.0,-3.4223,-3.4223,-3.4223,-3.4223,-3.4223,-3.4223,-3.4223,-3.4223,-3.4223,-3.4223,-3.4223,0.0,0.0,0.0,0.0,0.0,0.0,0.0,0.0,0.0,0.0,0.0,0.0,0.0,0.0,0.0,0.0,0.0,0.0,0.0,0.0,0.0,-2.2197,-2.2525,-2.2891,-2.3241,-2.4089,-2.4694,-2.5118,-2.5702,-2.5975,-2.5893,-2.5921,-2.5866,-2.5811,-2.5948,-2.5961,-2.5907,-2.6056,-2.6805,-2.788,0.0,0.0,0.0,0.0,0.0,0.0,0.0,0.0,0.0,0.0,-3.1128,-3.2112,-3.2256,0.0,0.0,0.0,0.0,0.0,-3.3262,-3.2931,-3.2596,-3.22,-3.2092,-3.2212,-3.2711,-3.3035,0.0,0.0,0.0,0.0,0.0,0.0,0.0,0.0,0.0,0.0,0.0,0.0,0.0,0.0,0.0,0.0,0.0,0.0,0.0,0.0,0.0,-3.4396,-3.4396,-3.4396,-3.4359,-3.4261,-3.4261,-3.4211,-3.4125,-3.431,-3.4359,-3.4261,-3.4261,-3.4211,-3.4125,-3.4125,-3.4125,-3.4125,0.0,-3.4125,-3.4125,-3.4125,-3.4125,-3.4125,-3.4125,-3.4125,-3.4125,-3.4125,-3.4125,-3.4125,0.0,0.0,0.0,0.0,0.0,0.0,0.0,0.0,0.0,0.0,0.0,0.0,0.0,0.0,0.0,0.0,0.0,0.0,0.0,0.0,-2.2197,-2.2197,-2.2555,-2.2951,-2.3403,-2.4147,-2.478,-2.5244,-2.5866,-2.6084,-2.6002,-2.6084,-2.6206,-2.6313,-2.6326,-2.6353,-2.6367,-2.6551,-2.7252,-2.8269,0.0,0.0,0.0,0.0,0.0,0.0,0.0,0.0,0.0,0.0,0.0,0.0,0.0,0.0,0.0,-3.3951,-3.3896,-3.3779,-3.3164,-3.2668,-3.22,-3.1579,-3.1482,-3.1554,-3.1654,-3.1928,-3.2327,0.0,0.0,0.0,0.0,0.0,0.0,0.0,0.0,0.0,0.0,0.0,0.0,0.0,0.0,0.0,0.0,0.0,0.0,0.0,0.0,-3.4125,-3.4125,-3.4125,-3.4075,-3.4026,-3.4026,-3.3977,-3.3927,-3.3927,-3.3927,-3.4026,-3.4026,-3.3977,-3.3927,-3.3927,-3.3927,-3.3927,-3.3927,-3.3927,-3.3927,-3.3927,-3.3927,-3.3927,-3.3927,-3.3927,-3.3927,-3.3927,-3.3927,-3.3927,0.0,0.0,0.0,0.0,0.0,0.0,0.0,0.0,0.0,0.0,0.0,0.0,0.0,0.0,0.0,0.0,0.0,0.0,0.0,0.0,-2.2197,-2.2197,-2.2635,-2.306,-2.3403,-2.4234,-2.4936,-2.5384,-2.5988,-2.6286,-2.6286,-2.6286,-2.6286,-2.6313,-2.6445,-2.6484,-2.6527,-2.7281,-2.7904,-2.8426,-2.9044,0.0,0.0,0.0,0.0,0.0,0.0,0.0,0.0,0.0,0.0,0.0,0.0,0.0,-3.4312,-3.3985,-3.3896,-3.3779,-3.3164,-3.2561,-3.1946,-3.1172,-3.0861,-3.0789,-3.0943,-3.086,0.0,-3.1805,0.0,0.0,0.0,0.0,0.0,0.0,0.0,0.0,0.0,0.0,0.0,0.0,0.0,0.0,0.0,0.0,0.0,0.0,-3.4125,-3.4125,-3.4125,-3.4125,-3.3977,-3.3729,-3.3729,-3.363,-3.3331,-3.3331,-3.3481,-3.3729,-3.3729,-3.358,-3.3331,-3.3331,-3.3331,-3.3331,-3.3331,-3.3331,-3.3331,-3.3331,-3.3331,-3.3331,-3.3331,-3.3331,-3.3331,-3.3331,-3.3331,-3.3331,0.0,0.0,0.0,0.0,0.0,0.0,0.0,0.0,0.0,0.0,0.0,0.0,0.0,0.0,0.0,0.0,0.0,0.0,0.0,-2.2197,-2.2197,-2.2197,-2.2635,-2.312,-2.3514,-2.4408,-2.5132,-2.5605,-2.5975,-2.6272,-2.6418,-2.6245,-2.6233,-2.6313,-2.6445,-2.6741,-2.7144,-2.754,-2.8262,-2.916,-2.9435,-2.9913,0.0,0.0,0.0,0.0,0.0,0.0,0.0,0.0,-3.1438,-3.2481,-3.2481,-3.3351,-3.4346,-3.3985,-3.3827,-3.3536,-3.2668,-3.2005,-3.1331,-3.0393,-2.9832,0.0,0.0,-2.9871,-3.004,-3.0223,-3.0664,0.0,0.0,0.0,0.0,0.0,0.0,0.0,0.0,0.0,0.0,0.0,0.0,0.0,0.0,0.0,0.0,0.0,-3.358,-3.358,-3.358,-3.358,-3.358,-3.3431,-3.3431,-3.3381,-3.3281,-3.3281,-3.3331,-3.3431,-3.3431,-3.3381,-3.3281,-3.3281,-3.3281,-3.3281,-3.3281,-3.3281,-3.3281,-3.3281,-3.3281,-3.3281,-3.3281,-3.3086,-3.2787,-3.2787,-3.2592,-3.2388,0.0,0.0,0.0,0.0,0.0,0.0,0.0,0.0,0.0,0.0,0.0,0.0,0.0,0.0,0.0,0.0,0.0,0.0,-2.2197,-2.2197,-2.2197,-2.2197,-2.2696,-2.3155,-2.3577,-2.4595,-2.5328,-2.5757,-2.6069,-2.6312,-2.6484,-2.6272,-2.6206,-2.6313,-2.6633,-2.7018,-2.7463,-2.7949,-2.8684,-2.9551,-2.9754,-3.0116,0.0,0.0,0.0,0.0,0.0,0.0,0.0,0.0,-3.1438,-3.2481,-3.2481,-3.3318,-3.4244,-3.3882,-3.3605,-3.3192,-3.2273,-3.1529,-3.0771,-2.9819,0.0,0.0,-2.8697,-2.8895,-2.9088,-2.9104,-2.9796,0.0,0.0,0.0,0.0,0.0,0.0,0.0,0.0,0.0,0.0,0.0,0.0,0.0,0.0,0.0,0.0,-3.2994,-3.3028,-3.3097,-3.3281,-3.3281,-3.3281,-3.3281,-3.3281,-3.3281,-3.3281,-3.3281,-3.3281,-3.3281,-3.3281,-3.3281,-3.3281,-3.3281,-3.3281,-3.3281,-3.3281,-3.3281,-3.3281,-3.3281,-3.3178,-3.3028,-3.3028,-3.2707,-3.2259,-3.2259,-3.2101,-3.1813,0.0,0.0,0.0,0.0,0.0,0.0,0.0,0.0,0.0,0.0,0.0,0.0,0.0,0.0,0.0,0.0,0.0,0.0,-2.2197,-2.2197,-2.2197,-2.2197,-2.2787,-2.3245,-2.3577,-2.4781,-2.555,-2.5921,-2.6297,-2.651,-2.6484,-2.6353,-2.6286,-2.6315,-2.6997,-2.7311,-2.7396,-2.8582,-2.9229,-2.9477,-3.0067,-3.0417,-3.0598,0.0,0.0,0.0,0.0,0.0,0.0,0.0,-3.1453,-3.2481,-3.2495,-3.3252,-3.4025,-3.3709,-3.3297,-3.2797,-3.2019,-3.1182,-3.038,0.0,0.0,0.0,-2.7962,-2.7881,-2.8034,-2.8592,0.0,-3.0118,-2.9855,0.0,0.0,0.0,0.0,0.0,0.0,0.0,0.0,0.0,0.0,0.0,0.0,0.0,0.0,-3.2443,-3.2477,-3.2707,-3.3247,-3.3281,-3.3281,-3.3281,-3.3281,-3.3281,-3.3281,-3.3281,-3.3281,-3.3281,-3.3281,-3.3281,-3.3281,-3.3281,-3.3281,-3.3281,-3.3281,-3.3281,-3.3281,-3.3281,-3.296,-3.2477,-3.2477,-3.2227,-3.1802,-3.1802,-3.1802,-3.1802,0.0,0.0,0.0,0.0,0.0,0.0,0.0,0.0,0.0,0.0,0.0,0.0,0.0,0.0,0.0,0.0,0.0,0.0,-2.2197,-2.2197,-2.2197,-2.2197,-2.2696,-2.312,-2.3437,-2.4637,-2.5591,-2.6324,-2.6258,-2.6218,-2.6218,-2.6084,-2.6242,-2.6665,-2.6961,-2.7584,-2.8451,-2.8909,-2.9397,-2.99,-3.0194,-3.0357,-3.0417,0.0,0.0,0.0,0.0,0.0,0.0,0.0,0.0,0.0,-3.3035,-3.3613,-3.4025,-3.3528,-3.2903,-3.2123,-3.1033,-3.0165,0.0,-2.8538,0.0,0.0,0.0,-2.7505,0.0,0.0,0.0,-2.9262,-2.9544,0.0,0.0,-3.0216,0.0,0.0,0.0,0.0,0.0,0.0,0.0,0.0,0.0,0.0,-3.1444,-3.1997,-3.2032,-3.2202,-3.2695,-3.273,-3.2891,-3.3269,-3.3281,-3.3281,-3.3281,-3.3281,-3.3281,-3.3281,-3.3281,-3.3281,-3.3281,-3.3281,-3.3281,-3.3281,-3.3281,-3.3281,-3.3258,-3.2879,-3.2431,-3.2032,-3.2032,-3.1674,-3.1237,-3.1237,-3.0996,-3.0675,0.0,0.0,0.0,0.0,0.0,0.0,0.0,0.0,0.0,0.0,0.0,0.0,0.0,0.0,0.0,0.0,0.0,0.0,0.0,-2.2197,-2.2197,-2.2197,-2.2586,-2.309,-2.3632,-2.4465,-2.5231,-2.5892,-2.5961,-2.5975,-2.5948,-2.6174,-2.64,-2.6678,-2.7298,-2.7959,-2.8645,-2.8959,-2.936,-2.9806,-2.996,-3.0038,-3.0129,0.0,0.0,0.0,0.0,0.0,0.0,0.0,0.0,0.0,-3.3169,-3.3638,-3.3785,-3.3234,-3.2426,-3.1502,-3.0469,-2.96,0.0,-2.8082,-2.7708,-2.7441,-2.726,0.0,0.0,0.0,0.0,0.0,0.0,0.0,0.0,0.0,0.0,0.0,0.0,0.0,0.0,0.0,0.0,0.0,0.0,-3.0698,-3.0905,-3.1433,-3.1467,-3.1685,-3.2179,-3.2202,-3.2351,-3.2673,-3.2684,-3.2776,-3.296,-3.2776,-3.2776,-3.296,-3.2776,-3.2684,-3.2745,-3.3097,-3.3166,-3.296,-3.2753,-3.2673,-3.2661,-3.234,-3.1915,-3.1467,-3.1467,-3.1157,-3.0698,-3.0698,-3.0491,-3.0216,0.0,0.0,0.0,0.0,0.0,0.0,0.0,0.0,0.0,0.0,-1.8706,0.0,0.0,0.0,0.0,0.0,0.0,0.0,0.0,0.0,-2.2197,-2.2197,-2.2525,-2.3078,-2.3917,-2.4221,-2.4578,-2.4944,-2.5536,-2.5785,-2.5744,-2.6399,-2.6621,-2.6541,-2.7767,-2.8263,-2.8219,-2.8801,-2.9117,-2.9247,-2.9432,-2.962,-2.9777,-2.9974,0.0,0.0,0.0,0.0,0.0,0.0,0.0,0.0,-3.301,-3.3343,-3.3382,-3.2775,-3.1882,-3.0934,-3.0101,0.0,0.0,0.0,0.0,0.0,0.0,0.0,0.0,0.0,0.0,0.0,0.0,0.0,0.0,0.0,0.0,0.0,0.0,0.0,0.0,0.0,0.0,0.0,0.0,-3.0216,-3.0422,-3.0905,-3.0939,-3.1169,-3.1721,-3.1744,-3.1767,-3.1813,-3.1813,-3.202,-3.2408,-3.2032,-3.1984,-3.2408,-3.202,-3.1813,-3.1848,-3.273,-3.2879,-3.2397,-3.1926,-3.172,-3.1744,-3.1744,-3.1398,-3.0939,-3.0939,-3.0641,-3.0216,-3.0216,-3.0216,-3.0216,0.0,0.0,0.0,0.0,0.0,0.0,0.0,0.0,0.0,0.0,0.0,0.0,0.0,0.0,0.0,0.0,0.0,0.0,0.0,0.0,-2.2197,-2.2197,-2.2525,-2.2878,-2.3275,-2.3526,-2.3923,-2.4525,-2.4964,-2.5406,-2.5842,-2.6036,-2.6478,-2.7205,-2.7618,-2.7859,-2.8061,-2.8344,-2.8481,-2.8546,-2.8835,-2.9153,-2.9435,-2.962,-2.9775,0.0,0.0,0.0,0.0,0.0,0.0,0.0,-3.289,-3.2961,-3.2739,-3.1992,-3.1145,-3.0279,0.0,-2.8578,0.0,0.0,0.0,0.0,0.0,0.0,0.0,0.0,0.0,0.0,0.0,0.0,0.0,0.0,0.0,0.0,0.0,0.0,0.0,0.0,0.0,0.0,-3.0216,-3.0216,-3.0262,-3.0376,-3.0388,-3.0618,-3.1146,-3.118,-3.1364,-3.1802,-3.1813,-3.1871,-3.1963,-3.1871,-3.1871,-3.1963,-3.1871,-3.1813,-3.1825,-3.2043,-3.2078,-3.1963,-3.1789,-3.1525,-3.118,-3.118,-3.087,-3.0388,-3.0388,-3.0319,-3.0216,-3.0216,-3.0216,-3.0216,0.0,0.0,0.0,0.0,0.0,0.0,0.0,0.0,0.0,0.0,0.0,0.0,0.0,0.0,0.0,0.0,0.0,0.0,0.0,0.0,-2.2197,-2.2197,-2.2432,-2.2604,-2.2744,-2.3292,-2.3721,-2.406,-2.4606,-2.5114,-2.5568,-2.6182,-2.6574,-2.6809,-2.7421,-2.7616,-2.753,-2.7696,-2.7762,-2.7796,-2.8189,-2.8449,-2.8707,-2.899,-2.9103,-2.9075,-2.9008,0.0,0.0,0.0,0.0,0.0,0.0,0.0,-3.1992,-3.1281,-3.057,-2.9819,0.0,0.0,0.0,0.0,0.0,0.0,0.0,0.0,0.0,0.0,0.0,0.0,0.0,0.0,0.0,0.0,0.0,0.0,0.0,0.0,0.0,0.0,0.0,0.0,-3.0216,-3.0216,-3.0216,-3.0216,-3.0216,-3.0342,-3.0618,-3.0629,-3.0755,-3.1019,-3.1019,-3.1146,-3.141,-3.1146,-3.1099,-3.1245,-3.1017,-3.0762,-3.0516,-3.099,-3.1245,-3.1187,-3.0701,-3.0394,-3.026,-3.0121,-3.0066,-3.0057,-3.0057,-3.0136,-3.0216,-3.0216,-3.0216,-3.0216,0.0,0.0,0.0,0.0,0.0,0.0,0.0,0.0,0.0,0.0,0.0,0.0,0.0,0.0,0.0,0.0,0.0,0.0,0.0,0.0,0.0,-2.2197,-2.2309,-2.2407,-2.2492,-2.3212,-2.3658,-2.3843,-2.4417,-2.4873,-2.5246,-2.6317,-2.6583,-2.6174,-2.7135,-2.7276,-2.6837,-2.6973,-2.7027,-2.7061,-2.7443,-2.7709,-2.7908,-2.8249,-2.8268,-2.817,-2.8211,-2.8492,-2.8961,-2.9717,0.0,0.0,0.0,0.0,-3.1145,-3.057,-3.0012,-2.9445,0.0,0.0,0.0,0.0,0.0,0.0,0.0,0.0,0.0,0.0,0.0,0.0,0.0,0.0,0.0,0.0,0.0,0.0,0.0,0.0,0.0,0.0,0.0,0.0,-3.0216,-3.0216,-3.0216,-3.0216,-3.0216,-3.0216,-3.0216,-3.0216,-3.017,-3.0136,-3.0136,-3.0342,-3.0684,-3.0251,-3.0102,-3.0278,-2.9837,-2.937,-2.8954,-2.9713,-3.0137,-3.0161,-2.9351,-2.9128,-2.9301,-2.9117,-2.937,-2.984,-2.9886,-3.0011,-3.0216,-3.0216,-3.0216,-3.0216,0.0,0.0,0.0,0.0,0.0,0.0,0.0,0.0,0.0,0.0,0.0,0.0,0.0,0.0,0.0,0.0,0.0,0.0,-2.2197,0.0,0.0,-2.2197,-2.2216,-2.2433,-2.2891,-2.3039,-2.351,-2.4382,-2.467,-2.4971,-2.5293,-2.5644,-2.5954,-2.6189,-2.6458,-2.6405,-2.6072,-2.6267,-2.6324,-2.6358,-2.6714,-2.704,-2.7297,-2.7364,-2.7484,-2.7616,-2.7786,-2.8202,-2.8733,-2.9299,-2.9889,0.0,0.0,0.0,-3.0101,-2.969,-2.938,-2.904,0.0,0.0,0.0,0.0,0.0,0.0,0.0,0.0,0.0,0.0,0.0,0.0,0.0,0.0,0.0,0.0,0.0,0.0,0.0,0.0,0.0,0.0,0.0,0.0,-3.0216,-3.0216,-3.0216,-3.0216,-3.0216,-3.0216,-3.0216,-3.0216,-3.0136,-2.9931,-2.9931,-2.9725,-2.9366,-2.93,-2.915,-2.8962,-2.8696,-2.843,-2.8139,-2.804,-2.8261,-2.8668,-2.8556,-2.8488,-2.8581,-2.8689,-2.9059,-2.9588,-2.9794,-3.0011,-3.0216,-3.0216,-3.0216,-3.0216,0.0,0.0,0.0,0.0,0.0,0.0,0.0,0.0,0.0,0.0,0.0,0.0,0.0,0.0,0.0,-2.2173,-2.2197,-2.2197,-2.2197,-2.2197,-2.2197,-2.2197,-2.2474,-2.2751,-2.2999,-2.3544,-2.4061,-2.4484,-2.4888,-2.5153,-2.53,-2.5397,-2.5514,-2.5699,-2.599,-2.5921,-2.5571,-2.5781,-2.5851,-2.5886,-2.6025,-2.6233,-2.6461,-2.6483,-2.6625,-2.6844,-2.7097,-2.7663,-2.8313,-2.8675,-2.9163,-2.9613,-2.9509,0.0,0.0,0.0,-2.8988,0.0,-2.8191,0.0,0.0,0.0,0.0,0.0,0.0,0.0,0.0,0.0,0.0,0.0,0.0,0.0,0.0,0.0,0.0,0.0,0.0,0.0,0.0,0.0,0.0,0.0,-2.9577,-2.9428,-2.9371,-2.9371,-2.9371,-2.9371,-2.9371,-2.9371,-2.9336,-2.9209,-2.9139,-2.8954,-2.8721,-2.856,-2.8269,-2.7835,-2.7478,-2.7204,-2.6955,-2.6648,-2.703,-2.794,-2.7668,-2.762,-2.7715,-2.7857,-2.8222,-2.8699,-2.8943,-2.9266,-2.9577,-2.9577,-2.9772,-3.0011,0.0,0.0,0.0,0.0,0.0,0.0,0.0,0.0,0.0,0.0,0.0,0.0,0.0,0.0,0.0,0.0,-2.2123,-2.2166,-2.2197,-2.2197,-2.2258,-2.239,-2.2806,-2.3099,-2.3364,-2.4133,-2.459,-2.4723,-2.5119,-2.5312,-2.5312,-2.5312,-2.5312,-2.5312,-2.5606,-2.5571,-2.5312,-2.5453,-2.55,-2.5465,-2.55,-2.5571,-2.5676,-2.5652,-2.5874,-2.6215,-2.6493,-2.7148,-2.7871,-2.8171,-2.8565,-2.8934,0.0,0.0,0.0,0.0,0.0,0.0,0.0,0.0,0.0,0.0,0.0,0.0,0.0,0.0,0.0,0.0,0.0,0.0,0.0,0.0,0.0,0.0,0.0,0.0,0.0,0.0,0.0,0.0,0.0,0.0,-2.8943,-2.8689,-2.8538,-2.8538,-2.8538,-2.8538,-2.8538,-2.8538,-2.8491,-2.8445,-2.8233,-2.8055,-2.7925,-2.7573,-2.7183,-2.6706,-2.6342,-2.6052,-2.58,-2.5606,-2.6022,-2.6877,-2.6706,-2.6658,-2.6849,-2.7013,-2.7394,-2.7799,-2.8092,-2.8477,-2.8839,-2.8896,-2.9185,-2.9519,0.0,0.0,0.0,0.0,0.0,0.0,0.0,0.0,0.0,0.0,0.0,0.0,-2.1811,-2.18,-2.1792,-2.1894,-2.1937,-2.1999,-2.2197,-2.2197,-2.2414,-2.2951,-2.2999,0.0,-2.4388,-2.446,-2.4771,-2.5264,-2.53,-2.5312,-2.5312,-2.5312,-2.5312,-2.5312,-2.5312,-2.5312,-2.5312,0.0,0.0,0.0,0.0,0.0,0.0,-2.504,-2.5349,0.0,0.0,0.0,-2.7505,-2.8044,0.0,0.0,0.0,-2.855,-2.851,0.0,0.0,0.0,0.0,0.0,0.0,0.0,0.0,0.0,0.0,0.0,0.0,0.0,0.0,0.0,0.0,0.0,0.0,0.0,0.0,0.0,0.0,0.0,0.0,0.0,0.0,0.0,0.0,-2.8196,-2.8034,-2.8034,-2.8034,-2.8034,-2.8034,-2.8034,-2.794,-2.7683,-2.741,-2.7051,-2.6592,-2.6091,-2.5703,-2.5382,-2.5382,-2.5235,-2.4981,-2.4932,-2.4981,-2.5079,-2.5548,-2.579,-2.5839,-2.6342,-2.6822,-2.7278,-2.7552,-2.7788,-2.8092,-2.8337,-2.8441,-2.8488,0.0,0.0,0.0,0.0,0.0,0.0,0.0,0.0,0.0,0.0,0.0,0.0,0.0,-2.1474,-2.1537,-2.1557,-2.1706,-2.1922,-2.2305,-2.2328,-2.2565,-2.3119,-2.3563,-2.3988,-2.4359,-2.4785,-2.5119,-2.5312,-2.5312,-2.5312,-2.5312,-2.5218,-2.5182,-2.5182,-2.5276,-2.5241,-2.5182,-2.5182,0.0,0.0,0.0,0.0,0.0,0.0,0.0,0.0,0.0,0.0,0.0,0.0,0.0,0.0,-2.8271,-2.8299,-2.8339,-2.8471,0.0,0.0,0.0,0.0,0.0,0.0,0.0,0.0,0.0,0.0,0.0,0.0,0.0,0.0,0.0,0.0,0.0,0.0,0.0,0.0,0.0,0.0,0.0,0.0,0.0,0.0,0.0,-2.6628,-2.6504,-2.6504,-2.6504,-2.6504,-2.6504,-2.6504,-2.6456,-2.636,-2.6139,-2.581,-2.547,-2.5265,-2.5069,-2.4784,-2.4784,-2.4686,-2.4449,-2.4449,-2.4449,-2.4449,-2.4775,-2.502,-2.5216,-2.5567,-2.582,-2.5994,-2.6274,-2.6552,-2.6812,-2.7061,-2.7394,-2.7668,0.0,0.0,0.0,0.0,0.0,0.0,0.0,0.0,0.0,0.0,0.0,0.0,0.0,0.0,-2.1012,-2.128,-2.1592,-2.1976,-2.2333,-2.2422,-2.2721,-2.3348,-2.3905,-2.4281,-2.4459,-2.4909,-2.5182,-2.5241,-2.5241,-2.5241,-2.5241,-2.5147,-2.5052,-2.4981,-2.5087,-2.5087,0.0,0.0,0.0,-2.4682,0.0,0.0,-2.4319,0.0,0.0,0.0,0.0,0.0,0.0,0.0,0.0,0.0,0.0,-2.8018,-2.8151,-2.8271,0.0,0.0,-2.7978,0.0,0.0,0.0,0.0,0.0,0.0,0.0,0.0,0.0,0.0,0.0,0.0,0.0,0.0,0.0,0.0,0.0,0.0,0.0,0.0,0.0,0.0,0.0,0.0,-2.5135,-2.5025,-2.5025,-2.517,0.0,-2.5247,-2.5382,-2.5411,-2.5304,-2.5118,-2.4883,-2.4686,-2.4686,-2.4587,-2.439,-2.439,-2.4341,-2.4202,-2.4202,-2.4202,-2.4202,-2.4341,-2.4538,-2.4784,-2.5088,-2.5186,-2.5177,-2.5362,-2.5557,-2.5713,-2.6004,-2.6294,-2.661,0.0,0.0,0.0,0.0,0.0,0.0,0.0,0.0,0.0,-2.0268,0.0,0.0,0.0,0.0,0.0,-2.1018,-2.1618,-2.2057,-2.2252,-2.2457,-2.2903,-2.363,-2.3874,-2.4249,-2.4742,-2.4801,-2.4897,-2.5087,-2.5087,-2.5087,-2.5087,-2.5087,-2.4992,-2.4801,-2.479,-2.479,-2.479,0.0,-2.4682,-2.4465,0.0,-2.4066,-2.3903,0.0,0.0,0.0,-2.4989,-2.5675,0.0,-2.6445,0.0,0.0,0.0,-2.7655,-2.7893,-2.7893,0.0,0.0,0.0,0.0,0.0,0.0,0.0,0.0,0.0,0.0,0.0,0.0,0.0,0.0,0.0,0.0,0.0,0.0,0.0,0.0,0.0,0.0,0.0,0.0,0.0,0.0,0.0,-2.3961,-2.3672,-2.3672,-2.4023,-2.4259,-2.4259,-2.4646,-2.4716,-2.447,-2.447,-2.439,-2.4202,-2.4202,-2.4202,-2.4202,-2.4202,-2.4202,-2.4202,-2.4202,-2.4202,-2.4202,-2.4202,-2.4301,-2.448,-2.4784,-2.4883,-2.4883,-2.4883,-2.4883,-2.4883,-2.5186,-2.5284,-2.5333,0.0,0.0,0.0,0.0,0.0,0.0,0.0,0.0,-1.9194,0.0,0.0,0.0,-1.9442,-1.991,-2.0334,-2.0726,-2.1019,-2.1303,-2.1564,-2.1897,-2.2341,-2.2967,-2.3464,-2.3859,-2.4152,-2.4418,-2.4682,-2.4897,-2.4897,-2.4897,-2.4897,-2.4742,-2.4634,0.0,-2.4418,-2.4381,-2.4381,-2.4538,0.0,-2.4077,-2.422,-2.4055,0.0,0.0,0.0,0.0,0.0,-2.5335,-2.5569,0.0,-2.5779,-2.6155,0.0,0.0,0.0,-2.7841,0.0,0.0,-2.78,0.0,0.0,0.0,0.0,0.0,0.0,0.0,0.0,0.0,0.0,0.0,0.0,0.0,0.0,0.0,0.0,0.0,0.0,0.0,0.0,0.0,0.0,0.0,0.0,-2.314,-2.313,0.0,-2.3241,-2.3305,-2.3305,-2.3684,-2.3849,-2.3761,-2.4095,-2.4251,-2.4202,-2.4202,-2.4202,-2.4202,-2.4202,-2.4202,-2.4202,-2.4202,-2.4202,-2.4202,-2.4202,-2.4102,-2.3994,-2.4291,-2.4399,-2.4399,-2.4399,-2.4399,-2.4449,-2.4637,-2.4735,-2.4784,0.0,0.0,0.0,0.0,0.0,0.0,0.0,0.0,0.0,0.0,0.0,0.0,-1.899,-1.9667,-2.0192,-2.0311,-2.0594,-2.0919,-2.1261,-2.1559,-2.1945,-2.2429,-2.2852,-2.3187,-2.3372,-2.3641,-2.3934,-2.4309,-2.4309,-2.4345,-2.4418,-2.4309,-2.42,0.0,0.0,0.0,0.0,0.0,0.0,0.0,-2.4069,0.0,0.0,-2.3874,-2.3774,0.0,0.0,0.0,-2.4198,-2.4284,-2.4712,0.0,0.0,0.0,0.0,0.0,0.0,0.0,0.0,0.0,0.0,0.0,0.0,0.0,-2.6891,-2.6539,-2.6185,0.0,0.0,0.0,0.0,0.0,0.0,0.0,0.0,0.0,0.0,0.0,0.0,0.0,0.0,0.0,0.0,-2.2401,-2.24,-2.24,-2.2556,-2.2721,-2.2895,-2.3123,-2.3251,-2.3251,-2.3529,-2.3682,-2.3748,-2.3748,-2.3781,-2.3854,-2.3854,-2.3854,-2.3854,-2.3854,-2.3854,-2.3854,-2.3854,-2.3805,-2.3655,-2.3805,-2.3854,-2.3854,-2.3854,-2.3854,-2.3904,-2.3994,-2.4044,-2.4093,0.0,0.0,0.0,0.0,0.0,0.0,0.0,0.0,0.0,0.0,-1.844,-1.8505,-1.8867,-1.9465,-1.9877,-1.9877,-2.0265,-2.0644,-2.1012,-2.1252,-2.151,-2.1873,-2.2101,-2.2327,-2.2542,-2.258,-2.2879,-2.3482,-2.3482,-2.3604,-2.3787,-2.3787,-2.3703,-2.3519,0.0,0.0,0.0,0.0,0.0,-2.4471,-2.3826,-2.3563,0.0,0.0,-2.2506,-2.2308,-2.2315,-2.2492,-2.2711,-2.2931,-2.3704,0.0,0.0,0.0,0.0,0.0,-2.629,0.0,0.0,0.0,0.0,0.0,0.0,0.0,-2.6727,-2.6373,-2.6071,-2.6071,0.0,0.0,0.0,0.0,0.0,0.0,0.0,0.0,0.0,0.0,0.0,0.0,0.0,0.0,-2.2052,-2.183,-2.1696,-2.1696,-2.2016,-2.2373,-2.2757,-2.2774,-2.2793,-2.2793,-2.2829,-2.2878,-2.2982,-2.2991,-2.309,-2.3335,-2.3335,-2.3361,-2.3397,-2.3397,-2.3397,-2.3397,-2.3397,-2.3397,-2.3347,-2.3347,-2.3347,-2.3397,-2.3397,-2.3397,-2.3397,-2.3397,-2.3397,-2.3447,0.0,0.0,0.0,0.0,0.0,0.0,0.0,0.0,0.0,-1.8422,-1.8536,-1.8693,-1.8948,-1.9379,-1.9672,-1.9672,-1.9894,-1.9981,-1.9912,-2.0303,-2.0566,-2.0654,-2.0982,-2.1357,-2.1738,-2.188,-2.2193,-2.2628,-2.2815,-2.2889,-2.2927,-2.3113,-2.315,-2.3113,0.0,0.0,0.0,0.0,0.0,-2.3928,-2.3578,0.0,-2.2856,-2.2582,-2.2186,-2.1843,-2.1837,-2.1865,-2.1998,-2.2388,-2.2809,-2.3323,0.0,0.0,0.0,0.0,0.0,0.0,0.0,0.0,0.0,0.0,0.0,0.0,-2.579,-2.5454,-2.5147,0.0,0.0,0.0,0.0,0.0,0.0,0.0,0.0,0.0,0.0,0.0,0.0,0.0,0.0,0.0,-2.1785,-2.1731,-2.1696,-2.1696,-2.176,-2.1842,-2.1925,-2.2098,-2.2188,-2.2188,-2.2299,-2.2354,-2.2378,-2.2387,-2.2544,-2.2944,-2.2944,-2.3103,-2.3397,-2.3397,-2.3397,-2.3397,-2.3397,-2.3297,-2.3097,-2.3097,-2.3197,-2.3397,-2.3397,-2.3397,-2.3397,-2.3397,-2.3397,-2.3406,0.0,0.0,0.0,0.0,0.0,0.0,0.0,0.0,0.0,-1.8535,-1.8722,-1.8861,-1.8861,-1.9043,-1.913,-1.913,-1.925,-1.9359,-1.9429,-1.9666,-1.9902,-2.0098,-2.0294,-2.0557,-2.0905,-2.1011,-2.1242,-2.1634,-2.1835,-2.1987,-2.2101,-2.2214,-2.2252,0.0,0.0,0.0,0.0,0.0,-2.2364,-2.3012,-2.291,0.0,-2.2683,-2.2136,-2.1597,-2.1195,-2.106,-2.1105,-2.1239,-2.1588,-2.1971,0.0,0.0,-2.3551,-2.3887,0.0,-2.4594,-2.485,0.0,0.0,0.0,-2.538,0.0,0.0,0.0,-2.4988,-2.4743,0.0,0.0,0.0,0.0,0.0,0.0,0.0,0.0,0.0,0.0,0.0,0.0,0.0,0.0,0.0,-2.1919,-2.1785,-2.1696,-2.1696,-2.1696,-2.1651,-2.1571,-2.1663,-2.1635,-2.1526,-2.1577,-2.1633,-2.1696,-2.1696,-2.1851,-2.2092,-2.2092,-2.2292,-2.2717,-2.2717,-2.2822,-2.2996,-2.2996,-2.2896,-2.2795,-2.2795,-2.2896,-2.2996,-2.2996,-2.2996,-2.2996,-2.2996,-2.2996,-2.2996,0.0,0.0,0.0,0.0,0.0,0.0,0.0,0.0,0.0,-1.8672,-1.8843,-1.8891,-1.874,-1.87,-1.87,0.0,-1.87,-1.8851,0.0,0.0,0.0,0.0,-1.9666,-1.9784,-2.0029,-2.0108,-2.0294,-2.0634,-2.0886,-2.1128,-2.1272,-2.131,0.0,0.0,0.0,0.0,0.0,0.0,0.0,-2.1948,0.0,-2.2217,-2.2492,-2.1597,-2.1024,-2.0609,-2.0382,-2.0428,-2.0654,-2.0862,-2.1168,-2.157,-2.2078,-2.2467,0.0,0.0,0.0,0.0,0.0,0.0,0.0,0.0,0.0,-2.4605,0.0,0.0,0.0,0.0,0.0,0.0,0.0,0.0,0.0,0.0,0.0,0.0,0.0,0.0,0.0,0.0,0.0,-2.2141,-2.2097,-2.1874,-2.1696,-2.1696,-2.1696,-2.1607,-2.1392,-2.1347,-2.1203,-2.0952,-2.0907,-2.093,-2.1023,-2.1032,-2.1121,-2.1311,-2.1311,-2.1508,-2.1884,-2.1961,-2.2158,-2.25,-2.2568,-2.2594,-2.2594,-2.2594,-2.2594,-2.2594,-2.2594,-2.2594,-2.2594,-2.2594,-2.2594,-2.2644,-1.7351,-1.7461,0.0,0.0,0.0,0.0,0.0,0.0,0.0,-1.87,-1.8714,-1.874,0.0,0.0,0.0,0.0,0.0,0.0,-1.878,0.0,0.0,0.0,0.0,0.0,-1.9161,-1.9301,-1.9508,-1.9754,-2.0186,-2.042,-2.042,-2.0605,0.0,0.0,-2.0323,0.0,0.0,0.0,-2.0245,0.0,-2.0605,-2.0998,0.0,-2.1051,-2.0609,-2.0337,-2.0292,-2.0337,-2.0382,0.0,-2.0789,-2.088,0.0,-2.1571,-2.1607,0.0,0.0,0.0,0.0,0.0,0.0,0.0,-2.3309,0.0,0.0,0.0,0.0,-2.3884,0.0,0.0,0.0,0.0,0.0,0.0,0.0,0.0,0.0,0.0,0.0,0.0,0.0,-2.2309,-2.2097,-2.1874,-2.1696,-2.1696,-2.1696,-2.1607,-2.1392,-2.115,-2.0961,-2.0736,-2.051,-2.04,-2.0397,-2.0397,-2.0595,-2.0942,-2.0942,-2.1131,-2.149,-2.1833,-2.2021,-2.2081,-2.2457,-2.2594,-2.2594,-2.2594,-2.2594,-2.2594,-2.2594,-2.2594,-2.2594,-2.2594,-2.2594,-2.2594,-1.7374,-1.7623,0.0,0.0,0.0,0.0,0.0,0.0,0.0,-1.8523,-1.8531,0.0,0.0,0.0,0.0,0.0,0.0,-1.8282,0.0,0.0,0.0,0.0,0.0,0.0,0.0,-1.8922,-1.9042,-1.924,-1.9587,-1.9784,-1.9912,-1.999,0.0,0.0,-1.9539,0.0,-1.9192,0.0,-1.9399,0.0,0.0,0.0,0.0,-2.0702,-2.0518,-2.0292,-2.0292,-2.0292,-2.0337,0.0,-2.0473,0.0,0.0,0.0,0.0,0.0,0.0,0.0,0.0,0.0,0.0,0.0,0.0,0.0,-2.3013,0.0,-2.3144,0.0,0.0,0.0,0.0,0.0,0.0,0.0,-2.2764,0.0,0.0,0.0,0.0,0.0,0.0,0.0,-2.1795,-2.1302,-2.0991,-2.0991,-2.0991,-2.0862,-2.048,-2.0341,-2.0272,-2.01,-2.002,-2.0078,-2.0292,-2.0292,-2.0377,-2.054,-2.054,-2.0737,-2.1105,-2.1268,-2.1465,-2.1679,-2.2064,-2.2227,-2.2294,-2.2508,-2.2594,-2.2594,-2.2594,-2.2594,-2.2594,-2.2594,-2.2594,-2.2594,-1.7514,0.0,0.0,0.0,0.0,0.0,0.0,0.0,0.0,0.0,0.0,0.0,-1.7878,-1.7838,0.0,0.0,-1.7668,-1.7749,0.0,0.0,-1.8161,0.0,0.0,0.0,0.0,0.0,0.0,-1.8843,-1.9033,-1.9192,-1.9369,-1.9369,-1.924,0.0,0.0,-1.8723,-1.8491,0.0,0.0,-1.912,-1.9225,-1.9557,-2.0052,-2.0416,-2.0473,-2.0292,-2.0292,-2.0292,-2.0292,-2.0292,-2.0292,0.0,-2.0518,0.0,0.0,0.0,0.0,0.0,-2.1212,0.0,0.0,0.0,0.0,0.0,0.0,0.0,0.0,0.0,0.0,0.0,0.0,0.0,0.0,0.0,0.0,-2.1702,0.0,0.0,0.0,0.0,0.0,0.0,0.0,-2.0822,-2.0521,-2.0521,-2.0521,-2.031,-1.982,-1.9811,-1.9729,-1.9581,-1.9648,-1.9828,-2.0138,-2.024,-2.0292,-2.0292,-2.0292,-2.0446,-2.072,-2.0831,-2.102,-2.1285,-2.167,-2.1901,-2.2013,-2.2337,-2.2508,-2.2594,-2.2594,-2.2594,-2.2594,-2.2594,-2.2594,-2.2594,-1.7965,-1.7974,0.0,0.0,0.0,0.0,0.0,0.0,0.0,0.0,0.0,0.0,0.0,0.0,0.0,0.0,0.0,-1.7139,-1.7139,0.0,-1.7335,0.0,0.0,-1.7821,0.0,0.0,0.0,0.0,0.0,-1.874,-1.874,-1.874,-1.8612,0.0,0.0,-1.8273,-1.804,-1.804,-1.8254,-1.8629,-1.8638,-1.9059,-1.9778,0.0,-2.0292,-2.0292,-2.0292,0.0,0.0,-2.0292,-2.0292,-2.0292,0.0,0.0,0.0,0.0,0.0,0.0,0.0,0.0,0.0,-2.1042,0.0,0.0,0.0,0.0,-2.2185,0.0,0.0,0.0,0.0,0.0,0.0,-2.1309,0.0,0.0,0.0,0.0,0.0,0.0,0.0,0.0,0.0,-2.0656,-2.0521,-2.0521,-2.0521,-2.031,-1.982,-1.9811,-1.9606,-1.9239,-1.9547,-1.9708,-1.9717,-2.0112,-2.0292,-2.0292,-2.0292,-2.03,-2.0317,-2.0703,-2.0929,-2.0917,-2.1276,-2.1645,-2.1996,-2.2013,-2.2227,-2.2594,-2.2594,-2.2594,-2.2594,-2.2594,-2.2594,-2.2594,0.0,0.0,0.0,0.0,0.0,0.0,0.0,-1.7595,0.0,0.0,0.0,0.0,0.0,-1.6812,-1.6607,0.0,0.0,-1.6345,-1.6188,-1.6476,0.0,0.0,0.0,-1.7057,0.0,0.0,0.0,0.0,0.0,0.0,-1.87,0.0,0.0,0.0,0.0,-1.8233,0.0,0.0,0.0,0.0,0.0,-1.905,-1.9734,0.0,-2.0292,-2.0292,-2.0292,-2.0292,-2.0292,-2.0292,-2.0292,-2.0292,-2.0292,-2.0292,-2.0292,-2.0292,-2.0382,-2.0428,0.0,0.0,-2.0781,-2.0781,0.0,0.0,0.0,0.0,0.0,0.0,0.0,0.0,0.0,0.0,0.0,-2.0214,0.0,0.0,0.0,0.0,-1.9916,0.0,0.0,0.0,0.0,0.0,0.0,-1.9714,-1.9602,-1.9367,-1.9091,-1.8959,-1.8859,-1.8818,-1.8913,-1.9222,-1.9691,-1.9819,-2.0052,-2.0292,-2.0292,-2.0292,-2.0292,-2.0429,-2.0489,-2.0514,-2.0891,-2.1139,-2.1293,-2.179,-2.2073,-2.221,-2.25,-2.2594,-2.2594,-2.2594,-2.2594,-2.2594,-1.7057,0.0,0.0,0.0,0.0,0.0,0.0,0.0,0.0,0.0,-1.6599,0.0,-1.6154,0.0,-1.5609,0.0,-1.5179,-1.522,-1.5144,-1.5477,0.0,-1.6105,-1.6188,0.0,0.0,0.0,0.0,0.0,0.0,-1.8,0.0,0.0,0.0,0.0,0.0,-1.8161,-1.8,0.0,-1.7951,0.0,0.0,-1.8676,0.0,0.0,-2.0036,-2.0292,0.0,-2.0155,-2.0155,-2.0073,-2.0073,-2.0073,-2.0164,-2.0155,-2.0201,-2.0292,-2.0292,-2.0292,-2.0292,-2.0428,0.0,-2.0564,-2.0736,0.0,-2.0907,0.0,0.0,0.0,0.0,0.0,0.0,0.0,0.0,-1.9435,-1.9503,0.0,0.0,-1.9301,-1.9301,0.0,0.0,0.0,0.0,0.0,-1.9301,-1.9301,-1.9112,-1.8922,0.0,-1.8523,-1.8386,-1.8382,-1.8519,-1.8828,-1.9281,-1.9563,-1.9819,-2.0095,-2.0133,-2.0155,-2.0155,-1.9973,-1.9928,-1.9936,-2.0096,-2.0225,-2.0431,-2.0965,-2.1357,-2.1618,-2.2053,-2.2332,-2.2443,-2.2544,-2.2594,-2.2594,0.0,0.0,0.0,0.0,-1.7098,0.0,0.0,0.0,-1.6147,0.0,-1.565,-1.5492,-1.5082,-1.4783,-1.4482,-1.4055,-1.3795,-1.3747,-1.4013,-1.4223,0.0,0.0,-1.5186,-1.5387,-1.5621,0.0,0.0,0.0,0.0,0.0,0.0,0.0,0.0,0.0,-1.8,0.0,-1.8,-1.7991,-1.787,-1.7693,-1.7879,-1.7945,-1.8003,-1.8652,-1.9415,-2.0104,-1.9965,-1.9882,-1.9837,-1.9625,-1.9587,-1.9579,-1.9799,-1.9837,-1.9928,-2.0155,-2.0246,-2.0246,-2.0246,-2.0246,-2.0246,-2.0221,-2.0393,0.0,0.0,0.0,-2.0368,0.0,0.0,0.0,0.0,0.0,0.0,0.0,0.0,0.0,0.0,0.0,0.0,0.0,0.0,0.0,0.0,0.0,-1.9301,-1.9301,-1.9112,0.0,0.0,-1.8482,-1.8282,-1.8,-1.8374,-1.8562,-1.8588,-1.9272,-1.9665,-1.9708,-1.978,-1.982,-1.9837,-1.9371,-1.9142,-1.9142,-1.8874,-1.8964,-1.9359,-1.9636,-2.0127,-2.0784,-2.1387,-2.182,-2.2173,-2.2493,-2.2594,-2.2594,-1.5193,-1.5151,-1.511,0.0,-1.5428,-1.5684,0.0,0.0,0.0,0.0,-1.4727,-1.4566,-1.4117,-1.3857,-1.3561,-1.3082,-1.2997,0.0,0.0,0.0,0.0,-1.3808,-1.3893,-1.4019,-1.423,-1.4601,0.0,-1.6064,0.0,0.0,-1.7781,0.0,0.0,0.0,0.0,0.0,-1.7991,-1.7821,-1.7578,-1.7261,-1.7319,-1.7308,-1.7286,0.0,-1.7688,-1.8133,-1.9282,-1.9571,-1.9371,-1.9333,-1.915,-1.902,-1.9058,-1.9242,-1.9371,-1.9463,-1.9617,-1.9762,-1.9762,-1.9762,-1.965,-1.9224,-1.9142,-1.9165,-1.8891,0.0,0.0,0.0,0.0,0.0,0.0,0.0,0.0,0.0,0.0,0.0,0.0,0.0,0.0,-1.9301,0.0,0.0,0.0,-1.9301,-1.9301,-1.9301,-1.8962,0.0,0.0,0.0,-1.8072,-1.8,-1.8085,-1.8314,-1.8579,-1.8625,-1.8921,-1.9462,-1.9153,-1.9027,-1.9058,-1.8765,-1.8535,-1.8357,-1.8319,-1.8319,-1.8466,-1.9005,-1.9399,-1.9846,-2.0925,-2.1753,-2.2493,-2.2594,-2.2594,-2.2594,-1.3977,0.0,0.0,-1.3548,0.0,0.0,-1.3971,-1.3971,0.0,-1.3675,-1.3675,0.0,-1.3179,-1.2918,-1.2668,-1.2283,-1.2155,0.0,-1.2246,0.0,0.0,-1.2759,-1.2881,-1.3009,-1.3137,-1.3555,0.0,-1.5262,0.0,0.0,-1.7253,0.0,0.0,0.0,0.0,-1.7627,0.0,-1.7505,-1.7253,-1.6894,-1.673,-1.6518,0.0,-1.6387,-1.6382,-1.6504,-1.7438,-1.7955,-1.8178,-1.8079,-1.7949,-1.7893,-1.8079,-1.8265,-1.8396,-1.8635,-1.8874,-1.9026,-1.8782,-1.8833,-1.8744,-1.8063,-1.7968,-1.7957,-1.7672,-1.7644,-1.772,0.0,-1.7785,-1.7647,0.0,0.0,0.0,0.0,0.0,0.0,0.0,0.0,0.0,0.0,0.0,0.0,0.0,-1.9262,-1.9301,-1.9301,-1.8922,0.0,0.0,0.0,-1.8,-1.8,-1.8,-1.8094,-1.8348,-1.8312,-1.8515,-1.8946,-1.8536,-1.8342,-1.8303,-1.7839,-1.7512,-1.7279,-1.7145,-1.7099,-1.716,-1.772,-1.8208,-1.8716,-1.994,-2.0916,-2.1645,-2.1645,-2.2047,-2.2594,0.0,0.0,0.0,0.0,0.0,0.0,0.0,-1.2833,0.0,-1.2619,0.0,-1.2534,-1.232,-1.2106,-1.1897,-1.1656,0.0,-1.1397,-1.1613,-1.1811,-1.1897,-1.1909,-1.2112,-1.2283,-1.2326,-1.2662,0.0,0.0,0.0,0.0,0.0,0.0,0.0,0.0,0.0,0.0,0.0,-1.6927,-1.673,-1.6402,-1.6038,-1.5575,-1.5131,-1.5241,-1.5119,-1.4981,-1.5024,-1.5749,-1.661,-1.6368,-1.6278,-1.6362,-1.6775,-1.6915,-1.7062,-1.7579,-1.7849,-1.7911,-1.7447,-1.7499,-1.746,-1.6676,-1.6638,-1.6746,-1.6498,-1.6541,-1.6642,-1.6769,-1.6654,-1.6607,-1.6927,0.0,0.0,0.0,0.0,0.0,0.0,0.0,0.0,0.0,0.0,0.0,0.0,0.0,0.0,0.0,0.0,0.0,0.0,0.0,-1.8,-1.8,-1.8,-1.7991,-1.7951,-1.8077,-1.817,-1.8218,-1.7843,-1.7591,-1.7446,-1.6749,-1.6292,-1.6055,-1.5825,-1.5689,-1.5737,-1.6298,-1.6906,-1.7693,-1.8855,-1.9724,-2.0229,-2.0277,-2.1086,-2.2223,0.0,0.0,0.0,0.0,0.0,-1.178,-1.1607,-1.1952,-1.2166,-1.2123,-1.2123,-1.2037,-1.1823,-1.178,-1.1656,-1.1397,-1.1348,0.0,0.0,0.0,0.0,-1.1435,-1.1478,-1.1607,-1.1828,-1.2069,-1.2656,0.0,0.0,0.0,0.0,0.0,0.0,0.0,0.0,0.0,-1.594,-1.594,0.0,-1.5026,-1.4776,-1.4314,-1.373,-1.3521,-1.3327,-1.3163,-1.3163,-1.4119,-1.5376,-1.51,-1.4902,-1.4708,-1.4799,-1.4987,-1.5219,-1.5549,-1.576,-1.5911,-1.5817,-1.5803,-1.5637,-1.4855,-1.4687,-1.4713,-1.4603,-1.4592,-1.4804,-1.5524,-1.5646,-1.5767,-1.6221,0.0,0.0,0.0,0.0,0.0,0.0,0.0,0.0,0.0,0.0,0.0,0.0,0.0,0.0,0.0,0.0,0.0,0.0,0.0,-1.8,0.0,-1.8,-1.791,0.0,0.0,-1.7242,-1.7172,-1.6609,-1.6271,-1.6111,-1.5752,-1.5493,-1.5267,-1.5226,-1.5226,-1.5267,-1.5737,-1.6709,-1.7905,-1.8308,-1.888,-1.9447,-1.9675,-1.9915,-2.021,0.0,0.0,0.0,0.0,0.0,0.0,0.0,-1.1483,-1.165,-1.165,-1.165,-1.1613,-1.1483,-1.1483,-1.1435,-1.1311,-1.1305,-1.1305,-1.1305,-1.1305,-1.1305,-1.1305,-1.1305,0.0,-1.1483,-1.1731,-1.2198,-1.2881,0.0,0.0,-1.4356,0.0,0.0,0.0,0.0,-1.5061,0.0,0.0,0.0,-1.4356,-1.4139,-1.3633,-1.3003,-1.279,-1.254,-1.2332,-1.2203,-1.2663,-1.3379,-1.3654,-1.3611,-1.3541,-1.3676,-1.3818,-1.3954,-1.4218,-1.4488,-1.4628,-1.4294,-1.4299,-1.4234,-1.3473,-1.3361,-1.3372,-1.3241,-1.3379,-1.3633,-1.4055,-1.4265,-1.4559,-1.5255,-1.5884,0.0,0.0,0.0,0.0,0.0,0.0,0.0,0.0,0.0,0.0,0.0,0.0,0.0,0.0,0.0,0.0,0.0,0.0,-1.7951,0.0,0.0,0.0,-1.7375,0.0,-1.6607,-1.6355,-1.5826,-1.5465,-1.5252,-1.5119,-1.4921,-1.4688,-1.4688,-1.4688,-1.4736,-1.5213,-1.5905,-1.6641,-1.6894,-1.7277,-1.7715,-1.7817,-1.7981,-1.839,0.0,-1.1305,0.0,0.0,-1.1305,0.0,-1.1305,-1.1305,-1.1305,-1.1305,-1.1305,-1.1305,-1.1305,-1.1305,-1.1305,-1.1305,-1.1305,-1.1305,-1.1305,-1.1305,-1.1305,-1.1305,-1.1305,-1.1305,-1.1305,-1.1527,-1.1823,0.0,0.0,0.0,-1.3179,0.0,0.0,0.0,0.0,0.0,0.0,0.0,-1.4055,-1.3717,-1.3457,-1.2991,-1.2454,-1.224,-1.2032,-1.1828,-1.1656,-1.1613,-1.1684,-1.2272,-1.2466,-1.2536,-1.2716,-1.2806,-1.2851,-1.3108,-1.3338,-1.3424,-1.2941,-1.2975,-1.297,-1.233,-1.2283,-1.2369,-1.2283,-1.2497,-1.2747,-1.2833,-1.3088,-1.347,-1.4203,-1.4838,-1.5436,0.0,0.0,0.0,0.0,0.0,0.0,0.0,0.0,0.0,0.0,0.0,0.0,0.0,0.0,0.0,-1.8322,0.0,0.0,0.0,0.0,-1.7335,-1.6894,0.0,-1.5944,-1.5526,-1.5086,-1.4708,-1.4383,-1.4438,-1.4352,-1.4202,-1.4202,-1.4298,-1.4442,-1.4838,-1.5118,-1.535,-1.5588,-1.5828,-1.6047,-1.6106,-1.6321,-1.6794,0.0,0.0,0.0,0.0,0.0,-1.1305,-1.1305,-1.1305,-1.1305,-1.1305,-1.1305,-1.1305,-1.1305,-1.1305,-1.1305,-1.1305,-1.1305,-1.1305,-1.1305,-1.1305,-1.1305,-1.1305,-1.1305,-1.1305,-1.1305,-1.1305,-1.1483,0.0,0.0,-1.2229,0.0,0.0,0.0,0.0,0.0,-1.2833,-1.2875,-1.2875,-1.2747,-1.2534,-1.2272,-1.202,-1.1785,-1.1478,-1.1392,-1.1348,-1.1354,-1.1354,-1.1354,-1.1419,-1.144,-1.1456,-1.1462,-1.1462,-1.1549,-1.1809,-1.1895,-1.189,-1.1867,-1.1862,-1.177,-1.1483,-1.1435,-1.1478,-1.1693,-1.1785,-1.1952,-1.2369,-1.2619,-1.2833,-1.3124,-1.3542,-1.4084,0.0,0.0,0.0,0.0,0.0,0.0,0.0,0.0,0.0,0.0,-1.7473,0.0,0.0,-1.8322,0.0,0.0,0.0,0.0,-1.718,-1.7172,-1.6853,-1.6211,-1.5733,-1.5075,-1.4271,-1.4021,-1.3707,-1.3243,-1.3507,-1.3732,-1.3931,-1.3931,-1.4214,-1.4688,-1.4742,-1.4885,-1.5131,-1.5178,-1.5191,-1.5249,-1.5498,-1.5607,-1.5678,0.0,0.0,0.0,0.0,0.0,0.0,0.0,-1.1429,-1.1558,-1.1558,-1.1396,-1.1359,-1.1504,-1.1558,-1.1612,-1.1758,-1.1639,-1.1558,-1.1558,-1.1386,-1.1305,-1.1305,-1.1305,-1.1305,-1.1305,-1.1305,-1.1354,0.0,0.0,0.0,0.0,0.0,-1.186,-1.186,-1.2032,-1.2118,-1.2118,-1.2246,-1.216,-1.1989,-1.186,-1.1693,-1.144,-1.1354,-1.1305,-1.1305,-1.1305,-1.1305,-1.1305,-1.1305,-1.1305,-1.1305,-1.1305,-1.1305,-1.1305,-1.144,-1.144,-1.144,-1.144,-1.144,-1.144,-1.1348,-1.1305,-1.1348,-1.144,-1.144,-1.1521,-1.1688,-1.1946,-1.216,-1.2357,-1.2784,-1.3294,-1.3844,0.0,0.0,0.0,0.0,0.0,0.0,0.0,0.0,0.0,0.0,0.0,0.0,0.0,0.0,0.0,0.0,0.0,-1.6533,0.0,-1.5899,-1.5075,-1.4594,-1.4006,-1.3258,-1.3337,-1.3235,-1.2934,-1.3305,-1.3545,-1.3642,-1.3642,-1.3781,-1.3973,-1.3973,-1.4022,-1.4118,-1.4118,-1.4118,-1.413,-1.4285,-1.4321,-1.4339,-1.0916,0.0,-1.1127,0.0,-1.1127,-1.1154,-1.1179,-1.137,-1.1502,-1.1566,-1.1433,-1.1441,-1.1785,-1.1801,-1.191,-1.2078,-1.1943,-1.1774,-1.1704,-1.1504,-1.138,-1.1311,-1.1305,0.0,-1.1305,-1.1305,-1.1305,-1.1305,-1.1305,0.0,0.0,-1.1305,-1.1305,-1.1311,-1.1483,-1.157,-1.157,-1.1742,-1.1699,-1.157,-1.157,-1.1483,-1.1305,-1.1305,-1.1305,-1.1305,-1.1305,-1.1305,-1.1305,-1.1305,-1.1305,-1.1305,-1.1305,-1.1305,-1.1305,-1.1305,-1.1305,-1.1305,-1.1305,-1.1305,-1.1305,-1.1305,-1.1305,-1.1305,-1.1305,-1.1305,-1.1305,-1.1305,-1.144,-1.1607,-1.1768,-1.2149,-1.254,-1.2918,0.0,0.0,0.0,0.0,0.0,0.0,0.0,0.0,0.0,0.0,0.0,0.0,0.0,0.0,0.0,0.0,0.0,0.0,0.0,0.0,-1.4104,-1.3626,-1.3118,-1.2497,-1.2682,-1.2706,-1.2614,-1.3163,-1.3394,-1.3394,-1.3491,-1.3491,-1.3491,-1.3491,-1.3491,-1.3491,-1.3491,-1.3491,-1.3491,-1.3491,-1.3491,-1.3491,-1.0641,-1.0727,-1.0727,-1.0727,-1.0727,-1.076,-1.0994,-1.1029,-1.106,-1.1278,-1.1298,-1.1482,-1.2043,-1.2089,-1.2089,-1.2094,-1.2089,-1.1991,-1.1715,-1.1698,-1.1591,0.0,0.0,-1.1305,-1.1305,-1.1305,-1.1305,-1.1305,0.0,0.0,-1.1305,-1.1305,-1.1305,-1.1305,-1.1305,-1.1305,-1.1311,-1.1311,-1.1311,-1.1305,-1.1305,-1.1305,-1.1305,-1.1305,-1.1305,-1.1305,-1.1305,-1.1305,-1.1305,-1.1305,-1.1305,-1.1305,-1.1305,-1.1305,-1.1305,-1.1305,-1.1305,-1.1305,-1.1305,-1.1305,-1.1305,-1.1305,-1.1305,-1.1305,-1.1305,-1.1305,-1.1305,-1.1305,-1.1305,-1.1311,-1.1311,-1.1527,-1.178,-1.1977,0.0,0.0,0.0,0.0,0.0,0.0,0.0,0.0,-1.4356,0.0,0.0,0.0,0.0,0.0,0.0,0.0,0.0,-1.4734,-1.4307,0.0,-1.3434,-1.296,-1.2485,-1.202,-1.202,-1.2047,-1.211,-1.2777,-1.3098,-1.3098,-1.3394,-1.3491,-1.3491,-1.3491,-1.3491,-1.3491,-1.3491,-1.3491,-1.3491,-1.3491,-1.3491,-1.3491,-1.0424,-1.068,-1.0923,-1.0923,-1.1,-1.1121,-1.1197,-1.1338,-1.1418,-1.1484,-1.1672,-1.1859,-1.2008,-1.201,-1.2172,0.0,-1.2388,-1.2269,0.0,-1.1881,-1.1666,-1.1591,-1.1391,-1.1305,-1.1305,-1.1305,-1.1305,-1.1305,0.0,-1.1305,-1.1305,-1.1305,-1.1305,-1.1305,-1.1305,-1.1305,-1.1305,-1.1305,-1.1305,-1.1305,-1.1305,-1.1305,-1.1305,-1.1305,-1.1305,-1.1305,-1.1305,-1.1305,-1.1305,-1.1305,-1.1305,-1.1305,-1.1305,-1.1305,-1.1305,-1.1305,-1.1305,-1.1305,-1.1305,-1.1305,-1.1305,-1.1305,-1.1305,-1.1305,-1.1305,-1.1305,-1.1305,-1.1305,-1.1305,-1.1305,-1.1305,-1.1348,-1.1521,-1.178,-1.1866,0.0,-1.2203,0.0,0.0,0.0,0.0,0.0,0.0,-1.3252,0.0,0.0,0.0,0.0,0.0,0.0,0.0,0.0,-1.3385,0.0,-1.2443,-1.216,-1.1866,-1.1516,-1.1718,-1.1954,-1.2307,-1.2715,-1.291,-1.291,-1.3007,-1.3007,-1.3007,-1.3007,-1.3007,-1.3007,-1.3007,-1.3007,-1.3007,-1.3007,-1.3007,-1.3007,-1.0075,-1.0336,-1.0562,-1.0703,-1.0806,-1.0922,-1.1005,-1.109,-1.1158,-1.1139,-1.1361,-1.1585,-1.1688,-1.1811,-1.2069,-1.2603,-1.2486,-1.2411,-1.242,-1.2134,-1.1887,-1.1709,-1.1558,-1.1396,-1.1311,-1.1305,-1.1305,-1.1305,-1.1305,-1.1305,-1.1305,-1.1305,-1.1305,-1.1305,-1.1305,-1.1305,-1.1305,-1.1305,-1.1305,-1.1305,-1.1305,-1.1305,-1.1305,-1.1305,-1.1305,-1.1305,-1.1305,-1.1305,-1.1305,-1.1305,-1.1305,-1.1305,-1.1305,-1.1305,-1.1305,-1.1305,-1.1305,-1.1305,-1.1305,-1.1305,-1.1305,-1.1305,-1.1305,-1.1305,-1.1305,-1.1305,-1.1305,-1.1305,-1.1305,-1.1305,-1.1305,-1.1305,-1.1354,-1.1527,-1.157,-1.1613,-1.1742,0.0,0.0,0.0,0.0,0.0,0.0,-1.2454,-1.2619,0.0,0.0,0.0,0.0,0.0,-1.3555,-1.3052,-1.2583,-1.2198,-1.1897,-1.165,-1.1483,-1.1311,-1.1677,-1.1989,-1.2291,-1.2662,-1.2813,-1.2813,-1.2813,-1.2813,-1.2813,-1.2813,-1.2813,-1.2813,-1.2813,-1.2813,-1.2813,-1.2813,-1.2813,-1.2813,-0.9659,-0.9749,-0.9855,-1.0083,-1.0143,-1.0215,-1.041,-1.0437,-1.0408,-1.0342,-1.056,-1.0806,-1.1047,-1.1292,-1.1683,-1.2224,-1.2322,-1.2378,-1.2357,-1.2325,-1.2158,-1.1697,-1.1665,-1.1547,-1.1267,-1.1262,-1.1262,-1.1262,-1.1267,-1.1267,-1.1267,-1.1305,-1.1305,-1.1305,-1.1305,-1.1305,-1.1305,-1.1305,-1.1305,-1.1305,-1.1305,-1.1305,-1.1305,-1.1305,-1.1305,-1.1305,-1.1305,-1.1305,-1.1305,-1.1305,-1.1305,-1.1305,-1.1305,-1.1305,-1.1305,-1.1305,-1.1305,-1.1305,-1.1305,-1.1305,-1.1305,-1.1305,-1.1305,-1.1305,-1.1305,-1.1305,-1.1305,-1.1305,-1.1305,-1.1305,-1.1305,-1.1305,-1.1305,-1.1305,-1.1305,-1.1305,-1.1305,-1.1527,0.0,0.0,0.0,0.0,-1.1957,-1.1957,-1.2037,0.0,0.0,0.0,0.0,0.0,-1.2534,-1.2363,-1.1909,-1.1656,-1.1656,-1.144,-1.1305,-1.1316,-1.1822,-1.2094,-1.211,-1.2591,-1.2813,-1.2813,-1.2813,-1.2813,-1.2813,-1.2813,-1.2813,-1.2813,-1.2813,-1.2813,-1.2813,-1.2813,-1.2813,-1.2813,-0.8885,-0.9194,-0.943,-0.9478,-0.9646,-0.9758,-0.9804,-0.9808,-0.9825,-0.9768,-0.9826,-0.992,-0.9969,-1.0019,-1.0314,-1.085,-1.1634,-1.2101,-1.2098,-1.1886,-1.1666,-1.1425,-1.1256,-1.1056,-1.0868,-1.0819,-1.0819,-1.0819,-1.1003,-1.1051,-1.1051,-1.1219,-1.1305,-1.1305,-1.1305,-1.1305,-1.1305,-1.1305,-1.1305,-1.1305,-1.1305,-1.1305,-1.1305,-1.1305,-1.1305,-1.1305,-1.1305,-1.1305,-1.1305,-1.1305,-1.1305,-1.1305,-1.1305,-1.1305,-1.1305,-1.1305,-1.1305,-1.1305,-1.1305,-1.1305,-1.1305,-1.1305,-1.1305,-1.1305,-1.1305,-1.1305,-1.1305,-1.1305,-1.1305,-1.1305,-1.1305,-1.1305,-1.1305,-1.1305,-1.1305,-1.1305,-1.1305,-1.1354,-1.1397,0.0,-1.1435,-1.1478,-1.1478,-1.1478,-1.1478,0.0,0.0,-1.1478,-1.1564,-1.1602,-1.1693,-1.1866,-1.1564,-1.1397,-1.1397,-1.1348,-1.1305,-1.1316,-1.1822,-1.2094,-1.211,-1.2591,-1.2813,-1.2813,-1.2813,-1.2813,-1.2813,-1.2813,-1.2813,-1.2813,-1.2813,-1.2813,-1.2813,-1.2813,-1.2813,-1.2813,-0.8106,-0.8337,-0.8593,-0.8841,-0.8966,-0.9031,-0.9031,-0.9031,-0.9031,-0.8882,-0.8981,-0.9031,-0.9031,-0.9175,-0.9373,-0.9665,-1.0654,-1.1438,-1.178,-1.1676,-1.1559,-1.1428,-1.1253,-1.1025,-1.0847,-1.074,-1.0684,-1.0684,-1.0824,-1.0868,-1.0868,-1.0954,-1.1041,-1.1041,-1.1041,-1.1041,-1.1041,-1.1041,-1.1041,-1.1041,-1.1041,-1.1041,-1.1041,-1.1041,-1.1041,-1.1041,-1.1138,-1.1181,-1.1181,-1.1267,-1.1305,-1.1305,-1.1305,-1.1305,-1.1305,-1.1305,-1.1305,-1.1305,-1.1305,-1.1305,-1.1305,-1.1305,-1.1305,-1.1305,-1.1305,-1.1305,-1.1305,-1.1305,-1.1305,-1.1305,-1.1305,-1.1305,-1.1305,-1.1305,-1.1305,-1.1305,-1.1305,-1.1305,-1.1305,-1.1305,-1.1305,-1.1305,-1.1305,-1.1305,-1.1305,-1.1305,-1.1305,0.0,-1.1305,-1.1305,-1.1348,-1.1527,-1.1397,-1.1305,-1.1305,-1.1305,-1.1305,-1.1316,-1.1822,-1.2094,-1.211,-1.2591,-1.2813,-1.2813,-1.2813,-1.2813,-1.2813,-1.2813,-1.2813,-1.2813,-1.2813,-1.2813,-1.2813,-1.2813,-1.2813,-1.2813,-0.726,-0.7381,-0.758,-0.8035,-0.8084,-0.8084,-0.8084,-0.8084,-0.8035,-0.7789,-0.7935,-0.8084,-0.8084,-0.828,-0.8474,-0.8474,-0.932,-1.0256,-1.1194,-1.1292,-1.1298,-1.1324,-1.1103,-1.0979,-1.0855,-1.0675,-1.0598,-1.0598,-1.0641,-1.0641,-1.0641,-1.0684,-1.0684,-1.0684,-1.0684,-1.0684,-1.0684,-1.0684,-1.0684,-1.0684,-1.0684,-1.0684,-1.0684,-1.0684,-1.0684,-1.0727,-1.0873,-1.0965,-1.1008,-1.1176,-1.1267,-1.1262,-1.1305,-1.1305,-1.1305,-1.1305,-1.1305,-1.1305,-1.1305,-1.1305,-1.1305,-1.1305,-1.1305,-1.1305,-1.1305,-1.1305,-1.1305,-1.1305,-1.1305,-1.1305,-1.1305,-1.1305,-1.1305,-1.1305,-1.1305,-1.1305,-1.1305,0.0,-1.1305,-1.1305,-1.1305,-1.1305,-1.1305,-1.1305,-1.1305,-1.1305,-1.1305,-1.1305,-1.1305,-1.1305,-1.1305,-1.1305,-1.1305,-1.1305,-1.1305,-1.1305,-1.1305,-1.1316,-1.1822,-1.2094,-1.211,-1.2591,-1.2813,-1.2813,-1.2813,-1.2813,-1.2813,-1.2764,-1.2764,-1.2716,-1.2667,-1.2619,-1.2619,-1.257,-1.2565,-1.2619,-0.6237,-0.6437,-0.6637,-0.6686,-0.6734,-0.6734,-0.6734,-0.6734,-0.6686,-0.6637,-0.6686,-0.6734,-0.6734,-0.6734,-0.6883,-0.708,-0.7276,-0.7971,-0.9464,-0.9768,-0.9934,-0.9979,-0.9793,-0.9791,-1.0052,-1.0104,-1.0125,-1.0125,-1.0294,-1.0381,-1.0381,-1.0598,-1.0684,-1.0684,-1.0684,-1.0684,-1.0684,-1.0684,-1.0684,-1.0684,-1.0684,-1.0684,-1.0684,-1.0684,-1.0684,-1.0684,-1.0733,-1.0733,-1.0776,-1.0959,-1.1051,-1.1094,-1.1267,-1.1305,-1.1305,-1.1305,-1.1305,-1.1305,-1.1305,-1.1305,-1.1305,-1.1305,-1.1305,-1.1305,-1.1305,-1.1305,-1.1305,-1.1305,-1.1305,-1.1305,-1.1305,-1.1305,-1.1305,-1.1305,-1.1305,-1.1305,-1.1305,-1.1305,-1.1305,-1.1305,-1.1305,-1.1305,-1.1305,-1.1305,-1.1305,-1.1305,-1.1305,-1.1305,-1.1305,-1.1305,-1.1305,-1.1305,-1.1305,-1.1305,-1.1305,-1.1305,-1.1305,-1.1316,-1.1822,-1.2094,-1.211,-1.2591,-1.2813,-1.2813,-1.2813,-1.2813,-1.2759,-1.2565,-1.2467,-1.2419,-1.198,-1.178,-1.178,-1.1541,-1.1585,-1.178,-0.5541,-0.5689,-0.5789,-0.5937,-0.5984,-0.5984,-0.5984,-0.5984,-0.5984,-0.5984,-0.5984,-0.5984,-0.5984,-0.5984,-0.6034,-0.6132,-0.6284,-0.6686,-0.7431,-0.8276,-0.8886,-0.9202,-0.9088,-0.9096,-0.9216,-0.9253,-0.9248,-0.9248,-0.9336,-0.9379,-0.9375,-0.9506,-0.955,-0.955,-0.955,-0.9641,-0.9733,-0.9733,-0.982,-0.9951,-0.9951,-0.9951,-0.9951,-0.9951,-0.9951,-0.9951,-1.0077,-1.012,-1.0125,-1.0391,-1.0477,-1.0477,-1.0564,-1.0608,-1.0608,-1.0608,-1.0911,-1.1305,-1.1305,-1.1305,-1.1305,-1.1305,-1.1305,-1.1305,-1.1305,-1.1305,-1.1305,-1.1305,-1.1305,-1.1305,-1.1305,-1.1305,-1.1305,-1.1305,-1.1305,-1.1305,-1.1305,-1.1305,-1.1305,-1.1305,-1.1305,-1.1305,-1.1305,-1.1305,-1.1305,-1.1305,-1.1305,-1.1305,-1.1305,-1.1305,-1.1305,-1.1305,-1.1305,-1.1305,-1.1305,-1.1305,-1.1305,-1.1316,-1.1822,-1.2094,-1.211,-1.2591,-1.2716,-1.2565,-1.2565,-1.2419,-1.2127,-1.2024,-1.1785,-1.1487,-1.1292,-1.1096,-1.0953,-1.0806,-1.0855,-1.0949,-0.5087,-0.509,-0.5188,-0.5386,-0.5434,-0.5434,-0.5434,-0.5434,-0.5434,-0.5434,-0.5434,-0.5434,-0.5434,-0.5434,-0.5434,-0.5434,-0.5589,-0.5739,-0.5792,-0.6783,-0.7627,-0.8326,-0.8409,-0.8379,-0.8303,-0.8388,-0.8412,-0.8412,-0.8412,-0.8412,-0.8412,-0.8412,-0.8412,-0.8412,-0.8412,-0.8548,-0.8732,-0.8732,-0.8907,-0.9126,-0.9126,-0.9126,-0.9126,-0.9126,-0.9126,-0.917,-0.9253,-0.9297,-0.9297,-0.9554,-0.9641,-0.9685,-0.9772,-0.9816,-0.9816,-0.9816,-1.0294,-1.0824,-1.0954,-1.1003,-1.1003,-1.1003,-1.1003,-1.1003,-1.1003,-1.1003,-1.1003,-1.1003,-1.1003,-1.0997,-1.1046,-1.1089,-1.1089,-1.1224,-1.1219,-1.1267,-1.1305,-1.1305,-1.1305,-1.1305,-1.1305,-1.1305,-1.1305,-1.1305,-1.1267,-1.1219,-1.1219,-1.1176,-1.1089,-1.1089,-1.1041,-1.1003,-1.1176,-1.1305,-1.1305,-1.1267,-1.1219,-1.123,-1.1642,-1.1814,-1.183,-1.2252,-1.2322,-1.2127,-1.2078,-1.178,-1.1389,-1.1292,-1.0949,-1.0502,-1.0355,-1.0162,-0.9916,-0.9867,-0.9867,-0.9965,-0.4834,-0.4834,-0.4834,-0.4834,-0.4834,-0.4834,-0.4834,-0.4834,-0.4834,-0.4834,-0.4834,-0.4834,-0.4834,-0.4834,-0.4834,-0.4834,-0.4885,-0.4987,-0.524,-0.534,-0.5887,-0.688,-0.7356,-0.7549,-0.7385,-0.769,-0.7878,-0.7878,-0.7878,-0.7878,-0.7878,-0.7878,-0.7878,-0.7878,-0.7878,-0.8013,-0.8245,-0.8245,-0.8416,-0.8636,-0.8636,-0.8636,-0.8636,-0.8636,-0.8636,-0.8636,-0.8376,-0.8288,-0.8332,-0.8544,-0.8632,-0.8675,-0.9104,-0.9279,-0.9279,-0.9279,-0.9323,-0.9458,-0.9946,-1.0081,-1.0081,-1.0081,-1.0081,-1.0081,-1.0081,-1.0081,-1.0081,-1.0081,-1.0081,-1.0168,-1.0337,-1.0381,-1.0516,-1.0965,-1.1008,-1.1094,-1.1267,-1.1305,-1.1305,-1.1305,-1.1305,-1.1305,-1.1305,-1.1305,-1.1224,-1.1051,-1.1008,-1.0829,-1.0381,-1.0381,-1.0294,-1.0081,-1.0873,-1.1305,-1.1305,-1.1138,-1.1008,-1.1013,-1.101,-1.0986,-1.1,-1.1197,-1.1292,-1.1292,-1.1047,-1.0904,-1.0801,-1.0314,-0.9965,-0.9657,-0.9118,-0.8775,-0.8531,-0.8287,-0.8333,-0.8581,-0.4784,-0.4784,-0.4784,-0.4784,-0.4784,-0.4784,-0.4784,-0.4784,-0.4784,-0.4784,-0.4784,-0.4784,-0.4784,-0.4784,-0.4784,-0.4784,-0.4784,-0.4834,-0.4937,-0.4937,-0.5309,-0.6131,-0.6308,-0.6394,-0.645,-0.6496,-0.6514,-0.6514,-0.6514,-0.6514,-0.6514,-0.6514,-0.6514,-0.6514,-0.6514,-0.665,-0.6922,-0.7051,-0.7224,-0.7485,-0.7621,-0.7669,-0.7669,-0.7669,-0.7577,-0.7485,-0.7353,-0.7224,-0.7092,-0.718,-0.718,-0.7221,-0.7394,-0.7482,-0.7482,-0.7482,-0.7482,-0.7526,-0.7705,-0.8623,-0.9501,-0.9501,-0.9501,-0.9501,-0.9501,-0.9501,-0.9501,-0.9501,-0.9501,-0.9545,-0.9589,-0.9767,-0.9907,-1.0086,-1.026,-1.0391,-1.0477,-1.0477,-1.0477,-1.0477,-1.0477,-1.0477,-1.0477,-1.0477,-1.0477,-1.0391,-1.0217,-1.0043,-0.9864,-0.9719,-0.9589,-0.9501,-0.9806,-1.0164,-1.0477,-1.0434,-1.0304,-1.0135,-1.0371,-1.038,-1.0246,-1.0566,-1.0609,-1.0462,-1.0158,-0.9858,-0.9517,-0.9175,-0.8775,-0.8322,-0.8127,-0.7882,-0.7637,-0.7537,-0.7587,-0.7683,-0.4784,-0.4784,-0.4784,-0.4784,-0.4784,-0.4784,-0.4784,-0.4784,-0.4784,-0.4784,-0.4784,-0.4784,-0.4784,-0.4784,-0.4784,-0.4784,-0.4784,-0.4784,-0.4784,-0.4784,-0.5005,-0.5483,-0.5444,-0.5477,-0.5588,-0.553,-0.5497,-0.5497,-0.5497,-0.5497,-0.5497,-0.5497,-0.5497,-0.5497,-0.5497,-0.5633,-0.5905,-0.6035,-0.6207,-0.647,-0.6605,-0.665,-0.665,-0.665,-0.6561,-0.6425,-0.6384,-0.6251,-0.6077,-0.6077,-0.6077,-0.6077,-0.6166,-0.6163,-0.6163,-0.6163,-0.6163,-0.6163,-0.6163,-0.7129,-0.8133,-0.8269,-0.8313,-0.8313,-0.8313,-0.84,-0.8444,-0.8444,-0.8492,-0.858,-0.8667,-0.8851,-0.9078,-0.9248,-0.9467,-0.9685,-0.9724,-0.9767,-0.9767,-0.9767,-0.9767,-0.9767,-0.9767,-0.9767,-0.9728,-0.9641,-0.9423,-0.9117,-0.8811,-0.8584,-0.84,-0.8313,-0.8313,-0.8492,-0.8851,-0.9379,-0.951,-0.9253,-0.9507,-0.9452,-0.9228,-0.9502,-0.9521,-0.9377,-0.9069,-0.8768,-0.8425,-0.8134,-0.7733,-0.7335,-0.7335,-0.7185,-0.6936,-0.6936,-0.6936,-0.6986,-0.4784,-0.4784,-0.4784,-0.4784,-0.4784,-0.4784,-0.4784,-0.4784,-0.4784,-0.4784,-0.4784,-0.4784,-0.4784,-0.4784,-0.4784,-0.4784,-0.4784,-0.4784,-0.4784,-0.4784,-0.4784,-0.4784,-0.4854,-0.4896,-0.4896,-0.4981,-0.501,-0.501,-0.501,-0.501,-0.501,-0.501,-0.501,-0.501,-0.501,-0.5144,-0.5371,-0.5371,-0.5502,-0.5675,-0.5675,-0.5675,-0.5675,-0.5675,-0.5675,-0.5675,-0.546,-0.5371,-0.5371,-0.5371,-0.5371,-0.5416,-0.5633,-0.5675,-0.5675,-0.5675,-0.5675,-0.5675,-0.5675,-0.5675,-0.5808,-0.6296,-0.6384,-0.6384,-0.6384,-0.6602,-0.6779,-0.6779,-0.6959,-0.7183,-0.7445,-0.7669,-0.7937,-0.8412,-0.8715,-0.8934,-0.9144,-0.9187,-0.9187,-0.9187,-0.9187,-0.9187,-0.9187,-0.9187,-0.9104,-0.889,-0.8632,-0.8061,-0.7139,-0.6912,-0.6691,-0.6384,-0.6384,-0.6384,-0.6384,-0.8057,-0.8759,-0.846,-0.836,-0.8153,-0.7882,-0.7951,-0.7988,-0.7988,-0.7683,-0.758,-0.758,-0.7285,-0.7039,-0.6795,-0.6795,-0.6639,-0.6387,-0.6387,-0.6387,-0.6437,-0.4784,-0.4784,-0.4784,-0.4784,-0.4784,-0.4784,-0.4784,-0.4784,-0.4784,-0.4784,-0.4784,-0.4784,-0.4784,-0.4784,-0.4784,-0.4784,-0.4784,-0.4784,-0.4784,-0.4784,-0.4784,-0.4784,-0.4713,-0.4713,-0.4713,-0.4574,-0.452,-0.452,-0.452,-0.452,-0.452,-0.452,-0.452,-0.452,-0.452,-0.4565,-0.4656,-0.4837,-0.4926,-0.5015,-0.5144,-0.5186,-0.5186,-0.5186,-0.5099,-0.4971,-0.4926,-0.4792,-0.4612,-0.4612,-0.4612,-0.4656,-0.4699,-0.4699,-0.4699,-0.4699,-0.4699,-0.4699,-0.4699,-0.4699,-0.4921,-0.5719,-0.5897,-0.5897,-0.5897,-0.5985,-0.6074,-0.6254,-0.621,-0.6207,-0.6476,-0.6567,-0.6656,-0.6789,-0.7003,-0.7177,-0.7217,-0.7217,-0.7217,-0.7217,-0.7217,-0.7217,-0.7217,-0.7217,-0.7221,-0.7132,-0.6959,-0.6609,-0.6163,-0.6074,-0.5985,-0.5897,-0.5897,-0.5897,-0.5897,-0.6735,-0.7048,-0.6833,-0.6934,-0.6835,-0.6658,-0.6822,-0.6886,-0.6886,-0.6589,-0.6489,-0.6439,-0.6187,-0.6037,-0.5987,-0.6142,-0.6192,-0.6139,-0.6337,-0.6387,-0.6387,-0.4784,-0.4784,-0.4784,-0.4784,-0.4784,-0.4784,-0.4784,-0.4784,-0.4784,-0.4784,-0.4784,-0.4784,-0.4784,-0.4784,-0.4784,-0.4784,-0.4784,-0.4784,-0.4784,-0.4784,-0.4784,-0.4784,-0.4665,-0.4621,-0.4621,-0.4391,-0.43,-0.43,-0.43,-0.43,-0.43,-0.43,-0.43,-0.43,-0.43,-0.43,-0.43,-0.448,-0.4525,-0.4569,-0.4656,-0.4743,-0.4743,-0.4743,-0.4656,-0.4525,-0.4525,-0.4433,-0.43,-0.43,-0.43,-0.43,-0.43,-0.43,-0.43,-0.43,-0.43,-0.43,-0.43,-0.43,-0.4431,-0.501,-0.5142,-0.5142,-0.5142,-0.5233,-0.5369,-0.5505,-0.5502,-0.5455,-0.5636,-0.5772,-0.5816,-0.5816,-0.5988,-0.6118,-0.6118,-0.6118,-0.6118,-0.6118,-0.6118,-0.6118,-0.6118,-0.6118,-0.6077,-0.5988,-0.5905,-0.5683,-0.5324,-0.5324,-0.5277,-0.5144,-0.5142,-0.5142,-0.5142,-0.5408,-0.5633,-0.5819,-0.5966,-0.5943,-0.5808,-0.594,-0.6046,-0.6087,-0.5887,-0.5839,-0.5839,-0.5687,-0.5586,-0.5636,-0.5789,-0.5839,-0.5839,-0.6037,-0.6087,-0.6087,-0.4734,-0.4734,-0.4734,-0.4734,-0.4734,-0.4734,-0.4734,-0.4734,-0.4784,-0.4784,-0.4784,-0.4784,-0.4784,-0.4784,-0.4784,-0.4784,-0.4784,-0.4784,-0.4784,-0.4784,-0.4784,-0.4784,-0.4665,-0.4621,-0.4621,-0.4391,-0.43,-0.43,-0.43,-0.43,-0.43,-0.43,-0.43,-0.43,-0.43,-0.43,-0.43,-0.43,-0.4304,-0.4312,-0.4312,-0.4316,-0.4322,-0.4314,-0.4312,-0.431,-0.4302,-0.43,-0.43,-0.43,-0.43,-0.43,-0.43,-0.43,-0.43,-0.43,-0.43,-0.43,-0.43,-0.43,-0.43,-0.43,-0.43,-0.43,-0.43,-0.448,-0.4661,-0.4705,-0.4835,-0.4966,-0.4966,-0.5146,-0.5282,-0.5282,-0.5458,-0.5586,-0.5586,-0.5586,-0.5586,-0.5586,-0.5586,-0.5586,-0.5586,-0.5586,-0.55,-0.5327,-0.5282,-0.5104,-0.4705,-0.4661,-0.4569,-0.43,-0.43,-0.43,-0.43,-0.43,-0.4656,-0.5285,-0.535,-0.5322,-0.5237,-0.5391,-0.5445,-0.5536,-0.5536,-0.5536,-0.5536,-0.5536,-0.5536,-0.5536,-0.5536,-0.5586,-0.5586,-0.5584,-0.5586,-0.5586,-0.4183,-0.4183,-0.4183,-0.4183,-0.4183,-0.4183,-0.4183,-0.4336,-0.4487,-0.4487,-0.4686,-0.4784,-0.4784,-0.4784,-0.4784,-0.4784,-0.4784,-0.4784,-0.4784,-0.4784,-0.4784,-0.4784,-0.4665,-0.4621,-0.4621,-0.4391,-0.43,-0.43,-0.43,-0.43,-0.43,-0.43,-0.43,-0.43,-0.43,-0.43,-0.43,-0.43,-0.434,-0.436,-0.436,-0.4449,-0.4506,-0.4432,-0.436,-0.435,-0.4324,-0.43,-0.43,-0.43,-0.43,-0.43,-0.43,-0.43,-0.43,-0.43,-0.43,-0.43,-0.43,-0.43,-0.43,-0.43,-0.43,-0.43,-0.43,-0.4344,-0.4433,-0.4661,-0.4569,-0.4523,-0.4748,-0.4659,-0.4523,-0.4523,-0.4567,-0.461,-0.461,-0.461,-0.461,-0.461,-0.461,-0.461,-0.461,-0.461,-0.4565,-0.4523,-0.4523,-0.4478,-0.4389,-0.4389,-0.4344,-0.43,-0.43,-0.43,-0.43,-0.43,-0.4389,-0.4523,-0.4619,-0.4669,-0.4765,-0.4861,-0.4903,-0.4985,-0.4985,-0.4985,-0.4985,-0.4985,-0.4985,-0.4985,-0.5188,-0.529,-0.5288,-0.5536,-0.5586,-0.5586,-0.3982,-0.3982,-0.3982,-0.3982,-0.3982,-0.3982,-0.3982,-0.4135,-0.4185,-0.4185,-0.4334,-0.4485,-0.4585,-0.4587,-0.4686,-0.4784,-0.4784,-0.4784,-0.4784,-0.4784,-0.4766,-0.4775,-0.4645,-0.4553,-0.4508,-0.4371,-0.43,-0.43,-0.43,-0.43,-0.43,-0.43,-0.43,-0.4302,-0.4344,-0.4363,-0.4367,-0.441,-0.4457,-0.45,-0.45,-0.4528,-0.4614,-0.4518,-0.45,-0.4493,-0.4447,-0.4402,-0.4357,-0.4314,-0.43,-0.43,-0.43,-0.43,-0.43,-0.43,-0.43,-0.43,-0.43,-0.43,-0.43,-0.43,-0.43,-0.43,-0.43,-0.43,-0.4344,-0.448,-0.4389,-0.4344,-0.448,-0.4389,-0.43,-0.43,-0.43,-0.43,-0.43,-0.43,-0.43,-0.43,-0.43,-0.43,-0.43,-0.43,-0.43,-0.43,-0.43,-0.43,-0.43,-0.43,-0.43,-0.43,-0.43,-0.43,-0.43,-0.43,-0.43,-0.43,-0.4346,-0.444,-0.4623,-0.4622,-0.4714,-0.4784,-0.4784,-0.4784,-0.4784,-0.4784,-0.4784,-0.4834,-0.4937,-0.4987,-0.5037,-0.5186,-0.5236,-0.5236,-0.3731,-0.3731,-0.3731,-0.3731,-0.3731,-0.3731,-0.3781,-0.3831,-0.3883,-0.3934,-0.3984,-0.4085,-0.4288,-0.4338,-0.4437,-0.4686,-0.4736,-0.4734,-0.4784,-0.4784,-0.4746,-0.4712,-0.4622,-0.4528,-0.439,-0.4346,-0.43,-0.43,-0.43,-0.43,-0.43,-0.4314,-0.4322,-0.4326,-0.4418,-0.4413,-0.4463,-0.454,-0.4629,-0.4596,-0.4596,-0.4604,-0.4616,-0.46,-0.4596,-0.4594,-0.4625,-0.4524,-0.4444,-0.4353,-0.4322,-0.432,-0.4304,-0.43,-0.43,-0.43,-0.43,-0.43,-0.43,-0.43,-0.43,-0.43,-0.43,-0.43,-0.43,-0.43,-0.43,-0.43,-0.43,-0.43,-0.43,-0.43,-0.43,-0.43,-0.43,-0.43,-0.43,-0.43,-0.43,-0.43,-0.43,-0.43,-0.43,-0.43,-0.43,-0.43,-0.43,-0.43,-0.43,-0.43,-0.43,-0.43,-0.43,-0.43,-0.43,-0.43,-0.43,-0.43,-0.43,-0.4387,-0.4549,-0.4549,-0.4647,-0.4762,-0.4762,-0.477,-0.4784,-0.4784,-0.4784,-0.4784,-0.4784,-0.4784,-0.4784,-0.4784,-0.4784,-0.4784,-0.2623,-0.2623,-0.2623,-0.2623,-0.2623,-0.2674,-0.2927,-0.3179,-0.3381,-0.3635,-0.3835,-0.4033,-0.4033,-0.4033,-0.4185,-0.4438,-0.4438,-0.4537,-0.4784,-0.4784,-0.4746,-0.4712,-0.4622,-0.4528,-0.439,-0.4346,-0.43,-0.43,-0.43,-0.43,-0.4302,-0.4379,-0.437,-0.4374,-0.4514,-0.4553,-0.4555,-0.4614,-0.4618,-0.4689,-0.4689,-0.4734,-0.4792,-0.4718,-0.4689,-0.4679,-0.46,-0.461,-0.454,-0.4449,-0.437,-0.4356,-0.4324,-0.43,-0.43,-0.43,-0.43,-0.43,-0.43,-0.43,-0.43,-0.43,-0.43,-0.43,-0.43,-0.43,-0.43,-0.43,-0.43,-0.43,-0.43,-0.43,-0.43,-0.43,-0.43,-0.43,-0.43,-0.43,-0.43,-0.43,-0.43,-0.43,-0.43,-0.43,-0.43,-0.43,-0.43,-0.43,-0.43,-0.43,-0.43,-0.43,-0.43,-0.43,-0.43,-0.43,-0.43,-0.43,-0.43,-0.4353,-0.4408,-0.4408,-0.4553,-0.4726,-0.4726,-0.4767,-0.4784,-0.4784,-0.4784,-0.4784,-0.4784,-0.4784,-0.4784,-0.4784,-0.4784,-0.4784,-0.2422,-0.2422,-0.2422,-0.2422,-0.2422,-0.2422,-0.2573,-0.2674,-0.2775,-0.2927,-0.3177,-0.338,-0.3531,-0.3831,-0.4033,-0.4185,-0.4185,-0.4216,-0.4268,-0.4314,-0.426,-0.4136,-0.4096,-0.4038,-0.3955,-0.3916,-0.39,-0.39,-0.4215,-0.4375,-0.4377,-0.4469,-0.4512,-0.4516,-0.4608,-0.4649,-0.4653,-0.47,-0.4743,-0.4779,-0.4779,-0.4752,-0.478,-0.4744,-0.4779,-0.4767,-0.4679,-0.4649,-0.4626,-0.4437,-0.4388,-0.4374,-0.4326,-0.43,-0.43,-0.43,-0.43,-0.43,-0.43,-0.43,-0.43,-0.43,-0.43,-0.43,-0.43,-0.43,-0.43,-0.43,-0.43,-0.43,-0.43,-0.43,-0.43,-0.43,-0.43,-0.43,-0.43,-0.43,-0.43,-0.43,-0.43,-0.43,-0.43,-0.43,-0.43,-0.43,-0.43,-0.43,-0.43,-0.43,-0.43,-0.43,-0.43,-0.43,-0.43,-0.43,-0.43,-0.43,-0.43,-0.4346,-0.4388,-0.4388,-0.4508,-0.4632,-0.4632,-0.4655,-0.4687,-0.4687,-0.4687,-0.4687,-0.4687,-0.4687,-0.4687,-0.4687,-0.4687,-0.4687]}]]